GFSWCAN_700_spd_000.txt.gz
Wind_Speed
36 35 32 30 28 25 21 22 20 19 18 15 16 14 14 15 17 21 18 16 17 24 27 24 21 22 20 17 9 13 7 14 17 17 20 21 20 25 27 27 29 31 30 25 19 17 19 19 14 14 15 21 20 30
37 33 32 30 29 23 20 19 17 16 15 15 15 14 14 14 15 15 14 14 16 22 22 15 13 19 23 18 19 14 8 10 12 11 8 13 15 12 24 24 18 26 31 24 23 24 23 21 17 18 8 6 13 21
35 32 29 26 22 18 18 13 13 13 13 13 12 11 14 13 11 11 12 13 14 22 19 10 12 15 16 17 17 16 6 10 7 8 13 11 11 12 17 12 23 19 20 20 20 24 22 19 21 18 12 14 17 22
30 28 26 23 21 18 13 12 11 11 10 11 12 10 9 8 9 11 10 12 13 16 18 1 3 11 13 17 12 8 10 11 13 6 5 8 11 5 10 12 12 16 18 14 16 12 10 19 27 29 28 28 29 28
27 26 26 23 18 12 12 11 9 10 10 11 12 3 5 4 5 6 8 10 11 13 13 5 3 9 8 9 10 11 9 10 6 5 4 6 3 6 6 12 20 21 19 12 14 25 24 33 31 20 23 26 24 22
26 25 20 21 17 14 12 10 9 9 12 7 1 4 1 2 5 4 4 3 8 8 8 1 4 7 7 8 9 8 8 9 6 4 3 8 6 6 6 6 14 22 23 19 24 35 38 41 22 21 13 16 12 11
26 22 19 19 18 14 13 12 10 11 8 2 3 2 2 3 5 2 3 5 7 5 4 2 6 7 7 5 8 11 6 8 8 2 5 6 4 5 5 5 7 16 26 28 38 35 32 34 34 19 11 8 5 2
22 23 22 21 21 17 14 11 9 7 7 5 5 4 6 5 1 5 6 9 11 8 6 4 8 11 8 6 6 8 8 10 5 3 12 5 7 9 6 10 9 15 26 27 33 31 30 30 39 15 11 10 10 9
22 21 22 20 18 17 14 13 10 9 8 8 8 9 9 6 4 9 5 5 10 8 4 8 7 6 5 6 7 11 12 16 5 8 4 7 11 9 9 17 21 19 22 25 19 24 27 23 22 21 22 16 3 3
22 21 20 17 17 16 16 15 13 11 8 7 7 9 9 6 6 8 7 8 7 15 13 15 10 6 6 10 12 11 9 9 8 6 10 22 19 12 13 20 25 24 26 23 20 18 21 20 13 7 15 17 5 7
22 22 20 19 19 17 17 15 14 12 13 13 14 13 9 7 7 6 6 6 8 8 13 14 13 9 9 11 13 8 6 6 4 7 5 8 21 20 19 19 20 22 22 18 18 20 17 17 11 5 4 2 6 8
23 21 21 20 20 20 18 16 15 16 12 10 8 8 9 8 6 5 5 3 7 6 10 13 5 13 12 7 7 6 4 3 4 4 4 6 18 15 15 20 17 17 22 24 22 20 13 7 4 4 5 7 8 10
25 23 21 21 20 19 15 15 15 13 11 10 9 9 7 7 11 6 8 7 7 15 13 10 8 5 11 10 6 5 2 4 12 4 5 14 18 18 16 19 19 17 13 12 10 11 7 5 4 3 4 5 6 7
22 22 18 19 19 20 21 16 16 15 11 10 9 11 6 6 9 12 11 13 13 13 13 14 6 11 9 6 5 3 6 4 5 5 10 15 19 17 18 18 18 16 11 10 9 9 7 5 5 4 4 2 2 3
19 22 21 21 20 19 17 20 22 18 5 9 7 8 19 23 20 17 11 9 12 12 13 14 4 10 7 5 6 5 5 6 6 10 21 17 19 17 18 18 16 14 13 9 8 8 8 9 8 7 5 4 3 3
16 17 18 21 24 20 14 14 16 23 26 23 21 20 17 14 16 13 11 7 7 8 9 11 11 6 9 5 6 9 5 7 11 27 22 18 16 16 14 14 14 14 12 12 10 9 11 12 12 9 7 6 6 4
16 18 19 19 20 18 13 11 18 20 13 13 19 19 18 14 13 16 14 12 7 4 3 4 7 8 7 9 13 14 13 17 11 14 15 15 13 11 8 8 7 8 9 12 13 11 11 12 12 11 11 10 7 7
10 9 13 16 17 16 17 16 16 16 14 12 12 14 14 15 10 9 13 14 11 7 6 12 11 14 8 13 16 15 14 13 12 10 10 10 9 7 5 3 3 4 5 7 11 8 8 11 11 11 13 11 11 10
9 10 12 14 17 17 16 19 16 14 16 16 14 14 12 14 14 14 15 17 12 7 11 10 10 16 16 14 12 12 10 9 7 6 6 6 4 3 3 3 3 4 4 6 6 6 7 6 7 8 7 7 6 8
10 11 12 14 14 13 10 13 13 13 14 15 15 14 15 15 15 16 16 13 16 19 19 17 15 14 12 11 10 9 9 8 7 6 4 3 2 1 2 3 3 2 1 1 2 6 7 7 8 9 11 11 11 11
13 14 13 12 10 12 10 11 10 10 10 15 13 13 16 13 12 13 13 14 14 18 16 14 13 13 14 13 12 11 9 6 5 4 3 3 2 3 3 2 1 1 2 4 7 10 12 13 15 16 16 17 18 19
22 20 16 14 12 17 16 13 10 8 12 11 11 15 16 16 17 18 20 20 22 18 17 17 16 16 15 14 14 14 13 13 9 6 4 3 5 8 9 6 4 4 6 9 13 16 20 21 22 24 24 24 25 26
26 30 29 26 29 23 24 22 24 19 18 19 21 24 26 30 29 25 25 20 25 20 17 19 17 17 16 16 14 12 12 12 11 10 9 9 7 6 6 7 10 13 17 19 21 22 24 24 24 22 22 22 22 23
22 26 25 23 20 21 23 27 27 26 21 22 31 30 27 27 28 30 25 21 21 20 21 21 21 19 13 10 10 10 10 10 10 12 11 11 12 13 14 16 20 22 22 24 25 26 26 26 25 24 23 22 21 21
16 14 13 17 17 15 17 20 23 20 21 23 24 20 20 21 25 23 20 18 17 17 15 13 11 11 11 11 10 11 11 11 11 11 13 13 15 16 15 19 21 24 24 24 25 26 25 25 25 24 23 21 23 22
11 14 16 16 13 12 11 10 11 11 11 13 13 12 14 13 10 9 13 11 9 8 8 9 11 12 13 14 16 17 19 19 19 18 18 16 15 15 15 16 16 19 30 28 28 28 28 27 25 24 20 20 22 22
13 13 13 12 14 15 14 10 8 8 7 4 3 5 6 4 5 8 6 6 6 7 9 11 12 15 17 18 20 22 24 25 24 22 20 19 17 17 19 21 25 27 29 29 29 30 29 28 26 23 22 22 20 21
11 11 11 10 11 12 13 13 15 13 11 8 3 3 1 2 5 5 4 2 4 6 9 10 11 16 19 19 20 22 23 21 19 16 12 12 17 21 20 23 28 28 30 30 29 30 28 28 29 29 29 29 29 31
19 16 12 10 10 11 13 12 8 9 10 8 5 5 6 9 12 14 16 15 11 12 16 15 16 21 26 23 23 27 25 23 22 21 20 21 23 26 25 24 25 26 26 27 30 29 27 27 29 28 28 29 29 31
18 17 14 12 12 9 10 12 16 15 14 13 15 17 17 17 17 18 16 14 13 15 21 23 22 23 24 25 25 25 27 26 25 24 24 24 25 26 27 27 27 27 26 25 25 27 29 25 26 27 27 26 26 26
19 18 12 10 10 11 14 15 14 17 17 20 19 14 11 12 10 7 17 17 19 19 20 22 25 27 27 27 27 25 26 27 26 26 24 25 25 24 24 23 24 24 24 24 25 26 26 25 25 24 23 22 22 21
16 16 14 10 12 15 15 11 9 13 16 16 13 16 14 12 12 15 20 25 24 25 27 28 29 29 29 29 28 29 27 26 25 24 23 22 22 22 22 22 21 23 24 23 22 21 21 21 22 22 22 21 21 20
11 12 13 12 12 12 12 7 6 6 11 14 13 12 14 11 12 19 26 27 29 29 30 30 29 29 29 28 27 27 26 25 22 20 21 20 19 19 20 22 21 20 19 18 18 19 20 21 21 21 21 21 21 20

GFSWCAN_700_spd_003.txt.gz
Wind_Speed
34 33 31 29 28 25 24 21 20 20 17 15 13 14 15 15 15 15 15 19 20 30 23 21 24 26 19 14 19 10 4 14 19 21 26 30 29 38 37 36 41 41 42 41 36 35 30 17 7 14 18 18 18 27
32 30 29 28 24 24 22 21 18 14 15 12 12 14 14 13 15 14 14 14 16 18 25 23 25 22 18 22 22 16 5 6 10 14 17 21 17 20 38 32 37 44 43 39 34 37 24 18 18 18 25 16 18 26
30 29 28 26 25 21 17 16 15 13 11 11 10 11 11 15 13 13 11 12 14 18 24 11 11 10 14 18 20 19 11 11 19 8 11 18 10 16 22 30 34 34 33 37 21 12 11 19 19 14 12 2 5 5
30 29 26 24 23 18 16 17 13 12 11 11 11 12 10 10 8 9 11 12 11 15 19 5 5 4 10 13 11 15 12 12 24 9 10 18 17 10 23 11 18 27 22 23 21 13 10 18 24 23 15 16 11 23
28 27 24 23 22 19 17 15 12 12 12 14 9 5 7 6 5 7 7 8 10 12 16 15 4 6 7 10 13 13 13 12 13 13 13 17 6 6 10 7 9 15 18 13 21 15 12 15 19 22 25 26 22 17
25 25 24 24 23 19 15 14 12 13 14 7 6 7 3 3 4 5 6 6 4 9 13 7 5 1 3 10 12 13 10 9 11 13 9 5 7 5 9 6 3 13 9 14 19 23 23 29 33 36 31 23 15 13
24 23 24 24 22 19 16 14 12 11 10 8 6 6 5 4 6 5 3 5 2 2 5 2 3 6 7 11 11 11 8 5 7 17 2 5 6 3 4 3 4 12 14 20 23 23 29 33 28 27 24 19 10 3
23 23 22 22 23 21 18 15 13 10 8 8 9 8 8 7 5 8 5 8 8 6 4 4 2 7 10 11 11 11 4 3 13 5 4 6 9 4 3 3 9 16 20 24 24 29 32 35 30 30 22 8 2 5
23 23 24 24 24 23 21 18 14 11 9 8 9 10 7 5 8 7 6 6 2 5 2 3 4 12 11 14 13 10 9 8 7 7 6 7 3 5 12 13 14 19 20 23 23 27 31 34 33 26 29 24 10 2
24 24 24 24 24 22 20 20 19 16 14 14 8 11 11 7 7 7 8 7 10 12 9 12 7 7 5 13 8 10 10 7 5 6 11 17 17 12 14 11 10 16 18 21 24 20 12 12 27 22 28 32 10 8
23 24 25 25 22 18 17 20 19 15 12 13 13 10 8 10 10 7 7 7 6 5 8 5 3 2 0 10 8 8 8 4 5 7 5 8 19 13 14 18 18 16 14 14 13 15 15 14 5 9 11 4 8 2
20 21 24 22 23 24 20 17 16 15 13 12 10 8 9 10 7 6 8 5 8 7 9 7 7 10 2 8 4 6 6 3 4 4 7 6 15 18 19 17 20 22 18 17 20 26 23 17 7 6 4 3 9 5
18 20 23 25 25 21 22 22 17 15 14 11 11 11 6 9 10 12 13 12 14 19 17 14 8 4 2 5 5 5 5 6 6 8 7 14 19 20 18 19 24 25 26 26 23 19 19 12 7 5 5 7 3 3
18 22 23 22 20 22 24 22 20 14 10 14 13 14 11 9 13 16 18 16 18 21 18 12 5 12 16 9 9 5 7 7 5 6 15 16 18 24 23 19 15 15 12 11 12 12 11 9 7 7 6 6 6 8
15 18 20 21 19 17 17 19 20 17 13 9 9 8 17 18 22 24 18 14 15 14 15 9 11 12 9 7 8 8 5 6 5 8 16 19 19 22 23 19 13 11 10 10 10 10 9 8 6 8 8 7 8 7
14 15 18 21 21 19 15 15 12 19 21 17 17 19 18 19 18 19 16 13 12 14 12 12 9 6 10 7 9 11 5 7 18 16 15 18 18 20 19 19 14 12 11 13 13 11 9 10 10 8 8 8 3 4
12 14 15 19 22 19 14 8 14 14 10 12 16 14 12 14 16 16 17 15 16 14 14 12 10 9 9 12 9 19 19 17 22 21 15 17 17 15 13 11 13 12 10 9 9 9 15 11 8 4 7 7 6 7
14 16 17 18 17 13 18 16 14 11 13 12 13 15 14 13 13 16 16 15 12 14 16 16 12 17 10 20 19 16 13 15 15 14 12 11 10 9 8 8 9 8 11 10 8 6 7 10 8 10 10 10 5 6
14 14 14 14 12 10 14 17 14 10 12 13 14 14 13 14 16 17 19 18 14 12 9 9 11 20 17 17 15 15 14 14 11 10 10 9 7 7 6 6 4 5 5 6 8 7 6 3 4 2 1 2 5 7
14 13 12 11 12 10 9 10 14 8 9 14 13 13 13 15 15 17 17 18 17 18 20 20 15 12 11 11 11 11 10 9 9 9 9 10 8 6 5 6 8 8 6 7 2 4 2 2 4 6 8 7 7 6
21 17 17 16 16 13 11 9 7 9 9 12 13 13 13 9 12 15 17 11 16 18 19 18 16 16 16 16 14 13 9 8 7 7 8 6 6 5 5 6 5 6 5 4 4 5 6 12 14 15 17 14 18 16
25 25 24 26 27 26 18 15 14 15 16 10 10 11 20 21 23 25 24 26 26 24 23 19 17 16 17 18 17 17 19 16 13 12 9 9 6 5 5 5 5 1 3 8 11 14 14 20 19 17 17 19 16 11
20 22 27 26 24 19 24 25 25 23 25 24 22 27 25 27 26 28 32 23 26 23 24 26 26 24 20 17 12 11 13 17 16 15 12 9 8 7 7 6 5 6 5 8 10 11 12 17 17 19 15 15 13 10
16 19 20 16 15 19 22 20 20 17 19 21 19 20 18 17 19 23 23 23 24 23 19 17 13 11 14 15 17 14 14 13 12 12 10 7 8 13 14 9 7 9 12 10 10 13 14 16 18 13 14 16 12 13
14 13 11 14 11 11 10 11 10 8 6 9 10 8 10 10 13 15 14 16 14 10 11 14 15 16 15 15 15 15 14 14 12 7 13 9 6 3 6 7 12 15 25 27 25 24 23 22 19 15 16 15 18 18
7 11 10 13 13 10 9 8 6 6 6 7 6 7 7 7 7 6 10 10 11 12 12 12 12 13 15 19 18 19 21 25 19 15 17 16 16 14 15 16 17 20 28 30 31 29 28 27 23 19 15 15 19 22
7 8 9 10 11 11 8 9 11 9 8 7 8 8 6 3 2 4 4 5 7 12 11 11 12 15 16 19 23 24 20 18 17 13 14 16 16 19 19 19 24 28 27 31 30 30 31 29 27 26 26 24 22 20
14 14 11 9 10 10 12 9 9 8 9 9 10 6 4 5 8 13 18 18 18 19 19 18 19 17 17 19 18 17 18 20 18 17 7 4 11 19 31 26 26 24 24 28 25 26 26 26 25 25 26 27 26 24
15 12 10 11 9 8 9 11 11 10 12 10 11 14 20 21 22 23 22 18 18 19 21 19 20 16 15 16 15 16 15 23 23 20 14 10 13 19 25 25 24 24 23 22 27 25 22 22 23 23 23 21 19 18
13 12 11 9 11 11 11 6 8 16 17 15 14 11 13 14 12 14 19 20 19 17 15 13 14 17 21 22 20 18 14 24 25 22 20 19 21 23 23 23 22 22 22 21 21 21 25 19 17 15 17 18 19 20
12 12 10 10 12 10 4 11 12 14 18 16 16 16 15 14 12 16 24 23 14 14 20 22 19 23 26 25 25 23 19 25 24 22 20 20 21 21 21 20 20 20 20 19 17 17 17 16 17 19 20 20 21 21
9 11 11 10 8 11 10 14 11 12 15 15 15 16 14 8 10 17 25 27 25 24 26 26 25 25 24 23 23 25 23 23 22 21 20 18 16 16 18 19 18 17 16 15 15 15 17 18 18 20 20 20 20 20
7 9 9 7 7 8 10 14 10 9 10 7 10 10 7 9 14 21 23 30 30 29 26 24 24 25 26 24 22 21 22 22 19 17 17 17 18 18 17 16 15 15 14 14 14 15 16 17 17 18 18 18 19 19

GFSWCAN_700_spd_006.txt.gz
Wind_Speed
30 30 31 29 27 26 24 22 21 19 16 14 13 12 13 13 14 16 14 15 19 24 25 23 23 25 25 22 26 18 14 17 14 20 20 17 16 15 17 23 23 22 20 22 25 21 19 11 9 19 16 20 18 19
31 31 29 28 27 25 21 20 21 18 15 13 13 13 13 13 11 14 13 15 16 24 24 21 24 25 22 22 23 21 17 14 7 12 17 11 22 13 18 24 31 26 29 28 25 30 27 9 17 13 19 7 9 19
31 29 27 26 25 23 21 20 18 16 16 15 13 13 12 14 13 13 13 13 15 21 22 10 8 11 14 10 8 20 12 12 13 8 7 12 15 12 14 21 23 28 27 38 32 32 21 18 12 10 11 14 10 10
30 29 28 28 27 24 19 17 17 15 16 17 16 13 11 10 10 9 9 10 13 16 25 12 15 6 7 11 15 12 17 17 4 10 9 8 14 18 13 16 17 24 26 24 40 32 24 21 18 13 18 21 14 17
29 29 29 27 27 25 21 17 16 16 16 13 10 11 11 8 7 9 10 10 11 13 24 21 12 3 8 13 12 14 17 16 6 11 12 13 13 13 18 18 13 21 17 18 20 28 28 24 17 19 20 15 16 19
26 26 25 26 25 22 20 19 17 16 14 12 10 10 9 9 7 11 9 5 7 9 18 12 5 8 3 10 11 14 14 13 13 9 13 21 12 16 8 5 3 11 2 17 26 24 33 31 23 21 23 20 19 24
24 24 25 26 25 24 22 20 18 16 13 12 12 10 8 7 10 7 6 8 8 3 11 10 4 4 8 12 11 11 12 10 9 16 13 17 5 6 8 8 9 9 6 23 24 14 30 37 27 23 22 24 22 16
23 24 25 26 25 25 24 23 20 17 15 13 12 11 10 9 7 5 9 8 10 12 8 6 7 10 15 10 11 10 8 13 15 14 14 8 7 5 5 10 9 22 20 21 21 17 16 18 22 24 25 22 17 19
23 25 25 24 23 24 25 23 22 21 22 16 12 11 11 12 13 11 13 9 6 5 5 4 10 13 11 13 14 12 14 8 11 10 4 4 4 2 3 10 17 16 20 20 20 14 26 27 29 30 26 19 12 8
22 25 25 26 27 23 20 20 20 19 18 16 13 12 13 15 15 14 10 11 5 3 5 6 13 16 7 10 13 8 8 6 4 3 2 8 8 6 9 6 11 14 16 16 8 8 18 18 21 18 16 16 18 15
24 25 27 26 26 26 22 20 20 16 14 13 13 14 13 15 12 10 8 9 6 6 2 2 5 8 4 8 4 7 5 2 0 5 5 4 6 9 13 11 6 8 10 12 9 9 6 4 8 12 19 27 27 25
20 22 23 24 25 27 29 22 17 19 16 13 11 8 11 11 8 6 9 8 6 7 14 5 7 6 5 4 7 6 3 2 4 8 5 3 8 10 16 20 17 13 8 4 4 5 19 20 12 15 14 13 13 7
15 19 21 22 22 24 27 30 20 11 13 18 18 14 8 10 9 7 15 13 23 27 17 11 13 17 4 4 7 2 3 7 9 7 5 16 23 24 30 31 27 23 30 28 22 24 22 14 17 12 13 11 11 8
13 16 21 23 23 25 24 23 23 18 13 15 13 16 17 14 24 28 30 28 24 19 13 11 18 21 13 5 7 6 8 9 6 7 7 15 13 16 18 21 20 17 22 25 23 19 17 12 14 15 13 6 6 7
14 18 20 23 27 24 18 15 13 18 26 18 12 14 23 28 29 27 27 27 29 19 9 10 11 15 11 7 10 8 6 6 6 9 18 20 17 17 19 17 13 16 17 18 13 11 13 11 12 14 8 7 9 7
17 17 19 23 25 23 14 9 5 20 24 18 18 20 18 21 21 23 24 27 34 26 19 12 10 9 17 9 11 13 6 8 13 20 15 18 18 21 18 18 18 15 18 13 9 18 13 10 10 11 7 10 14 6
17 19 19 17 17 18 15 5 20 17 12 13 17 15 17 19 25 24 20 21 25 30 26 22 16 13 6 21 17 19 20 23 13 13 19 14 11 17 14 18 11 18 12 16 15 8 19 10 18 15 15 8 8 13
17 16 14 12 12 12 18 15 12 10 13 14 15 18 19 18 18 20 26 19 22 19 18 21 20 30 17 30 26 18 20 18 19 19 17 17 18 14 16 16 11 15 9 6 15 17 16 11 12 10 15 12 7 9
15 12 9 8 8 8 12 13 16 9 12 12 13 15 17 19 21 18 19 23 21 18 16 17 17 25 22 22 21 21 20 21 19 19 18 15 15 16 15 12 11 11 8 9 15 11 5 0 1 2 4 8 12 7
18 16 12 10 9 8 7 12 13 8 11 14 16 16 16 14 14 17 16 14 16 26 29 29 26 24 24 22 19 18 17 17 15 16 18 20 16 13 14 12 9 8 3 4 2 2 3 3 6 4 6 6 13 10
23 21 19 14 18 14 12 9 9 6 11 16 10 11 15 17 22 24 26 25 29 33 32 27 24 24 22 24 24 23 19 14 10 9 9 10 7 5 6 8 5 5 4 3 7 9 8 13 15 13 10 10 13 5
19 20 21 25 23 22 19 17 15 19 20 13 15 19 24 21 25 25 27 30 33 30 27 27 28 23 20 20 20 19 23 25 24 18 15 14 11 11 11 10 6 5 8 7 9 8 9 13 14 11 9 12 8 7
14 19 22 23 20 15 16 18 16 16 12 15 15 17 20 20 23 24 27 27 29 27 22 22 24 23 19 19 14 12 16 19 13 9 10 8 7 8 9 7 8 7 4 6 6 8 9 13 15 13 10 12 10 7
12 17 18 14 13 14 14 14 15 11 10 9 11 10 10 15 15 19 22 20 18 13 14 15 15 14 15 16 17 15 12 10 9 13 8 4 6 11 3 7 8 10 12 15 17 20 20 17 17 11 10 11 10 8
9 8 8 14 12 8 8 6 7 6 9 8 9 9 6 3 8 13 11 12 10 10 10 11 9 12 16 17 18 19 16 14 13 12 14 10 4 3 5 8 14 17 20 25 28 30 29 27 25 21 16 10 19 21
5 9 8 8 5 4 3 7 8 9 9 8 8 7 16 7 4 3 11 13 12 13 16 18 20 20 19 19 18 19 18 16 13 9 12 12 16 15 13 13 16 22 24 27 28 26 26 25 25 22 21 21 22 23
8 8 6 5 7 8 9 14 10 11 13 11 12 12 8 9 6 9 14 17 17 20 24 24 21 16 15 16 16 15 14 17 17 13 8 14 16 25 25 25 29 27 24 25 24 24 25 25 23 22 21 21 19 20
20 10 26 23 13 10 17 13 11 11 12 12 18 11 8 12 14 13 13 13 13 14 16 21 18 15 14 15 14 15 13 19 20 11 3 6 11 15 26 27 25 24 21 23 20 21 20 20 18 17 17 15 15 17
14 22 12 14 10 10 12 8 10 13 15 9 8 8 8 8 10 16 18 19 22 21 15 14 15 15 15 14 13 12 14 23 24 21 14 13 18 20 23 21 20 19 18 17 20 20 18 17 14 14 13 14 16 19
14 16 21 17 14 10 11 6 7 14 17 14 12 12 10 11 15 19 22 20 14 14 14 15 14 15 17 15 14 13 17 28 25 20 18 17 18 19 20 19 18 18 18 14 13 11 18 12 12 12 15 16 17 18
9 11 11 8 7 8 8 10 14 14 15 14 15 16 15 13 14 15 20 22 17 13 17 15 13 15 19 17 16 19 14 20 24 20 18 17 16 16 17 18 17 16 13 11 12 11 14 13 13 15 16 18 19 19
8 10 9 8 6 13 15 12 10 9 10 15 21 20 17 15 14 21 24 27 22 20 19 16 14 14 23 21 20 18 19 22 20 18 16 15 16 16 16 15 14 14 13 11 11 13 14 14 15 16 16 16 16 17
5 8 8 8 5 9 7 11 17 14 8 7 9 12 7 13 13 19 25 27 27 27 22 21 15 16 21 23 20 19 21 20 17 14 15 15 15 14 14 13 13 14 14 14 13 13 13 13 13 13 14 14 16 17

GFSWCAN_700_spd_009.txt.gz
Wind_Speed
33 33 32 32 31 30 27 25 23 22 20 19 16 14 13 13 15 16 13 16 19 23 21 21 18 19 22 23 21 22 20 13 14 11 14 9 7 12 14 30 16 10 9 17 10 8 6 13 17 23 17 11 17 20
32 33 33 33 32 30 27 22 22 20 20 19 17 15 14 14 14 16 15 16 18 21 23 18 19 21 19 19 18 23 20 22 11 8 11 11 10 8 19 13 22 11 20 24 10 5 12 3 12 19 28 23 13 12
30 32 33 32 31 29 27 24 21 20 19 20 20 16 14 14 14 14 13 13 17 22 22 11 13 9 12 12 10 16 15 12 18 9 7 15 8 11 11 19 18 22 15 28 19 10 4 10 24 16 18 31 21 22
30 30 31 31 30 28 26 24 22 21 20 19 17 16 16 14 12 11 11 12 15 17 27 6 19 14 16 11 8 7 5 11 19 15 12 8 5 6 16 13 7 14 15 14 22 14 13 18 22 16 11 11 14 28
29 29 30 29 28 28 27 26 24 22 20 19 18 17 15 14 14 12 13 12 12 14 25 21 6 5 6 3 3 11 9 10 17 10 9 15 13 10 9 17 16 14 15 16 19 14 12 13 16 21 22 22 20 20
27 26 28 28 29 30 30 28 25 23 21 19 19 18 16 15 15 15 9 10 13 14 21 19 10 4 10 8 4 9 13 12 12 10 13 14 11 11 5 14 17 18 18 21 19 16 20 19 21 16 22 22 24 23
26 28 29 30 31 29 27 26 26 26 24 19 17 16 14 13 14 12 10 15 15 16 18 18 9 10 4 6 5 13 12 9 6 14 17 15 16 5 10 13 9 16 13 24 25 19 25 26 25 21 22 21 20 20
27 30 29 29 28 28 29 27 25 24 21 20 18 16 14 15 15 15 16 16 15 14 13 8 10 13 4 9 9 6 7 10 20 18 19 19 5 7 8 11 12 16 15 21 23 23 27 20 28 21 12 7 7 6
27 27 26 27 30 30 29 30 28 24 22 21 18 17 15 18 20 18 21 19 12 8 7 7 12 10 5 15 14 14 16 17 15 14 12 7 8 2 5 10 2 15 20 18 13 11 9 11 10 14 14 11 10 10
23 23 24 26 29 31 33 28 25 26 23 23 23 25 21 22 18 16 14 15 10 7 9 10 12 17 12 19 12 8 10 7 5 3 5 4 4 4 5 13 13 11 16 20 14 14 21 21 21 15 9 7 11 6
20 22 25 28 30 30 30 30 23 21 23 23 18 19 20 18 15 12 8 6 6 5 8 10 12 11 7 12 12 6 4 4 2 4 4 5 8 11 6 16 20 17 15 15 15 17 18 15 12 10 9 10 10 10
19 20 24 29 31 30 25 26 20 18 21 23 24 18 14 14 10 12 12 8 7 7 9 13 15 19 1 4 5 2 3 1 6 6 4 5 14 13 15 16 18 13 10 19 22 21 17 15 13 8 6 10 7 12
17 20 26 28 31 26 22 19 25 23 18 12 28 22 14 15 17 16 13 21 21 12 10 12 19 10 3 3 5 2 3 8 8 7 6 20 29 26 29 29 28 27 25 21 20 25 24 18 12 12 12 11 11 8
20 22 23 26 27 23 19 18 21 20 20 24 15 21 19 17 26 39 38 40 26 23 20 26 16 16 16 8 10 7 10 9 7 7 19 19 27 22 16 23 29 24 24 21 23 18 26 21 15 9 8 11 6 5
21 20 21 23 22 22 17 17 14 21 28 18 12 14 27 25 30 32 37 37 35 23 16 14 22 23 14 10 9 7 7 9 10 12 14 19 16 16 25 23 22 22 21 18 21 18 20 19 12 14 12 13 11 11
19 17 15 16 18 19 10 13 23 24 21 22 18 23 21 24 27 33 37 36 37 17 16 18 13 13 21 12 13 13 7 11 15 14 13 15 22 17 18 18 17 16 16 18 18 20 19 14 15 15 14 14 9 8
18 15 12 12 14 16 10 15 24 19 15 18 19 18 22 24 24 29 29 25 25 28 36 26 21 17 10 18 17 21 15 21 15 15 16 16 14 22 21 18 22 17 13 12 18 21 13 16 14 11 8 9 7 12
19 15 11 11 11 11 10 15 13 13 15 26 27 25 20 23 23 25 24 24 19 24 35 41 33 36 19 30 27 25 23 22 21 21 24 23 17 15 19 23 25 19 9 26 26 19 11 11 10 15 15 8 3 8
21 17 12 10 8 7 16 15 19 12 13 12 15 18 16 16 21 18 19 24 29 32 38 35 27 35 30 27 25 25 26 26 29 27 23 20 20 14 22 17 14 15 15 14 10 3 1 2 6 4 3 4 3 1
23 20 15 12 10 13 11 13 13 10 18 20 19 19 23 26 27 27 28 28 30 36 43 41 35 30 28 27 25 21 19 19 16 16 16 13 15 16 14 11 10 6 3 2 3 5 4 2 3 6 9 9 6 10
15 20 19 18 20 21 19 20 16 14 20 19 18 19 23 22 26 27 28 29 34 38 35 29 24 20 20 20 22 23 24 23 19 16 14 11 6 2 6 10 3 5 2 4 10 11 12 12 10 8 8 7 7 7
14 16 16 19 24 24 20 20 20 18 19 16 16 16 19 21 24 28 28 30 31 28 27 26 23 19 15 16 15 15 17 19 14 10 8 9 6 7 8 7 6 7 7 6 8 12 15 16 15 8 5 9 2 8
8 9 12 16 17 11 15 20 20 17 13 13 13 13 14 17 18 19 25 20 20 16 13 13 13 15 17 11 5 4 6 6 2 4 5 2 3 5 7 7 7 11 15 15 14 12 15 20 19 16 11 10 6 9
6 10 11 11 10 11 15 12 15 12 10 11 10 7 7 7 8 16 16 13 10 9 14 13 13 15 17 19 17 12 8 4 5 9 10 7 9 10 12 11 12 17 20 22 22 24 29 29 27 22 22 21 16 16
8 8 5 11 7 9 6 9 8 8 10 9 11 11 17 13 2 8 12 10 11 12 17 20 19 14 17 14 14 16 19 14 3 7 9 6 9 13 19 23 19 21 25 27 26 27 30 27 23 17 17 22 22 19
7 9 7 6 6 5 11 8 11 14 16 7 15 21 13 9 5 8 15 16 17 16 17 15 18 18 15 13 14 16 18 21 16 7 12 17 19 19 21 25 25 20 27 26 21 22 23 21 18 16 16 15 18 19
12 17 5 9 14 15 14 16 9 9 10 12 16 16 9 7 7 14 16 15 12 12 15 16 15 12 12 15 15 15 21 23 19 7 12 16 18 22 23 26 32 27 24 21 19 19 18 18 16 13 11 12 16 18
19 22 16 16 11 12 10 7 9 9 13 7 11 11 7 5 10 15 18 18 20 17 14 15 12 14 19 21 17 19 25 22 13 8 11 14 20 25 25 24 25 23 22 20 18 18 17 15 11 11 12 14 15 16
12 13 14 12 9 5 6 7 11 16 16 13 12 10 8 7 9 18 24 21 18 16 14 17 19 21 23 17 14 22 27 24 17 12 10 17 23 25 23 18 16 16 16 14 15 17 17 15 13 12 12 14 15 14
10 7 9 8 13 6 18 16 20 18 17 18 20 16 11 14 15 19 27 27 24 18 19 15 14 22 23 20 17 19 24 24 20 16 17 15 15 15 16 16 17 15 12 6 6 11 14 14 13 13 13 13 13 14
5 7 8 8 7 4 15 22 22 24 18 17 22 25 20 17 17 21 29 31 30 31 26 19 13 19 24 23 23 19 19 25 22 20 17 16 16 16 16 15 14 13 12 9 11 14 14 13 12 11 11 12 14 15
5 9 9 8 6 11 16 16 18 16 15 16 15 18 19 22 21 26 28 29 34 37 30 23 20 20 25 25 23 22 23 21 20 18 16 16 15 15 15 14 12 12 12 13 12 12 11 11 11 12 12 12 12 13
5 7 9 8 9 11 11 9 15 15 12 12 11 14 17 23 19 19 22 32 38 37 24 24 24 22 23 22 19 21 21 20 19 16 15 15 14 15 14 13 12 12 12 12 12 13 13 13 13 12 12 12 12 13

GFSWCAN_700_spd_012.txt.gz
Wind_Speed
33 31 32 34 34 32 31 31 29 28 26 24 23 22 19 17 17 15 13 14 17 26 27 11 11 16 15 14 20 16 19 9 10 10 18 15 13 11 13 11 18 22 11 16 23 13 6 2 18 27 21 16 21 19
30 32 32 31 32 32 31 30 29 28 27 25 22 19 17 16 16 17 14 15 17 22 23 24 20 15 17 13 17 18 20 22 10 10 12 5 13 11 14 7 15 21 20 20 16 8 10 6 9 21 21 26 24 17
27 30 32 33 34 33 32 31 29 28 27 25 23 20 18 16 14 13 12 14 18 24 23 9 14 11 16 14 10 20 14 13 14 18 19 14 12 14 17 17 12 30 27 16 20 22 18 3 6 14 21 21 22 22
28 30 31 32 32 32 32 31 31 30 28 25 24 22 20 18 16 15 13 16 19 21 28 11 11 16 15 17 16 15 4 7 6 5 16 23 11 14 8 9 15 23 26 14 23 33 15 10 10 13 10 15 17 21
30 32 30 30 31 31 33 33 32 31 29 26 23 22 21 18 17 15 13 11 12 14 25 21 3 3 6 10 11 11 9 11 16 20 16 22 17 14 11 8 15 12 24 10 16 38 13 7 14 14 16 14 17 20
29 29 29 29 30 31 32 33 34 31 28 27 25 23 20 18 17 18 14 14 20 20 25 23 9 2 11 12 10 14 11 13 12 15 15 17 10 11 8 1 6 6 15 10 13 33 6 12 23 17 17 15 14 18
25 26 27 30 31 34 34 35 34 32 30 26 24 23 20 18 18 17 15 20 25 24 26 18 8 6 2 6 5 7 7 6 11 12 20 22 18 17 10 5 5 1 9 14 22 20 16 14 13 18 16 24 16 16
24 24 27 30 31 33 34 34 33 30 30 25 25 25 23 21 22 21 18 15 16 15 14 7 9 7 3 3 6 8 10 8 15 18 19 20 20 3 3 7 7 8 20 20 25 26 20 17 18 21 21 14 14 22
23 24 25 28 32 33 34 31 27 26 30 33 27 24 23 20 22 22 19 14 17 9 7 8 12 10 9 13 12 15 17 18 17 17 17 7 4 0 7 6 6 23 18 32 31 23 20 19 20 19 23 17 8 8
22 23 25 28 31 32 29 28 27 25 28 31 24 24 18 21 20 21 14 11 11 8 9 13 14 14 12 6 11 10 5 7 5 2 1 3 4 10 1 8 1 27 20 19 20 24 22 19 17 14 13 14 8 4
21 22 26 28 30 31 26 25 28 28 23 27 25 20 27 19 16 15 9 7 8 8 10 18 17 13 5 5 7 4 1 3 1 4 4 7 17 17 7 13 10 22 23 22 13 21 21 19 14 11 8 5 4 2
23 24 24 26 28 29 23 20 26 24 22 24 28 24 24 19 14 9 13 18 9 9 17 15 15 12 8 4 4 4 3 4 5 8 5 7 18 23 15 21 22 24 22 29 20 24 21 20 18 13 9 3 1 1
23 23 23 25 26 25 18 18 22 22 20 21 29 26 16 18 22 13 23 26 34 34 29 22 14 12 3 4 4 10 9 12 10 9 7 18 18 22 23 20 21 18 31 26 24 24 21 18 18 16 18 14 9 8
21 20 20 20 21 21 15 17 16 17 19 20 18 19 21 17 30 37 35 34 27 21 27 22 25 15 15 12 12 8 12 9 7 11 16 19 21 35 29 33 28 24 27 25 24 23 19 18 18 16 16 16 12 11
19 16 15 16 17 16 12 16 19 25 29 22 13 14 29 26 29 31 30 27 19 17 17 15 24 20 15 10 11 9 8 9 16 24 28 25 19 17 21 28 30 31 27 28 30 27 20 20 16 16 14 13 13 13
19 13 13 14 17 16 9 9 26 29 30 27 25 28 30 29 34 31 29 37 28 24 26 29 27 26 29 13 18 16 10 16 25 18 20 18 23 27 25 23 19 20 22 24 23 19 19 20 19 15 15 13 10 8
21 16 14 14 15 14 11 12 27 27 18 20 27 24 22 22 27 27 21 24 30 40 46 39 28 19 12 20 21 29 26 25 23 23 20 19 21 16 17 13 13 12 23 16 18 17 15 11 9 9 9 8 4 9
23 18 15 14 12 10 12 21 25 23 28 25 27 24 26 27 25 28 28 18 26 38 45 44 38 33 30 37 38 29 28 25 25 26 19 24 31 26 21 18 16 23 19 18 13 12 11 12 11 10 8 9 8 4
25 19 16 16 10 7 18 20 22 21 23 24 20 24 27 25 25 24 26 28 33 36 43 36 25 37 29 25 25 25 26 26 27 26 24 24 26 22 18 15 14 9 7 8 5 4 5 6 7 7 7 6 6 8
22 22 19 18 16 17 20 19 22 15 21 18 16 19 24 26 25 26 28 29 30 35 41 40 34 28 26 23 21 21 17 13 18 14 14 15 14 7 8 7 3 1 4 8 9 8 9 10 10 11 13 13 12 13
17 16 17 14 19 25 24 19 17 16 14 15 11 13 19 19 22 26 28 29 34 36 35 26 19 18 15 15 14 13 14 14 12 9 11 11 12 9 4 4 3 9 10 13 13 12 12 10 12 13 14 16 13 13
12 11 10 13 19 21 19 18 16 14 13 12 10 10 11 15 18 19 18 26 29 25 22 20 19 10 7 9 8 5 7 5 3 6 4 2 2 1 4 7 8 12 15 17 19 18 16 13 17 20 21 21 19 18
9 10 7 8 13 10 11 14 15 13 11 5 6 6 6 10 14 14 18 16 15 14 15 14 14 12 7 3 3 9 13 12 10 10 10 9 9 8 8 10 13 13 16 18 20 20 19 21 26 24 19 20 24 25
9 7 7 8 9 9 11 14 16 15 12 6 12 9 9 6 8 16 15 14 14 12 15 16 6 6 8 13 11 13 10 11 15 15 15 14 12 12 14 17 18 18 18 21 24 25 23 22 25 27 21 18 23 26
6 7 4 9 10 11 8 8 12 15 17 9 19 13 11 8 7 10 13 11 12 13 10 7 8 10 12 14 19 23 25 27 22 17 18 21 21 20 18 21 23 24 23 22 25 26 24 20 18 20 24 21 20 24
5 5 4 7 15 11 12 12 14 14 12 13 16 12 7 6 9 11 14 12 9 10 10 10 14 12 15 19 23 27 31 30 28 26 20 17 20 22 22 20 20 23 27 24 21 20 18 17 15 16 17 18 18 17
14 13 9 9 9 11 13 11 11 10 7 8 11 7 6 3 7 12 14 9 8 10 11 11 10 15 20 25 29 30 28 26 28 28 26 23 23 25 26 26 28 29 25 22 19 18 18 17 15 13 14 13 13 15
15 12 18 19 13 12 13 12 15 15 12 9 10 8 5 3 6 16 23 21 18 11 10 18 21 26 28 29 29 26 23 20 18 19 24 27 28 28 28 30 28 22 19 19 19 17 14 12 11 12 13 12 11 13
10 10 12 15 17 18 19 19 16 13 16 17 13 11 10 12 11 22 26 26 24 23 19 19 22 23 27 27 24 22 20 16 14 15 15 17 17 16 14 14 15 15 15 15 16 17 15 13 14 13 12 12 11 12
10 7 4 10 16 17 16 19 17 17 12 14 18 18 17 19 21 24 27 31 31 32 32 30 24 25 26 25 24 23 20 18 17 16 15 14 13 13 13 13 12 10 10 12 13 14 13 14 13 12 11 10 9 9
11 9 9 14 16 19 17 17 17 17 19 20 19 21 21 21 26 24 27 34 36 36 34 29 27 28 27 25 25 24 23 21 19 17 16 15 14 13 12 11 10 8 9 10 11 11 10 11 11 10 9 8 8 8
5 9 10 9 14 15 16 17 17 18 17 17 19 20 21 21 23 28 31 33 36 38 32 28 30 29 27 25 23 21 19 18 17 15 15 15 13 12 11 11 9 9 10 11 11 11 10 10 9 9 8 8 8 9
3 3 7 10 11 10 12 16 16 15 14 15 16 17 19 22 23 28 33 33 37 41 34 29 30 30 28 22 22 21 20 18 16 15 15 14 14 15 13 11 9 9 9 10 11 11 11 11 10 10 9 9 10 11

GFSWCAN_700_spd_015.txt.gz
Wind_Speed
29 30 31 31 31 32 33 34 34 33 31 28 26 25 22 21 18 17 14 19 20 25 24 14 14 22 17 16 18 13 17 5 4 7 5 9 14 17 19 27 21 27 29 23 28 17 13 10 9 6 10 19 31 34
29 31 32 30 30 30 31 32 32 31 31 30 27 25 23 21 19 18 13 17 20 24 25 25 25 16 15 12 20 20 18 14 12 7 7 8 13 12 17 16 18 25 35 35 30 27 20 10 2 8 20 22 21 22
28 29 30 31 31 31 32 32 35 36 34 30 29 27 24 21 19 20 15 16 21 25 22 8 10 14 18 15 15 17 10 8 9 10 14 13 13 11 16 27 27 23 29 39 33 36 35 14 6 11 19 20 21 22
26 26 27 30 31 33 34 35 37 37 35 32 29 26 26 23 18 17 16 15 17 20 21 14 10 15 18 20 19 15 12 16 10 15 18 25 25 15 15 20 26 24 25 35 37 30 42 27 11 6 15 19 21 25
24 25 27 30 32 35 37 36 36 36 35 33 28 27 24 21 18 15 13 10 13 17 27 16 5 2 5 7 9 11 13 12 11 18 21 25 26 25 15 18 30 24 28 44 42 28 36 30 16 13 15 18 17 16
23 25 26 29 31 34 37 35 33 32 30 34 33 28 29 23 21 21 18 12 17 18 21 19 4 2 6 9 9 7 7 11 15 22 25 24 21 17 13 22 12 20 15 33 37 34 26 45 28 4 10 14 16 17
23 24 25 28 32 34 35 31 31 30 34 34 35 31 31 30 24 19 15 17 19 18 18 15 1 4 1 7 8 7 7 8 12 16 21 22 23 26 25 31 14 18 11 37 18 31 29 26 21 22 17 10 9 10
24 24 25 26 29 32 35 28 29 33 32 30 33 28 27 25 27 28 20 14 16 20 14 7 6 5 5 5 7 8 9 13 17 21 22 21 23 27 16 12 14 16 18 24 30 33 33 39 18 10 17 13 10 2
25 25 25 25 28 31 31 28 28 28 27 28 33 26 24 26 27 23 17 15 12 12 8 8 13 8 8 12 12 13 18 19 20 24 24 16 17 8 10 9 11 10 10 25 31 27 26 36 17 9 11 6 7 9
26 25 26 25 27 29 26 25 25 25 25 26 21 30 27 27 19 18 15 14 9 8 11 13 14 15 5 2 6 15 15 7 6 7 5 6 9 12 6 2 8 16 25 18 31 27 22 18 14 9 5 7 9 11
25 25 24 24 26 27 25 22 24 25 22 23 25 22 27 22 12 14 18 12 10 9 15 23 21 19 8 4 6 4 4 3 2 5 5 8 30 17 10 19 15 24 34 28 25 25 27 19 19 14 11 7 9 9
24 23 21 21 23 25 22 19 23 23 21 24 28 16 24 18 16 12 20 17 12 15 32 31 24 16 11 9 5 4 4 7 6 7 4 17 29 20 17 28 25 18 23 20 16 20 22 22 20 17 13 8 9 6
24 21 19 19 20 22 17 19 22 21 16 17 27 26 13 17 21 14 22 31 31 29 26 20 18 18 17 15 11 12 8 8 8 11 8 28 19 26 20 27 28 30 30 22 27 30 32 29 26 20 18 19 19 20
23 19 17 18 20 18 15 15 18 22 20 18 24 28 22 17 30 31 29 28 19 15 24 25 21 16 15 13 12 7 14 11 11 14 28 30 40 35 28 32 28 31 36 32 29 28 28 26 24 22 20 20 16 16
23 18 17 18 18 9 11 17 17 27 32 24 16 19 31 28 22 27 27 18 16 27 26 29 32 28 21 16 13 11 9 9 15 26 31 27 32 32 34 36 42 36 32 31 28 24 25 28 20 20 14 17 16 13
22 17 15 15 16 13 10 16 22 32 34 27 24 23 29 33 24 34 27 26 17 23 20 19 17 23 30 18 20 18 11 13 27 25 27 32 27 31 27 28 31 31 29 28 28 23 18 12 15 14 11 12 10 8
22 19 18 14 14 14 15 22 28 29 29 26 26 23 24 30 32 25 27 24 29 31 37 31 28 20 10 23 30 33 29 24 25 26 28 25 28 22 17 20 27 30 23 19 22 20 17 16 8 8 8 10 7 9
22 20 20 16 14 11 14 23 28 24 27 25 26 24 23 24 25 27 27 19 26 35 42 43 37 34 23 28 35 30 26 25 31 25 26 22 24 26 19 16 25 19 18 18 18 15 12 13 11 11 10 9 7 7
20 19 19 17 15 11 19 21 24 20 18 19 18 18 21 23 23 21 20 22 25 28 32 31 22 33 27 28 22 19 19 18 17 16 17 16 14 12 14 16 14 12 13 14 15 15 16 15 13 11 12 11 10 10
17 17 17 15 11 12 17 16 17 11 13 14 14 18 22 23 21 21 21 22 24 31 38 34 27 20 18 18 16 16 16 15 9 7 8 8 10 11 11 13 15 15 14 14 15 14 12 10 10 10 11 12 14 15
13 13 13 12 12 16 18 17 14 11 10 10 11 11 17 20 24 25 23 19 25 32 29 20 15 15 16 12 11 11 11 12 14 13 13 11 11 9 9 14 16 17 17 18 17 17 17 19 19 19 21 21 20 18
8 8 6 6 9 13 13 13 13 13 10 10 7 6 7 11 16 19 19 23 25 20 19 17 13 6 5 8 11 11 14 16 17 18 17 13 14 12 14 16 17 17 18 19 21 20 19 20 22 25 28 28 26 24
6 5 3 3 6 6 11 13 14 11 12 12 10 5 9 7 16 17 17 20 18 17 16 13 11 12 12 11 11 14 18 18 19 16 14 14 14 15 16 17 17 17 19 21 23 26 27 27 28 29 30 29 29 29
5 2 5 5 6 7 7 11 16 14 13 14 10 10 8 9 14 17 18 16 15 13 9 8 9 12 14 14 17 21 26 28 26 20 15 15 17 19 18 18 19 21 22 22 21 22 24 25 26 26 27 28 28 29
2 3 3 8 5 8 6 8 12 9 13 11 11 7 9 7 8 19 17 15 11 12 10 12 16 18 19 23 27 30 31 30 27 25 24 22 21 21 22 22 21 21 22 24 23 21 18 17 17 18 18 19 21 22
4 6 5 3 10 10 10 12 12 11 7 9 9 5 9 6 8 15 20 14 14 15 16 16 18 19 24 27 29 29 31 29 27 27 28 26 22 19 20 21 22 21 23 23 18 17 17 16 14 14 15 16 17 19
15 10 9 11 9 9 10 9 8 7 3 5 5 7 8 5 6 18 17 15 16 16 20 24 26 27 27 26 26 27 26 25 24 24 24 24 25 24 22 22 23 23 22 21 20 19 17 14 11 9 9 10 10 12
12 14 16 16 16 14 13 12 10 11 10 7 8 8 7 7 11 18 16 18 21 22 26 30 28 23 23 24 25 25 25 24 22 22 23 23 23 22 22 21 20 18 18 19 17 14 13 12 11 11 10 10 10 9
9 9 9 8 10 12 13 14 14 10 9 9 9 11 11 16 19 21 24 25 26 23 26 31 27 27 25 24 22 22 23 23 22 20 18 16 14 14 15 15 14 14 15 14 13 13 14 14 14 13 12 11 10 9
9 10 8 10 11 12 12 13 12 12 13 9 12 14 17 18 19 22 26 27 26 27 29 30 28 28 26 23 22 22 21 21 20 19 18 16 14 13 12 11 12 14 13 12 11 12 14 14 13 11 10 9 9 9
9 9 8 11 13 14 14 14 15 14 13 14 16 17 17 18 22 24 27 27 27 30 31 27 25 27 27 26 25 23 22 20 19 19 18 17 16 14 13 12 11 10 10 10 10 10 10 9 9 9 9 9 9 9
8 9 8 12 12 13 12 13 16 18 15 17 15 16 17 20 22 26 28 29 30 31 32 28 27 28 29 28 26 23 21 18 15 15 15 15 14 13 13 12 11 9 9 9 9 8 9 9 9 9 9 8 8 9
7 6 9 13 13 15 15 14 17 17 16 19 15 15 16 20 22 25 27 29 31 34 31 29 28 29 31 30 25 22 20 18 16 16 16 14 13 13 13 12 11 10 10 10 9 8 8 8 9 9 9 10 11 12

GFSWCAN_700_spd_021.txt.gz
Wind_Speed
26 28 28 28 31 33 34 36 36 37 39 40 41 42 39 34 27 22 21 19 21 27 22 12 18 29 24 23 22 17 14 5 5 6 5 5 6 7 9 13 13 13 10 16 25 19 24 21 28 20 12 13 17 18
26 28 29 29 29 32 35 37 36 37 39 40 42 42 41 35 32 20 26 21 22 26 26 15 11 10 11 9 12 13 13 9 6 5 6 5 6 7 10 12 10 20 25 12 18 22 11 21 29 28 23 25 23 26
28 28 30 30 29 31 35 37 37 37 38 39 41 42 42 36 29 20 23 22 22 25 22 12 15 16 17 13 14 11 4 3 9 14 14 14 13 12 12 13 16 15 18 23 25 31 24 28 24 28 36 33 24 20
29 29 30 31 30 30 34 36 36 36 36 37 40 42 41 36 26 20 14 17 18 20 19 14 12 8 9 9 12 11 12 10 9 11 13 16 18 16 20 20 23 22 22 25 27 31 36 30 25 31 28 28 38 34
31 32 32 31 30 31 32 34 34 35 35 37 38 39 37 33 28 26 11 11 10 15 21 19 7 7 4 4 2 5 7 11 13 15 19 20 21 22 26 25 28 19 19 23 28 26 31 38 33 23 29 26 20 21
31 33 33 31 29 29 29 32 33 34 34 35 34 34 32 28 29 31 18 14 14 13 18 22 10 4 3 5 5 6 7 10 15 19 22 26 22 21 18 28 33 21 24 28 30 30 31 36 35 34 24 17 21 17
33 34 32 30 28 27 27 30 32 32 31 32 30 30 27 25 30 29 26 22 19 14 18 16 7 6 10 10 8 9 12 14 16 23 31 30 29 30 38 44 31 33 30 28 29 27 33 28 30 27 22 18 17 22
33 32 31 26 24 24 26 28 27 26 28 27 29 27 20 22 24 26 23 19 16 15 11 8 11 11 7 11 10 10 11 15 20 24 30 31 27 29 38 31 26 22 25 14 16 26 23 21 24 28 23 24 23 28
31 30 25 22 23 24 26 22 22 22 23 28 22 21 11 22 25 24 21 21 18 12 9 10 21 13 17 9 9 10 12 11 13 20 23 18 24 20 28 30 26 13 11 14 11 14 20 20 32 24 20 27 32 30
30 27 23 22 22 23 20 20 18 22 22 22 16 19 18 15 23 20 21 21 18 16 26 37 27 22 19 14 8 7 6 6 7 10 16 12 22 38 31 17 12 7 16 14 21 16 19 27 27 17 27 24 22 24
29 26 22 22 23 18 21 17 23 20 23 14 15 21 17 16 13 15 19 13 17 13 34 40 34 31 27 21 13 10 9 8 8 14 16 15 34 46 24 24 26 17 15 13 15 17 21 17 22 26 23 19 20 20
27 24 21 22 21 17 20 20 22 15 23 21 15 15 19 18 11 12 15 15 14 19 31 30 26 25 26 24 15 17 12 13 11 20 21 34 49 40 34 25 30 27 27 19 14 11 19 25 23 23 24 21 21 23
24 22 20 20 18 21 22 21 17 10 16 36 38 22 12 15 16 17 22 29 23 25 29 27 21 23 18 16 16 17 15 13 17 24 16 47 56 46 39 30 33 22 24 27 28 29 30 24 24 27 31 31 27 29
21 19 17 18 19 20 21 19 14 20 29 26 28 26 19 13 19 19 24 24 18 18 21 26 27 26 19 16 14 9 23 14 15 18 35 47 49 49 48 49 51 50 44 46 40 38 38 35 33 32 35 33 28 31
20 17 16 17 17 16 18 18 19 24 35 28 17 17 31 26 24 20 17 16 14 14 13 21 31 27 17 20 13 11 11 11 18 29 33 39 41 43 44 45 44 43 43 39 37 36 34 30 30 27 31 30 27 27
18 16 14 14 16 17 10 9 17 27 40 37 26 24 27 28 22 23 14 11 6 8 10 20 15 17 26 15 18 15 9 14 19 26 27 32 38 38 40 39 38 37 37 35 32 32 30 27 26 30 27 24 22 20
17 15 15 13 12 11 8 13 20 31 30 25 27 25 24 26 28 22 18 20 16 10 13 18 13 11 5 16 17 21 20 18 17 17 28 30 32 31 30 28 28 28 27 25 24 23 22 21 17 14 15 18 13 12
15 15 14 14 12 11 14 18 21 20 24 22 24 24 25 24 24 23 23 12 11 14 25 33 28 30 20 27 26 23 21 22 23 24 23 22 21 21 22 21 20 21 21 21 20 19 17 14 13 17 16 14 11 9
13 15 15 14 11 11 10 18 19 17 19 17 16 17 22 22 23 21 18 14 13 12 14 18 13 24 20 18 17 16 17 18 18 17 15 14 15 16 19 18 16 15 16 16 15 14 14 13 12 10 9 8 7 7
9 10 12 15 14 13 12 17 14 15 15 14 16 15 17 22 24 23 20 15 10 11 23 25 19 15 15 14 14 15 15 14 12 11 11 11 14 14 14 13 15 18 19 17 15 14 13 14 15 12 10 8 6 5
9 10 10 9 9 14 13 13 12 12 15 19 16 14 16 19 23 24 21 18 19 24 23 19 18 17 15 15 15 16 17 17 14 12 10 10 12 14 16 16 17 17 16 16 16 16 15 14 14 13 12 10 9 8
8 8 7 7 9 8 10 12 11 10 12 16 13 12 10 14 24 27 23 23 22 17 17 15 14 14 15 16 19 21 20 17 15 13 13 14 15 15 16 17 17 18 17 16 16 16 16 14 12 11 10 9 9 9
6 6 5 6 6 6 6 10 10 11 13 15 14 12 11 13 19 23 24 21 18 17 16 14 14 14 14 16 20 21 19 17 16 14 14 14 15 16 18 19 19 19 19 18 16 14 12 10 7 7 8 9 10 10
4 5 5 4 5 6 7 9 11 10 11 15 14 10 14 15 16 18 24 19 16 13 14 16 14 13 13 15 17 19 19 18 18 19 18 16 14 14 14 15 15 14 14 14 14 14 14 13 12 11 11 11 11 10
4 3 3 5 5 7 6 9 9 11 11 13 11 9 14 15 14 13 21 18 16 14 15 17 17 16 17 17 18 19 21 21 19 19 17 16 16 15 15 14 15 14 13 11 9 9 9 10 11 12 12 11 11 9
3 5 5 4 7 8 9 10 10 12 11 10 10 11 13 12 9 11 17 17 17 15 17 19 20 21 22 22 22 21 21 21 20 19 18 15 14 13 13 12 11 12 10 10 9 8 8 8 8 10 11 11 11 10
7 6 8 9 10 11 13 12 10 11 10 8 9 10 8 7 6 12 16 19 21 21 20 23 24 24 25 24 24 23 23 22 22 22 20 18 17 15 14 13 12 12 11 10 8 7 7 7 9 10 10 10 8 6
6 6 6 8 10 11 12 13 14 10 12 10 9 10 8 9 11 15 17 21 24 27 26 25 26 26 28 27 27 26 25 23 22 21 21 20 18 16 15 14 13 12 11 10 8 7 8 9 10 9 7 6 5 4
9 9 8 9 11 12 14 15 15 15 14 13 13 12 13 13 13 14 14 17 21 24 28 27 27 28 28 28 28 26 23 20 18 17 16 16 15 15 15 14 14 12 10 8 8 8 9 9 9 9 9 8 7 6
9 8 9 11 11 14 15 15 17 17 15 15 16 15 17 16 17 16 17 16 18 22 27 29 28 29 29 28 28 25 21 19 18 17 17 16 15 14 12 12 12 11 9 8 8 8 8 9 10 11 10 9 8 7
11 9 12 13 13 13 15 17 17 18 19 17 14 15 17 18 17 18 23 19 20 20 26 29 28 28 28 27 26 22 20 18 16 16 16 17 16 14 13 12 11 10 9 9 10 11 10 9 9 8 8 8 8 8
11 12 16 14 12 14 18 17 17 20 21 17 16 15 17 19 20 20 21 21 22 23 27 29 27 26 25 25 23 19 18 16 14 13 14 15 15 15 15 14 12 11 10 9 9 9 9 9 9 9 9 10 11 12
10 9 14 13 15 18 19 17 20 21 21 15 13 16 18 20 21 19 20 21 26 27 27 27 25 24 23 22 19 17 16 16 15 13 13 14 15 16 16 15 14 13 11 11 10 10 10 10 10 10 11 12 13 14

GFSWCAN_700_spd_024.txt.gz
Wind_Speed
27 27 28 30 30 31 32 32 32 33 34 36 38 37 38 40 35 29 23 20 21 25 24 14 22 17 15 14 15 10 9 6 7 6 6 7 9 7 11 14 10 17 22 23 24 25 27 14 14 14 10 10 14 13
27 28 29 31 32 32 32 32 31 32 33 35 36 37 39 38 33 24 23 18 19 22 24 20 13 10 12 11 11 13 10 6 6 5 7 6 7 7 9 14 14 23 22 21 20 26 19 17 26 20 23 19 18 27
28 30 30 32 32 32 31 31 31 30 32 36 36 35 37 35 30 27 19 13 17 21 20 6 9 15 16 12 13 10 6 8 8 12 12 10 11 10 11 14 17 21 21 25 28 31 29 22 23 21 20 34 28 25
28 30 32 33 32 30 29 29 30 30 32 35 34 32 32 31 26 24 16 11 11 17 22 15 12 11 8 8 8 11 13 13 12 11 14 16 17 11 15 18 20 18 18 24 29 30 28 27 29 24 22 21 40 39
30 32 33 32 31 28 28 28 29 29 32 32 31 30 28 25 24 22 20 12 13 12 22 19 10 7 9 7 7 8 13 16 19 16 18 22 21 21 23 24 33 25 30 29 33 22 25 27 25 33 31 31 35 39
29 32 32 31 27 25 26 27 27 28 29 27 28 27 23 19 23 23 22 21 18 16 17 13 8 6 6 5 6 9 9 11 14 20 22 28 25 23 20 30 27 23 23 23 26 23 25 26 29 33 34 34 33 34
31 31 30 27 25 25 26 26 24 25 26 26 27 23 18 19 20 20 19 23 22 17 15 11 7 11 10 12 12 9 13 19 20 24 28 28 26 28 38 45 24 28 27 28 31 29 38 32 30 27 28 34 28 27
30 30 28 25 25 25 23 24 23 25 24 27 26 20 12 19 19 19 19 18 22 17 9 11 16 12 14 9 13 14 16 17 22 27 33 34 35 35 43 36 39 33 26 31 30 31 32 34 31 27 27 29 26 24
30 30 27 24 24 23 21 21 23 23 23 26 21 16 14 19 18 18 23 21 17 29 15 26 29 15 23 17 9 8 10 12 14 19 23 18 23 19 45 42 36 33 30 13 13 19 20 22 25 25 24 28 29 23
29 28 25 23 22 20 20 19 23 20 22 17 17 19 20 18 19 18 19 21 19 28 38 44 35 35 30 28 18 8 7 9 10 18 19 14 22 53 48 29 19 16 19 18 16 14 12 19 24 26 26 31 18 23
26 24 22 20 19 20 19 19 18 21 16 14 21 21 18 10 21 15 17 13 22 17 29 32 30 30 34 28 17 18 14 10 12 24 20 34 53 53 51 31 30 23 14 14 11 13 15 12 14 28 17 19 30 33
23 18 18 19 20 20 18 17 13 21 15 14 22 21 21 19 12 11 14 13 13 17 29 29 25 22 27 29 21 20 14 13 12 27 24 38 52 55 55 40 24 25 27 28 17 15 17 14 28 23 27 25 26 27
19 15 16 17 18 21 21 17 16 6 12 29 32 20 11 13 16 16 24 22 17 24 26 27 21 21 17 18 17 15 14 17 19 21 16 50 53 56 60 51 49 35 22 22 23 26 17 19 19 22 24 25 27 28
16 14 14 17 16 17 20 19 14 7 10 16 26 20 15 12 18 18 22 20 20 20 19 19 21 23 19 13 10 9 15 14 16 18 33 43 50 50 51 52 50 46 47 40 39 34 37 40 41 42 41 33 33 30
14 13 12 14 17 15 15 18 16 19 23 18 12 13 22 20 16 20 21 16 12 12 12 10 15 18 13 13 12 10 9 10 16 29 29 38 39 40 42 42 43 41 42 43 40 39 39 35 38 38 34 31 29 28
12 11 13 13 16 14 16 9 16 17 29 30 21 17 20 18 19 17 19 22 20 10 2 6 7 12 17 14 16 14 8 11 19 23 25 26 28 30 33 33 34 33 33 33 32 31 30 28 28 28 26 27 27 21
12 10 12 12 12 13 17 14 13 22 18 15 15 20 21 20 20 20 17 19 21 12 2 3 8 7 7 10 20 17 22 19 17 17 18 18 20 22 22 21 21 22 24 25 25 25 24 23 21 16 12 14 11 9
11 12 13 12 12 11 13 16 21 18 20 18 15 19 21 24 22 18 16 14 12 11 11 16 13 14 8 12 15 16 15 13 14 14 13 14 16 15 15 14 14 14 13 13 14 13 12 12 11 12 11 9 7 5
9 11 13 13 14 13 14 16 19 17 16 13 12 14 16 23 22 20 16 13 10 8 2 8 8 10 10 8 9 11 12 12 10 13 13 15 19 18 17 14 14 13 11 8 6 5 7 8 9 7 6 4 4 4
9 11 10 10 13 14 14 15 11 13 10 11 12 9 15 21 21 19 16 12 9 9 12 11 9 7 6 8 11 13 15 13 9 6 10 14 16 20 20 18 17 16 15 14 12 10 9 8 7 6 5 6 6 7
8 10 8 8 11 12 12 13 11 9 9 12 11 9 7 11 16 21 17 15 16 15 12 10 7 7 11 14 16 17 17 17 13 10 11 10 14 14 16 17 18 17 16 13 11 11 10 9 9 9 9 9 9 9
8 8 6 7 9 9 9 12 10 10 11 13 12 10 9 7 10 19 15 12 13 12 10 8 9 9 9 14 18 20 19 17 16 12 14 15 15 17 18 16 13 12 13 13 12 11 9 9 8 8 9 9 10 10
4 5 6 6 6 7 6 11 12 11 10 14 11 6 10 7 13 18 10 12 11 16 16 17 16 13 13 16 19 20 20 18 16 16 15 14 12 13 12 15 16 15 13 10 8 7 7 7 7 6 7 8 8 9
5 5 4 4 5 7 9 12 12 13 10 12 10 8 11 11 12 12 10 12 15 13 13 18 16 13 12 16 11 19 20 19 16 16 19 16 11 10 13 11 11 12 11 10 8 6 4 3 3 5 6 6 7 7
4 4 3 6 6 8 9 11 11 13 10 10 10 11 13 13 10 8 13 14 15 14 15 15 17 17 16 14 14 20 22 21 19 17 19 17 15 10 7 8 10 9 6 4 6 6 6 6 7 6 4 3 3 3
5 7 6 5 8 9 11 12 12 13 12 11 9 13 14 10 6 6 12 16 18 20 20 21 21 18 13 22 22 21 23 23 21 18 18 16 14 12 9 5 4 7 8 5 4 4 6 6 7 8 8 10 6 4
7 6 6 7 9 10 12 12 13 13 13 11 12 13 12 6 5 8 16 16 20 22 24 28 29 26 25 27 29 29 28 26 22 19 17 15 13 10 9 8 8 9 7 5 4 4 4 6 7 8 7 7 7 6
6 6 7 7 9 10 12 14 15 13 15 16 16 12 9 7 10 15 20 29 14 20 20 22 27 30 30 30 29 29 28 26 25 22 20 17 16 13 11 10 8 7 6 6 5 5 5 6 5 5 5 5 6 6
8 7 6 8 10 11 12 14 12 12 16 16 14 11 13 19 21 21 20 24 25 21 23 18 24 30 32 32 31 29 26 22 20 18 15 12 12 14 13 13 11 9 6 6 6 6 5 4 5 6 5 4 4 3
8 8 8 10 13 11 10 15 15 14 16 17 17 15 16 16 18 20 20 24 27 33 24 20 24 27 29 29 28 30 27 21 17 15 13 13 13 12 11 11 10 8 6 4 4 7 6 6 6 6 5 5 4 3
7 9 9 12 13 10 11 15 15 15 17 18 15 12 14 16 17 19 20 23 24 27 26 23 25 29 28 28 27 23 14 21 17 14 12 12 12 12 13 12 11 9 8 6 6 6 5 5 4 4 4 4 5 6
10 12 10 11 10 14 15 18 17 17 19 18 12 12 16 18 17 19 22 23 24 25 25 24 24 27 26 26 24 20 16 14 15 15 13 13 13 13 13 13 13 12 10 9 8 7 7 6 6 6 7 7 8 9
9 7 8 12 14 14 16 18 18 19 19 14 10 14 18 17 16 18 23 22 23 23 24 25 24 23 23 22 19 18 17 16 15 14 13 12 12 12 13 15 14 13 12 11 9 9 9 9 9 9 9 9 9 10

GFSWCAN_700_spd_027.txt.gz
Wind_Speed
26 28 30 31 32 34 33 31 31 30 29 30 32 34 33 31 32 31 29 21 18 23 22 12 18 16 17 12 13 10 12 1 7 5 5 6 10 5 10 12 11 20 27 28 26 25 20 11 10 13 11 15 10 12
26 28 30 32 34 34 33 30 29 28 28 29 31 32 31 31 30 25 25 16 15 21 19 19 17 11 11 10 12 13 9 8 4 5 5 6 9 6 10 15 18 14 16 25 27 33 16 24 12 10 8 8 5 4
25 27 31 32 32 32 30 27 26 27 28 29 29 30 29 29 26 22 20 11 14 20 23 10 12 13 17 10 8 12 10 8 13 9 10 8 11 10 10 19 17 15 18 22 22 26 20 23 18 19 17 14 14 12
25 27 30 30 30 28 27 27 28 28 28 27 29 29 27 25 20 20 19 12 11 17 20 15 12 12 11 8 12 9 12 11 11 10 11 12 11 9 16 18 20 20 17 26 33 30 28 26 24 22 24 24 26 20
24 28 29 29 28 26 27 28 27 26 27 28 29 25 22 18 19 20 20 17 16 14 21 19 6 6 7 10 7 6 8 11 16 16 17 17 17 19 21 23 30 24 27 29 29 23 25 28 28 29 27 36 40 34
24 28 29 29 26 26 27 25 26 26 28 27 26 17 16 19 17 16 21 23 20 18 21 11 11 9 5 10 11 12 10 12 15 20 20 23 20 19 20 25 24 21 25 27 30 31 29 25 24 23 28 29 42 51
26 28 29 27 24 25 24 23 26 27 26 25 21 16 12 18 14 12 16 24 25 23 16 11 9 15 15 11 11 11 10 17 22 27 34 35 33 26 34 47 36 35 36 33 29 33 30 30 27 23 24 26 32 38
26 27 26 23 23 22 22 25 26 28 24 22 19 12 14 14 12 15 12 29 36 26 21 25 22 23 26 17 11 14 10 13 14 17 24 26 29 28 28 40 42 30 27 34 37 38 33 32 36 37 32 25 25 28
24 25 22 22 20 22 23 24 25 25 21 14 15 9 15 15 14 17 19 19 31 39 35 38 40 26 30 24 18 14 13 12 15 19 18 15 14 14 49 48 35 28 34 37 31 29 33 41 42 40 34 30 28 31
22 20 20 20 20 21 20 17 22 22 16 14 8 14 16 19 13 14 23 23 20 34 36 35 31 32 27 25 23 13 9 13 13 31 18 22 33 52 57 31 25 21 16 20 28 23 21 23 22 20 23 23 23 23
19 16 18 17 19 21 20 17 15 20 12 10 16 14 15 12 16 15 16 16 21 16 28 27 27 24 26 26 23 15 15 12 10 28 26 34 56 55 60 39 29 21 18 13 12 15 12 7 5 12 14 20 21 24
16 15 16 16 18 21 22 22 20 10 15 8 8 17 22 21 12 10 13 13 11 13 21 24 26 18 20 20 16 16 16 14 12 19 21 40 52 54 53 48 39 25 15 7 15 9 11 14 15 13 12 15 26 21
14 13 14 16 17 20 25 24 21 13 4 11 14 12 8 11 16 14 22 19 24 18 18 22 17 21 17 15 13 11 11 11 14 18 13 37 44 46 49 50 47 45 44 44 30 21 15 18 26 21 25 27 29 25
13 12 11 14 15 15 16 23 27 13 2 3 12 15 11 9 16 20 24 21 21 21 16 16 16 10 14 10 8 7 10 7 12 14 23 30 35 37 40 42 45 48 43 41 41 43 42 39 31 33 35 30 25 25
12 12 10 11 11 14 17 19 21 11 7 9 8 11 15 14 15 13 14 14 17 14 12 11 7 11 9 6 9 7 7 8 10 16 20 26 25 27 30 32 35 36 37 38 37 36 33 33 35 36 34 29 26 25
12 11 11 10 11 14 19 15 12 8 17 13 11 11 9 12 13 15 16 17 18 16 10 7 6 3 10 7 10 10 5 6 14 12 14 18 20 21 22 23 24 25 26 27 29 29 29 28 28 27 24 23 22 22
11 12 13 10 12 13 15 13 11 14 10 10 9 11 14 14 15 16 16 17 15 16 11 6 7 5 4 5 9 16 18 14 14 16 16 16 18 20 17 17 18 19 17 17 18 20 20 19 17 15 15 15 13 13
8 10 11 11 10 11 10 13 12 10 9 7 7 11 14 15 15 16 16 15 14 11 11 9 6 9 5 6 8 10 14 18 18 18 22 23 22 16 17 15 14 15 14 13 13 11 10 11 12 11 9 8 7 6
8 9 9 10 11 10 9 12 11 6 7 6 6 9 11 14 15 15 15 16 13 11 8 7 6 10 7 7 9 9 10 9 11 17 15 19 24 21 20 16 16 14 12 11 10 11 12 10 9 6 7 7 4 3
7 8 8 8 11 10 9 9 10 7 5 5 8 7 7 11 14 13 14 15 13 14 14 12 9 6 5 7 8 8 11 11 9 7 7 9 14 14 17 16 15 15 14 13 12 8 8 9 10 10 9 9 10 10
6 8 7 6 7 8 7 5 6 5 4 5 7 7 8 8 11 11 10 12 11 11 10 8 7 10 10 10 8 11 12 15 9 9 11 11 12 12 13 13 12 11 11 11 10 11 9 8 8 9 9 9 11 12
4 5 4 5 6 6 7 11 4 5 5 6 6 6 7 6 8 11 8 9 10 9 10 10 13 9 7 15 15 15 16 16 11 12 15 12 10 11 10 12 12 10 10 9 8 8 7 6 3 7 6 7 10 12
3 4 4 4 5 6 6 9 5 6 3 5 6 6 7 7 9 11 7 8 8 11 11 15 17 17 17 17 20 18 22 19 11 12 13 12 9 10 11 10 10 10 7 9 7 5 8 7 5 3 7 7 5 6
3 3 4 3 5 6 7 5 6 6 6 6 7 6 7 7 7 6 6 7 8 7 9 17 14 10 11 16 11 13 19 19 13 12 12 14 10 8 9 10 9 8 7 7 7 7 7 8 7 6 7 5 6 6
3 3 2 6 6 4 4 5 6 6 7 8 8 7 8 10 6 7 6 7 6 6 7 10 10 11 10 10 10 12 21 22 17 12 12 16 11 8 6 7 8 9 7 4 5 7 7 7 8 8 9 9 4 5
4 6 4 3 4 4 5 6 8 10 10 8 8 11 10 10 8 7 8 8 8 9 7 8 13 12 11 12 13 16 21 21 18 12 13 14 11 7 5 4 4 8 17 7 5 5 6 8 8 9 7 11 6 3
4 3 4 5 4 6 7 8 10 9 8 8 12 11 10 8 6 5 9 12 12 12 20 15 15 10 11 14 18 22 23 21 19 18 15 13 9 8 7 5 6 11 5 4 3 4 5 5 6 6 5 5 7 7
3 5 4 5 7 6 9 9 9 6 7 10 13 12 6 6 10 13 15 24 28 25 25 29 18 17 19 20 22 17 13 10 11 12 7 9 11 10 11 8 8 8 7 6 6 4 2 3 4 4 5 5 5 12
5 4 5 6 6 9 10 6 10 12 11 13 15 14 13 12 15 13 21 21 27 24 26 27 21 18 23 18 19 18 17 10 8 9 8 5 8 8 10 8 8 7 4 11 10 8 7 6 7 6 5 4 5 5
7 5 8 8 8 10 12 8 13 13 13 13 13 13 12 7 17 19 17 21 26 24 25 25 11 18 12 13 12 14 14 13 11 9 5 6 6 7 7 7 6 4 2 2 5 14 10 5 6 5 4 3 2 2
7 8 8 8 10 10 11 13 13 13 12 12 10 7 8 14 18 14 16 25 23 22 16 12 13 11 11 13 13 12 6 11 19 16 7 3 7 10 9 9 9 9 8 5 5 6 7 5 4 4 4 4 4 6
8 8 9 9 10 12 15 10 11 10 11 11 9 9 11 13 15 16 22 25 21 13 19 14 8 13 18 11 11 14 13 7 8 8 9 7 9 11 10 10 10 10 9 7 6 6 6 5 5 6 6 7 8 8
8 6 8 8 8 10 11 14 12 10 10 8 9 12 11 12 16 20 24 21 19 16 12 15 16 20 18 16 15 14 12 10 11 11 9 11 11 11 10 9 9 10 9 8 8 8 7 7 7 7 7 7 8 9

GFSWCAN_700_spd_030.txt.gz
Wind_Speed
26 25 26 29 31 32 31 28 26 27 27 28 27 27 28 30 31 32 31 24 22 26 23 7 14 17 12 11 12 14 13 14 11 6 5 9 8 6 6 6 3 20 18 19 19 14 3 1 5 10 10 10 17 18
22 24 26 29 30 29 27 26 26 27 27 25 26 27 29 30 27 26 26 21 17 21 22 18 13 11 5 7 10 16 11 10 7 12 11 8 15 12 14 7 3 10 8 20 25 25 5 5 8 2 1 4 9 13
21 24 26 28 29 29 27 26 26 25 25 25 27 28 26 23 20 21 20 14 15 20 21 17 8 12 11 7 6 9 9 6 6 10 10 8 9 10 12 13 16 12 4 10 14 26 18 12 14 5 5 7 6 6
21 24 27 28 29 28 25 25 24 25 26 28 27 26 19 18 16 18 19 18 15 18 18 19 9 14 7 5 6 8 6 10 9 8 9 12 12 7 16 22 17 14 17 13 16 19 20 16 16 16 14 12 8 15
20 24 27 28 27 24 24 24 24 26 27 27 25 22 14 17 14 17 17 22 20 13 17 11 8 13 5 8 6 8 9 9 11 12 12 14 11 16 16 20 25 18 20 21 23 20 20 21 19 21 25 22 20 19
21 25 26 26 23 22 24 25 28 29 28 22 20 16 16 16 14 16 23 20 22 26 16 10 21 21 17 10 7 11 18 16 15 15 15 18 18 18 16 21 24 20 24 28 30 32 32 29 26 16 18 20 28 27
21 24 24 22 21 22 24 26 28 29 25 17 15 16 14 18 17 26 25 23 28 29 33 15 26 34 31 26 21 13 8 10 13 19 21 25 29 31 37 40 34 30 30 42 42 40 42 39 35 26 26 22 37 37
20 22 20 20 21 22 24 23 26 26 22 20 13 14 13 15 15 16 22 32 20 33 30 20 23 29 29 27 26 31 29 29 29 18 12 14 12 12 19 47 41 23 24 37 48 51 47 40 39 29 25 34 34 53
19 18 18 18 20 21 22 22 24 27 23 20 10 10 14 14 12 14 16 28 33 32 24 31 27 20 25 22 15 11 22 14 30 34 21 17 18 25 47 45 26 31 31 20 38 43 46 39 36 38 40 41 38 42
17 15 16 17 19 20 22 24 23 20 22 14 11 15 14 14 9 8 13 17 20 23 24 27 24 23 21 21 21 17 14 16 20 29 25 26 46 45 46 37 32 25 28 11 22 28 35 44 40 36 30 36 42 39
15 14 15 16 18 22 24 28 23 12 17 12 16 13 10 12 14 14 16 12 14 10 15 23 27 25 23 20 16 13 10 11 10 23 21 30 47 48 49 54 38 28 18 17 9 11 18 21 23 27 28 24 23 20
14 13 15 16 17 17 21 26 24 18 13 12 5 7 14 15 10 7 12 11 10 13 19 23 28 18 22 19 15 13 13 10 10 18 14 29 39 43 45 48 54 40 16 14 11 7 10 4 7 7 11 17 18 20
13 13 13 15 16 19 21 23 22 20 7 13 13 10 8 10 13 10 15 18 16 24 19 23 19 20 17 19 9 8 6 11 5 14 12 32 30 34 39 42 43 44 44 32 26 19 10 8 6 9 13 13 15 16
13 13 13 14 15 18 22 20 20 17 7 7 6 13 9 7 10 14 15 19 19 18 23 22 16 9 13 8 6 6 7 5 6 10 18 25 26 27 28 32 36 38 37 41 39 31 32 34 35 38 43 32 25 29
14 13 13 12 13 17 20 16 13 9 12 6 7 8 10 10 9 12 13 13 14 14 19 18 10 7 10 6 7 6 5 6 8 12 16 21 22 24 23 22 26 27 30 32 32 32 31 29 31 32 33 30 22 23
12 13 12 11 13 13 16 15 13 10 10 10 9 9 10 10 11 14 14 14 14 15 8 10 9 5 7 5 7 10 6 8 14 14 17 22 21 20 19 23 21 18 19 20 24 24 26 26 26 25 25 24 23 22
10 11 12 13 12 12 12 10 8 9 6 7 9 10 11 11 12 15 15 15 14 12 12 7 7 7 4 5 7 10 14 16 20 14 16 22 22 25 18 16 19 18 15 15 15 16 20 24 22 14 13 14 15 15
9 11 10 11 12 12 8 9 7 7 7 6 7 10 12 13 13 14 16 17 13 11 10 8 8 11 5 5 8 10 12 12 17 18 18 21 21 19 23 20 17 18 19 15 13 17 11 7 12 17 16 13 12 10
8 9 9 9 11 9 6 8 8 5 7 6 5 8 9 12 14 13 14 14 14 13 11 12 8 11 7 7 9 9 11 13 11 11 15 17 19 18 22 22 15 16 15 16 17 10 14 17 10 3 3 8 8 6
7 8 8 7 9 8 6 5 12 5 7 7 7 8 9 9 12 12 12 13 11 11 11 11 10 6 5 7 6 8 10 14 9 10 10 11 13 13 18 18 15 13 12 11 13 11 9 8 10 12 9 8 8 7
7 6 5 5 5 6 3 2 3 9 4 8 8 9 8 8 8 13 8 10 12 9 7 7 6 8 11 14 10 14 11 15 8 9 15 14 12 12 13 13 14 12 11 10 10 10 6 2 8 8 10 11 13 11
4 4 4 4 4 5 4 6 3 8 11 6 8 6 7 10 8 14 7 7 9 10 9 10 16 9 7 15 17 15 19 22 14 11 14 15 11 9 13 11 12 12 9 10 8 9 10 9 3 8 9 6 9 16
4 5 4 3 3 6 5 9 5 6 7 8 6 9 7 9 9 13 5 8 8 11 10 19 19 17 20 19 18 20 24 27 13 12 12 13 12 9 8 10 9 10 7 9 9 8 9 15 9 9 8 7 8 8
4 3 2 2 3 6 6 4 7 7 7 7 9 10 9 8 13 5 6 8 8 8 10 16 9 9 12 14 10 10 19 20 13 12 10 13 12 10 8 7 8 9 9 5 7 7 7 9 10 8 9 8 7 8
3 3 1 7 6 3 4 6 7 8 8 9 11 10 8 10 11 6 8 5 6 8 17 20 28 12 5 10 11 12 18 19 13 10 10 13 10 8 4 4 6 3 7 8 5 7 7 7 8 9 9 17 5 9
3 3 2 2 4 6 6 8 8 10 10 8 7 19 15 11 6 0 3 5 10 23 25 31 25 21 5 7 11 14 13 16 16 12 11 10 9 7 5 3 5 10 13 7 6 6 6 6 6 6 7 11 10 4
3 3 5 5 4 7 10 11 14 16 25 5 9 12 12 15 4 5 5 8 17 22 29 24 25 18 11 10 13 12 12 13 16 18 15 16 10 10 11 6 10 13 10 2 3 3 4 4 4 2 3 6 10 9
4 7 6 11 10 10 15 17 10 8 17 10 12 13 12 9 13 0 7 23 26 27 30 19 22 11 8 15 15 17 10 12 10 11 10 4 5 8 14 8 14 15 10 9 8 6 6 6 7 4 7 7 9 9
11 10 4 6 11 9 12 12 11 10 12 17 15 13 14 17 27 15 16 26 25 25 11 14 13 6 13 13 14 14 12 16 12 8 8 6 7 9 12 11 7 5 7 15 15 13 11 8 8 7 6 4 5 3
12 6 8 8 11 13 13 10 15 14 15 11 10 12 15 16 19 18 23 23 19 17 17 14 7 10 10 10 13 14 9 9 10 13 13 7 7 9 14 11 8 9 7 6 10 15 16 12 10 8 7 3 1 2
9 6 9 10 12 12 12 14 12 12 15 12 9 11 11 17 13 16 23 26 16 15 11 13 13 9 9 12 11 10 5 11 19 23 14 2 7 12 13 11 12 12 12 10 7 6 8 5 6 7 6 5 7 7
7 8 11 12 12 11 11 11 11 15 11 13 10 1 10 19 17 26 28 23 11 11 14 11 9 15 23 14 10 12 12 8 12 13 19 19 21 20 16 10 11 11 11 11 9 9 9 7 5 6 8 8 9 9
7 8 8 7 9 11 12 14 15 14 15 11 19 12 12 10 16 22 27 24 20 17 13 13 13 14 18 16 15 11 13 18 21 18 17 16 16 16 14 12 12 11 13 10 9 9 9 7 6 8 7 7 8 10

GFSWCAN_700_spd_033.txt.gz
Wind_Speed
16 19 21 23 27 29 30 28 27 25 24 24 25 26 27 28 28 27 25 17 17 22 18 22 24 19 17 9 14 15 17 12 15 18 11 12 11 12 11 12 19 8 8 6 3 5 5 15 15 23 14 13 20 26
16 20 22 25 28 30 29 26 25 22 23 25 27 28 27 23 22 21 21 17 15 18 20 15 12 11 12 1 7 9 14 11 10 12 16 10 15 11 20 11 9 9 10 11 6 8 10 7 22 18 6 3 14 20
17 19 22 27 29 29 26 24 21 22 26 27 27 25 22 18 19 19 22 21 17 16 14 13 14 13 11 6 3 7 8 9 6 8 10 10 9 13 12 9 13 13 13 9 9 13 4 9 5 4 10 6 2 8
18 20 25 27 27 25 24 22 24 27 27 24 22 22 17 15 14 17 20 19 18 14 17 14 10 14 13 1 1 7 8 10 11 11 9 8 11 10 14 16 18 15 14 19 17 8 8 7 11 9 9 9 12 9
17 22 25 26 25 23 23 24 26 27 24 19 18 19 17 14 15 13 17 21 16 21 25 28 26 22 13 8 10 6 5 7 10 13 14 15 16 19 16 17 15 5 12 20 27 20 24 16 16 18 17 14 12 16
19 22 23 22 22 22 22 22 26 26 23 18 17 15 16 21 19 21 21 24 21 21 33 34 42 42 42 33 23 13 8 14 14 17 16 17 16 18 15 18 26 23 27 31 38 36 35 29 27 24 19 21 14 16
19 21 19 20 20 21 23 23 22 26 23 16 16 11 13 20 24 25 20 23 27 27 26 18 24 25 28 31 38 37 33 27 19 12 11 10 8 6 11 30 33 27 14 20 30 40 49 42 40 35 31 29 32 30
18 18 17 17 18 21 23 23 22 20 20 14 14 9 9 12 14 19 26 19 24 27 25 16 18 29 28 20 25 29 34 36 35 24 26 21 12 6 14 33 27 31 17 21 33 40 52 53 53 46 38 36 38 40
17 15 16 16 17 19 27 26 18 17 19 16 9 4 7 7 10 14 14 16 18 22 18 24 25 15 18 22 13 7 17 19 25 26 28 26 39 27 34 37 28 18 18 25 23 26 46 52 51 51 47 43 43 43
15 14 15 15 16 18 25 28 20 16 18 12 8 5 10 8 8 4 7 9 8 12 21 29 26 26 15 13 11 8 9 11 13 25 18 32 26 38 41 37 31 20 24 17 21 12 8 30 37 36 40 43 45 49
15 14 14 16 16 19 23 25 22 14 15 8 12 15 8 9 12 10 14 10 12 9 21 20 28 18 13 12 10 8 6 6 9 20 15 25 38 37 41 42 46 26 16 22 17 8 4 16 29 35 35 36 36 42
15 14 14 15 16 18 24 22 20 14 12 16 9 3 12 13 12 9 12 13 11 13 22 29 28 20 12 14 7 7 8 8 6 15 11 16 34 34 36 38 42 44 33 18 11 11 7 3 10 17 23 31 34 36
14 13 14 14 16 20 23 19 18 14 10 11 17 13 8 9 13 13 16 19 18 23 24 25 25 16 12 14 7 6 4 5 6 10 11 29 31 31 30 31 32 37 37 37 35 20 7 5 7 9 8 9 13 16
12 12 14 14 16 19 19 17 15 10 10 12 10 13 9 9 11 15 16 18 20 12 22 19 15 13 11 7 6 6 5 3 6 7 13 26 31 28 25 24 25 27 30 33 32 32 32 28 21 20 15 18 15 14
10 12 14 14 15 16 18 15 9 13 15 11 6 8 10 9 10 13 15 14 14 13 20 13 8 4 9 5 6 5 5 5 8 13 16 22 30 25 20 21 23 22 23 23 26 29 26 25 27 23 19 20 25 27
9 11 11 13 14 15 16 14 11 10 12 8 7 7 10 9 11 15 16 17 11 16 9 11 11 5 9 5 6 10 5 5 12 18 20 21 23 23 27 26 21 19 17 19 20 21 22 24 24 25 24 20 20 20
9 10 11 12 14 13 12 10 10 13 8 6 6 11 13 13 11 14 16 16 11 12 14 5 8 6 4 5 7 10 13 14 11 17 17 19 21 23 27 29 17 20 19 13 15 17 17 18 21 17 16 15 16 18
10 10 11 11 13 12 7 9 6 5 3 4 6 10 10 16 21 15 17 17 16 12 18 12 10 14 5 5 8 10 10 15 17 7 16 16 18 19 21 28 13 16 18 15 13 13 10 9 13 17 20 18 15 13
9 9 11 10 11 9 8 8 5 2 2 6 8 7 13 7 15 13 16 14 12 11 11 10 5 11 7 5 9 13 17 17 11 6 10 12 14 13 18 24 12 13 13 13 12 11 15 16 14 11 12 12 11 12
8 8 9 8 8 5 4 4 3 3 7 12 8 8 11 9 11 9 13 14 17 10 8 6 5 9 13 14 15 14 13 14 11 3 5 15 12 7 13 17 17 8 6 14 11 1 4 4 12 15 14 15 13 7
6 7 7 6 7 4 2 1 3 7 9 7 5 6 7 5 7 15 17 3 12 20 17 17 17 18 15 13 12 9 12 18 15 9 13 16 16 3 11 10 13 9 7 3 13 12 8 9 1 5 6 13 16 13
6 5 6 7 6 6 3 6 4 5 10 12 9 8 11 6 9 14 11 2 9 13 21 21 21 19 16 16 17 18 21 22 26 11 11 12 16 10 6 10 11 11 8 6 6 13 16 15 1 6 3 7 13 13
7 7 7 4 5 5 4 7 6 5 9 11 11 7 10 13 12 13 7 7 11 13 22 21 25 25 16 11 13 16 18 22 24 18 15 11 15 15 7 3 9 9 5 6 4 6 9 11 7 6 7 9 4 7
6 5 3 2 5 7 5 8 9 11 11 13 14 15 18 20 12 10 6 10 8 15 20 20 28 23 16 9 9 13 17 21 26 26 17 16 20 11 5 8 10 10 2 1 6 9 5 7 4 11 14 8 5 2
7 5 4 4 7 10 10 9 11 14 18 20 11 12 13 16 17 12 5 6 10 14 20 24 29 22 9 3 4 12 17 24 29 14 16 13 10 4 6 7 9 11 12 8 3 3 6 5 2 5 11 5 8 2
7 3 6 4 8 10 12 14 14 18 18 21 6 8 12 18 16 5 7 2 9 17 21 28 19 17 8 5 12 18 21 19 22 20 17 18 16 14 12 7 13 14 14 15 7 7 2 2 3 4 3 1 2 7
5 6 10 9 13 12 16 12 17 17 13 14 7 8 9 9 8 22 21 20 14 21 25 21 21 23 9 8 13 17 14 11 13 14 13 17 7 11 12 14 20 15 10 6 9 11 10 9 8 6 6 7 13 17
6 12 15 13 13 9 16 16 14 16 6 6 10 10 9 8 10 14 20 24 22 25 26 20 18 16 9 14 17 12 9 8 9 8 9 14 11 9 7 9 23 21 13 7 8 8 6 10 14 13 13 13 12 10
8 13 7 2 8 12 14 18 17 15 14 8 12 14 13 18 24 27 22 20 23 22 19 16 14 11 11 12 10 10 11 7 12 9 1 7 8 9 12 18 21 21 17 14 11 10 11 11 4 4 6 3 4 1
10 9 12 10 11 15 17 15 16 16 12 16 12 5 12 11 12 18 20 15 16 19 17 13 16 9 7 9 14 22 23 16 18 21 19 13 12 11 13 20 19 13 14 14 11 6 6 7 5 5 4 4 5 6
7 12 12 13 15 14 13 12 12 11 19 23 23 29 18 11 14 13 21 23 11 15 11 8 13 17 21 25 27 20 14 20 23 19 15 14 19 20 21 23 19 13 15 13 12 9 9 10 6 7 6 8 6 5
7 9 10 11 11 9 12 10 8 13 19 20 22 21 28 13 14 13 22 26 20 18 17 19 21 22 16 18 18 18 18 20 21 23 23 21 21 19 15 12 13 14 11 13 12 7 4 8 3 2 6 9 9 10
9 8 10 12 12 12 12 12 13 15 16 15 17 18 18 13 10 26 31 33 32 30 26 22 22 26 27 27 25 21 23 19 20 21 20 18 17 13 10 7 8 10 10 11 9 5 6 8 5 5 7 6 6 8

GFSWCAN_700_spd_039.txt.gz
Wind_Speed
17 18 19 22 22 21 21 21 22 25 26 23 22 22 20 17 18 22 19 16 12 11 11 13 13 19 13 10 11 12 2 15 17 20 14 10 10 14 16 19 17 10 4 5 4 7 3 9 18 16 20 15 17 25
18 18 20 21 20 20 20 19 23 25 22 20 20 20 19 17 18 18 19 23 14 13 17 11 12 14 6 12 8 8 10 14 14 16 17 12 12 18 22 18 21 17 16 7 8 8 12 23 33 32 22 16 16 22
18 19 20 19 19 19 20 21 21 23 18 17 19 19 19 20 21 15 21 32 32 20 29 21 10 8 9 8 10 14 11 13 12 11 9 9 6 19 15 28 22 14 15 14 12 11 16 21 28 28 24 17 14 19
17 17 17 17 19 21 23 22 21 19 14 13 18 15 16 17 19 26 26 24 16 26 27 26 28 25 26 19 14 11 9 9 11 9 14 17 15 20 18 18 23 23 13 11 7 8 7 8 11 28 25 18 13 10
15 15 16 16 17 22 28 25 18 16 11 9 16 17 13 10 9 20 23 25 28 26 29 30 33 38 37 35 32 31 30 24 21 25 25 23 21 22 22 23 31 28 23 16 6 5 7 8 12 12 27 13 13 10
14 14 15 15 17 20 25 24 18 15 9 6 8 13 13 8 7 13 19 20 17 20 24 24 27 28 28 28 27 28 38 32 32 32 24 16 26 21 26 22 26 22 11 9 12 11 11 14 17 20 23 23 10 8
14 13 14 15 16 19 23 23 17 15 11 5 3 6 9 7 5 10 16 13 19 16 4 4 10 15 15 17 18 21 33 25 29 36 27 31 17 14 32 39 35 23 17 16 13 10 14 13 18 25 24 24 24 16
13 13 14 15 16 19 23 22 18 13 12 7 2 5 4 5 5 5 9 10 14 28 22 13 5 6 7 7 9 13 16 21 25 34 36 37 25 16 29 30 36 37 26 23 20 15 14 16 17 27 30 31 31 28
11 13 14 15 16 17 23 21 18 11 11 9 6 4 6 9 9 6 9 10 9 16 22 26 31 17 13 9 6 4 10 9 21 17 31 31 33 26 27 27 31 36 37 28 21 18 19 23 13 13 31 36 36 34
12 14 14 14 15 17 20 21 17 11 11 4 8 4 3 7 6 10 10 13 11 12 20 27 32 26 12 10 8 7 6 5 9 18 12 31 29 24 28 24 27 31 33 36 33 24 20 25 22 12 11 33 39 36
11 13 14 15 15 16 18 20 16 9 10 7 4 8 6 7 9 8 12 13 11 9 17 25 30 23 13 12 6 7 7 7 6 11 8 16 29 28 25 23 22 26 30 33 33 34 24 20 16 11 8 10 22 30
10 12 13 14 14 16 18 18 13 7 7 7 4 7 10 10 7 7 10 10 8 10 24 23 25 13 12 11 8 6 5 6 5 11 7 9 21 24 27 24 22 23 27 28 28 30 31 26 19 14 10 7 8 13
9 11 13 13 14 15 16 14 11 6 6 8 8 10 7 8 8 6 12 16 19 19 16 19 15 14 9 9 6 6 4 4 8 6 8 17 19 23 24 24 21 18 19 23 27 27 26 23 20 19 15 13 13 12
10 11 12 12 14 15 15 13 8 6 2 5 6 8 8 7 8 19 21 24 18 15 16 11 8 6 7 7 3 4 4 5 4 6 9 18 21 21 22 23 18 20 17 20 24 25 25 24 24 21 17 15 16 16
10 11 11 12 13 15 14 10 3 3 4 4 3 5 11 13 19 19 17 16 15 14 13 6 8 4 4 3 3 3 3 3 4 9 16 18 19 20 22 21 13 18 19 17 19 21 22 25 20 20 19 16 12 11
10 11 11 12 13 13 12 7 1 1 3 2 2 7 15 15 16 16 21 20 17 16 10 6 4 4 4 4 4 4 4 3 11 16 19 17 22 18 20 18 16 14 17 17 17 18 21 24 24 22 20 18 19 15
10 11 10 10 12 12 8 3 1 1 1 4 8 10 12 16 15 14 18 17 16 14 12 6 6 7 5 6 7 9 12 14 17 21 24 20 16 17 19 16 17 15 18 18 16 18 19 24 26 27 27 26 19 14
11 9 7 8 10 10 6 3 1 2 5 8 11 16 14 10 12 13 12 14 16 16 15 13 10 15 8 11 12 14 13 16 20 20 17 15 16 16 13 14 15 16 17 19 18 17 17 19 23 25 23 26 25 22
10 10 9 7 8 8 5 3 3 4 7 9 15 13 10 11 13 12 12 10 12 14 17 18 8 15 15 14 14 15 16 12 11 13 16 15 18 17 14 14 15 14 15 16 16 17 16 17 21 20 20 20 22 19
8 7 6 6 7 8 6 4 7 7 7 13 12 10 11 13 15 15 16 16 16 17 17 15 19 19 23 20 13 10 7 10 11 10 10 12 16 16 14 16 16 14 13 15 16 16 17 15 13 14 16 17 18 16
6 6 5 7 7 7 6 5 6 6 6 6 10 12 15 18 18 19 16 17 16 13 15 16 19 19 22 26 15 9 10 11 12 15 16 17 19 17 16 16 17 13 13 13 16 14 14 14 12 14 15 17 18 16
6 6 7 7 5 4 2 1 5 8 11 11 15 19 19 19 19 22 18 16 14 12 11 15 16 17 21 21 12 9 12 14 18 19 20 22 20 18 18 19 18 16 15 13 16 16 12 12 11 10 12 16 17 17
5 4 5 3 5 4 3 7 11 14 17 19 23 22 19 18 12 22 18 17 5 3 13 18 20 23 22 20 14 13 14 14 16 20 22 18 17 17 15 7 11 14 12 13 14 13 13 14 14 11 12 13 14 12
6 3 2 4 5 7 8 11 14 16 21 26 25 18 11 12 11 19 16 10 3 8 14 15 19 21 20 20 11 10 10 12 16 18 18 17 15 14 11 13 15 17 17 16 12 12 12 16 18 17 13 10 12 11
2 1 3 3 4 6 7 11 18 18 21 18 12 7 11 10 10 12 15 10 9 9 10 16 17 16 20 19 10 10 13 16 17 18 17 15 11 8 9 9 9 9 13 14 16 12 14 17 20 17 13 9 9 8
1 1 0 2 4 8 14 16 17 16 16 21 12 12 15 11 6 5 14 14 8 8 11 17 18 19 20 19 15 18 19 16 17 18 18 16 11 10 11 10 10 12 14 10 6 9 13 14 15 11 11 11 11 13
2 2 3 5 6 8 9 13 11 10 16 14 13 6 13 7 5 11 16 15 10 13 15 18 19 19 20 21 20 20 21 15 16 16 18 20 12 16 12 8 10 12 13 9 8 9 9 7 9 11 12 12 13 14
1 1 1 3 5 7 10 11 14 10 13 12 10 10 9 8 10 11 16 16 14 17 17 19 22 23 24 20 20 22 23 22 24 21 23 17 17 20 16 13 13 12 13 10 6 8 10 9 10 10 8 8 9 7
1 1 1 1 6 11 13 12 14 13 13 11 11 10 8 10 12 13 15 14 14 15 16 20 21 23 22 20 25 26 20 16 15 17 18 16 19 16 11 10 11 15 13 7 8 5 6 6 7 6 5 4 5 5
0 0 3 4 8 13 13 13 16 16 12 9 11 10 12 9 14 16 16 18 16 16 17 20 22 20 20 21 21 17 13 11 10 12 15 20 19 18 17 14 13 12 10 7 5 5 3 1 0 1 3 2 3 5
1 1 4 6 11 13 14 16 15 17 13 13 12 18 16 12 19 20 18 15 17 17 16 16 15 15 15 16 19 18 16 15 15 17 19 21 20 15 12 10 5 3 4 6 3 4 1 2 2 4 4 4 5 5
2 7 9 8 13 12 16 16 14 16 15 14 13 17 17 16 19 24 22 18 18 19 19 19 19 19 20 22 22 20 20 20 19 19 15 12 10 7 5 4 2 1 2 2 2 3 1 2 4 2 3 4 7 6
9 5 9 5 6 15 13 12 15 17 15 16 13 14 19 16 18 22 21 20 21 22 23 23 21 20 21 21 19 17 17 17 18 17 15 13 11 10 8 6 4 2 1 1 2 3 2 3 4 4 5 5 6 7

GFSWCAN_700_spd_042.txt.gz
Wind_Speed
21 20 21 21 21 21 23 24 24 25 23 21 19 20 20 19 17 21 24 15 22 17 16 13 17 18 15 18 15 15 10 18 21 19 10 10 9 16 20 10 8 3 2 2 5 2 5 8 28 16 17 17 15 20
20 18 19 19 20 22 26 25 23 21 19 18 17 19 20 22 21 22 25 23 22 28 24 22 16 12 15 13 19 11 13 18 17 20 20 14 17 19 23 8 15 11 7 1 5 9 15 25 30 28 23 18 18 19
17 17 17 17 17 22 28 27 20 19 15 15 12 16 16 20 25 28 21 22 26 17 24 25 26 24 15 10 8 8 10 11 13 14 16 15 10 23 13 31 26 16 18 9 8 16 17 22 28 26 23 20 21 19
15 15 16 16 17 20 27 27 21 18 12 12 15 13 11 14 20 22 24 23 17 27 30 30 32 35 33 27 23 22 20 18 17 19 23 22 15 22 22 23 29 21 20 12 13 7 14 18 25 24 23 22 20 18
14 14 15 16 17 19 24 25 19 18 12 7 11 15 12 7 14 18 16 17 16 18 21 21 26 30 27 27 27 26 26 24 23 22 27 22 21 21 32 33 32 21 18 14 13 7 4 10 19 21 22 21 19 16
13 13 14 16 17 18 23 24 20 16 14 8 7 10 11 9 10 11 10 14 24 10 9 6 8 12 16 24 21 26 24 22 26 23 17 18 34 18 20 36 30 22 16 13 13 10 3 11 15 24 24 19 17 15
11 13 14 15 17 19 22 23 20 14 13 9 6 8 6 8 10 10 14 13 15 20 15 8 2 6 5 5 6 12 15 20 27 23 20 17 12 23 32 30 31 26 15 13 9 11 4 8 13 17 24 25 20 15
11 13 14 15 16 17 21 23 19 14 15 10 5 7 6 10 14 12 11 12 8 17 18 19 21 10 13 12 8 7 6 13 16 26 23 21 24 20 21 25 27 29 31 20 8 11 13 9 6 19 24 26 24 30
10 13 14 14 14 16 20 22 20 15 13 9 9 8 7 10 8 7 9 10 8 12 16 17 28 21 20 16 10 7 3 4 14 15 30 23 24 17 19 21 26 30 32 32 27 10 9 14 16 8 20 26 25 26
10 12 13 13 14 15 19 21 19 14 12 11 7 8 6 7 5 10 10 13 10 11 14 23 27 26 16 18 9 8 3 2 3 13 9 24 23 19 20 19 18 25 28 30 32 29 21 14 16 19 11 12 27 30
9 10 12 13 15 16 18 20 17 12 11 9 5 7 8 6 6 6 10 8 8 8 14 21 24 21 18 18 12 7 7 6 3 7 5 11 21 20 19 19 18 21 24 26 27 27 24 22 10 8 10 7 4 7
8 9 11 13 14 15 17 17 14 10 10 9 6 7 8 8 7 6 9 9 8 8 18 21 24 15 16 17 9 8 5 6 4 9 3 9 18 15 18 17 19 19 22 23 24 25 24 25 23 14 8 7 5 6
7 9 10 12 13 15 17 16 12 8 6 8 8 9 7 8 10 7 12 14 17 18 18 20 18 13 12 12 8 5 4 4 8 3 4 15 15 15 17 15 17 20 19 21 22 25 26 20 21 21 20 17 14 7
7 9 9 11 13 13 16 15 11 7 7 6 5 8 7 5 11 16 16 17 16 18 17 15 10 12 12 9 6 4 5 5 3 3 7 16 17 16 18 17 13 16 18 18 20 21 23 23 22 20 17 17 18 16
8 8 8 11 13 13 15 14 7 4 5 5 3 4 10 13 15 13 18 17 16 19 13 7 10 12 10 5 5 5 6 4 4 10 15 17 20 16 17 16 15 16 18 19 19 20 23 23 23 22 20 18 15 15
8 8 9 11 12 13 14 11 5 4 3 4 4 9 13 14 12 11 13 14 13 15 12 9 7 7 5 7 5 4 9 4 13 17 19 20 15 13 16 16 15 16 17 19 18 17 19 21 24 23 24 24 23 18
9 8 9 10 11 12 12 7 4 4 4 5 10 11 14 14 9 11 11 12 13 15 19 11 8 11 9 7 9 8 14 17 17 21 19 15 15 16 17 14 15 16 15 16 16 17 17 19 21 20 19 21 23 22
9 8 6 9 10 11 9 5 3 6 6 9 10 12 17 13 12 12 10 13 15 18 18 14 11 15 10 12 14 17 16 17 15 15 14 14 15 18 17 15 15 15 15 14 16 17 16 17 19 19 18 19 19 20
8 10 8 7 7 8 9 7 6 8 9 9 11 14 13 14 14 15 13 15 16 16 16 15 6 15 14 18 18 13 13 10 11 11 9 10 12 16 14 13 14 16 14 15 15 14 15 16 18 19 17 19 19 20
6 6 5 5 6 7 7 5 7 9 8 7 8 11 14 18 17 18 20 22 15 14 17 12 9 15 11 11 17 13 11 11 11 11 12 13 16 18 13 11 11 14 12 14 16 15 14 13 14 15 17 18 17 16
5 5 5 6 6 5 4 3 5 7 10 10 13 15 19 22 19 17 19 23 20 16 12 13 23 12 16 24 14 14 14 12 13 15 19 19 18 15 13 13 14 14 12 12 14 14 14 10 12 14 14 16 15 14
6 5 6 5 3 1 2 2 6 10 12 13 18 17 16 13 11 18 24 19 14 11 6 13 17 17 23 19 16 14 16 14 12 16 19 19 19 15 12 10 5 5 9 9 12 13 13 9 10 12 12 14 13 11
5 4 3 3 3 2 3 7 11 15 17 17 21 16 14 11 9 13 16 18 10 2 8 13 17 22 18 18 10 13 12 11 13 16 18 17 16 15 15 12 9 9 14 16 9 12 12 10 10 11 10 8 10 11
4 0 3 2 1 2 4 7 12 17 17 20 18 11 12 16 18 7 13 15 12 10 11 11 17 14 16 19 17 8 7 11 14 16 17 17 17 14 11 9 8 10 9 11 13 13 14 13 9 12 10 8 5 7
1 1 3 2 1 4 8 11 13 10 14 18 12 13 16 19 11 5 10 16 14 11 10 13 15 15 18 18 16 16 17 18 22 14 14 16 15 16 16 14 12 11 11 13 13 10 9 8 8 9 9 6 6 8
2 2 2 1 4 4 7 10 11 11 14 12 13 15 15 14 7 5 13 19 17 12 13 15 19 20 17 19 20 20 22 22 21 21 17 21 15 19 17 22 13 12 12 9 7 5 7 6 6 8 5 3 7 11
3 3 4 3 3 6 8 10 11 14 9 7 13 12 12 9 6 12 15 16 13 14 17 19 20 22 21 23 22 14 22 24 21 17 19 20 20 13 14 12 11 11 13 6 4 4 5 6 7 6 7 7 7 9
5 5 3 2 2 5 10 9 8 8 8 10 13 11 5 7 11 11 14 14 14 16 17 19 20 22 21 23 25 23 22 17 14 17 16 14 10 11 13 9 3 5 7 5 4 4 4 4 5 6 6 5 5 6
7 5 4 3 4 6 8 8 9 9 9 11 13 12 10 7 10 11 12 15 17 17 14 14 17 18 20 24 25 24 20 16 12 15 15 15 15 14 13 10 13 2 7 6 7 6 3 4 4 3 2 1 1 2
4 5 5 3 5 8 12 12 9 10 10 7 5 8 8 11 14 12 12 13 15 16 15 16 17 19 21 21 21 20 18 16 14 13 13 14 16 13 9 6 7 4 6 5 6 7 2 3 3 3 5 5 4 5
4 3 4 4 7 9 12 10 9 11 12 8 5 6 8 9 18 18 17 16 16 18 17 17 17 17 18 19 20 20 19 19 17 14 12 9 7 5 2 2 1 2 4 4 4 5 3 4 4 2 4 4 5 6
3 4 8 10 11 12 12 12 9 13 15 11 8 5 11 14 18 20 20 19 18 18 17 17 17 17 17 18 20 21 21 19 17 16 14 11 9 7 5 3 1 1 1 1 1 2 1 2 5 4 4 5 7 7
8 6 8 10 9 9 10 10 13 14 17 16 12 10 9 14 18 19 20 20 18 18 17 18 17 17 18 19 19 19 19 17 16 15 14 13 12 12 10 8 7 6 4 2 0 1 2 3 4 4 5 5 6 7

GFSWCAN_700_spd_045.txt.gz
Wind_Speed
21 18 18 18 18 23 27 27 21 20 17 15 15 20 24 24 25 24 22 21 23 21 25 23 14 8 14 15 17 16 10 24 22 19 9 10 8 12 7 9 12 19 15 22 22 12 13 7 28 18 20 22 23 21
20 16 17 17 18 21 26 25 21 19 15 14 12 16 21 21 25 25 22 20 22 28 27 28 24 19 11 8 12 13 14 14 15 17 15 12 12 13 24 7 9 1 3 4 3 1 6 23 32 33 28 24 25 25
18 15 16 17 17 19 24 24 20 17 13 15 14 8 10 18 22 28 20 20 20 15 22 27 30 27 24 25 24 22 19 17 15 20 16 20 11 22 15 23 23 14 11 11 2 6 12 22 31 32 29 28 26 27
16 14 14 16 17 18 22 23 18 16 13 9 13 11 5 13 16 16 26 20 10 15 21 21 21 24 25 24 23 24 20 22 19 17 19 20 23 37 32 21 33 21 23 17 22 11 7 13 27 30 28 27 26 28
14 13 14 16 17 18 20 24 20 15 14 9 8 12 10 8 11 10 13 17 21 11 5 8 11 14 17 23 27 25 21 17 14 20 23 23 18 21 31 38 36 25 22 22 19 20 8 6 23 26 25 23 23 24
11 11 14 15 17 18 19 22 21 14 13 10 7 7 8 10 11 10 11 14 16 16 17 7 5 4 2 8 14 16 19 23 10 9 17 20 25 17 25 30 31 22 15 14 16 14 10 5 14 23 23 22 21 20
10 10 13 15 16 17 18 21 22 17 14 11 8 7 8 11 13 15 12 12 8 13 13 13 16 18 18 13 4 6 12 19 21 17 15 15 16 21 29 24 29 30 22 11 11 8 6 4 13 20 21 19 21 22
9 10 13 13 15 16 18 20 21 17 12 10 10 9 9 11 13 11 8 9 5 12 12 12 19 19 21 16 11 6 4 9 17 21 22 19 18 18 20 20 24 27 28 24 11 12 13 11 2 17 23 18 18 17
8 9 12 12 13 14 17 20 19 15 13 13 7 11 8 8 7 10 8 8 6 7 10 14 22 19 22 20 10 8 2 3 8 10 23 21 24 15 19 20 21 26 28 27 23 14 7 8 11 7 14 24 26 25
7 8 9 11 12 14 16 19 17 14 13 11 9 9 9 8 8 9 9 9 6 7 7 17 23 25 18 21 14 7 1 1 2 12 8 18 20 19 19 20 19 22 25 25 24 24 23 18 13 12 10 5 14 22
6 7 8 9 11 14 16 17 16 13 12 12 8 8 11 10 7 7 7 8 7 6 10 19 22 24 15 17 12 7 5 3 1 6 5 13 18 19 20 18 19 19 23 26 27 24 23 23 21 13 7 5 3 7
7 7 8 9 10 12 15 17 16 13 11 12 11 11 7 9 8 6 10 8 7 6 19 20 23 18 14 12 8 7 4 4 2 5 2 7 14 16 19 16 17 20 21 23 26 26 23 20 19 19 17 13 10 7
7 8 8 8 9 11 13 16 15 11 11 10 8 9 6 6 9 8 11 12 14 18 21 23 16 12 10 10 5 4 3 3 4 2 2 11 12 12 16 15 15 17 19 19 22 25 25 24 20 17 16 17 16 14
8 9 9 9 9 11 13 14 14 9 9 8 5 6 6 5 9 15 15 18 16 17 18 13 12 10 13 7 4 3 3 3 2 2 8 14 13 13 13 12 12 14 16 15 16 18 20 22 20 20 18 15 15 15
8 8 9 8 9 10 13 14 12 6 6 6 3 3 8 11 11 11 14 16 15 15 15 14 13 11 9 3 3 3 4 2 1 8 13 14 10 9 11 10 10 11 13 13 12 13 17 20 20 16 15 15 14 15
8 8 10 10 9 8 11 13 10 6 6 4 3 7 11 14 12 12 13 12 9 17 20 16 10 6 5 6 3 3 6 3 12 13 15 12 6 8 10 9 9 10 10 11 10 10 12 15 17 16 15 15 14 13
8 7 9 9 8 8 10 10 8 7 4 3 7 9 10 17 13 12 16 18 19 21 15 14 7 5 7 5 6 7 9 14 14 15 13 5 6 8 9 8 8 10 9 9 10 10 12 11 12 13 15 15 15 15
8 6 7 9 8 7 8 8 7 6 7 7 9 10 14 17 15 14 17 19 19 21 25 10 10 9 5 5 10 13 13 12 8 9 6 5 7 9 11 9 5 7 9 8 9 10 12 12 12 13 14 15 15 15
8 7 7 6 6 6 8 8 5 7 8 6 7 10 11 15 20 19 20 17 19 22 18 8 6 6 12 12 10 6 10 8 8 8 9 9 10 12 16 9 6 8 8 9 9 8 10 10 10 11 13 14 14 12
3 3 4 4 4 5 5 4 6 5 9 8 9 14 17 18 19 12 14 17 17 19 22 22 9 12 17 15 13 8 9 10 6 9 9 11 13 13 13 7 6 8 7 6 5 9 9 7 9 10 10 12 13 11
3 3 4 5 5 4 2 2 4 7 9 10 12 16 17 14 10 12 18 21 18 13 16 11 17 18 18 16 15 10 11 13 9 8 10 12 14 15 13 10 9 9 6 9 6 5 7 4 6 9 9 10 11 9
3 4 4 4 1 2 3 3 5 10 12 12 15 19 16 12 15 15 19 17 16 11 11 14 15 19 14 15 16 13 16 12 6 10 12 14 12 12 13 12 5 3 4 8 9 5 5 7 5 6 9 7 8 9
5 3 1 2 3 3 1 3 8 12 13 14 16 14 14 15 15 13 10 17 18 16 14 14 15 17 14 17 15 10 8 9 10 10 13 13 9 8 7 6 4 6 10 6 4 7 9 7 10 3 6 5 6 8
5 1 3 2 2 2 1 5 7 11 12 18 15 16 16 18 13 8 9 18 21 18 13 12 15 15 15 14 13 11 11 13 14 16 21 17 13 8 10 9 6 7 7 8 7 9 9 7 2 1 3 3 4 6
2 2 3 3 1 2 4 7 8 11 14 12 15 18 17 17 11 7 10 17 21 19 14 15 14 18 18 14 14 14 14 14 16 20 16 9 14 18 15 17 12 14 6 7 10 6 8 9 11 9 3 5 4 6
3 3 3 2 1 0 4 7 9 11 9 13 14 12 16 13 7 7 12 19 20 17 14 14 17 17 19 19 19 21 20 17 14 16 12 11 18 19 12 13 11 8 5 5 6 2 1 1 3 3 4 1 4 7
4 4 5 3 3 2 4 7 8 8 7 8 14 13 11 7 6 12 17 19 20 19 18 17 18 18 17 20 22 21 20 18 16 13 16 18 14 16 12 13 6 8 8 4 3 3 2 0 2 3 2 2 3 3
5 4 5 4 2 4 7 7 6 6 8 8 11 9 8 9 11 15 18 20 22 22 22 20 19 19 21 23 23 21 17 13 9 9 12 12 13 9 9 7 5 7 8 3 2 1 0 2 2 1 1 4 4 5
6 6 5 5 4 5 7 7 9 9 11 11 10 10 8 10 14 15 17 19 20 21 22 20 20 22 23 23 22 20 18 15 10 8 11 11 10 10 12 7 5 3 3 4 7 6 5 5 5 3 3 2 1 3
6 5 5 6 6 7 8 10 10 9 11 12 10 9 9 9 12 14 15 18 19 21 21 20 21 22 22 21 20 19 18 16 13 11 9 8 8 6 5 4 6 4 3 5 8 6 5 6 4 4 6 5 4 4
6 6 6 6 8 10 12 13 11 10 11 15 12 10 9 10 13 17 14 18 19 20 20 20 20 21 19 17 16 17 16 14 13 12 11 10 8 7 7 7 5 4 4 6 8 7 6 7 6 4 4 4 5 6
6 6 8 11 12 11 12 11 9 9 10 14 15 13 12 9 11 23 15 15 20 20 19 19 19 18 16 15 15 16 15 13 13 14 14 14 14 12 10 8 7 5 4 4 5 5 3 3 5 4 3 4 5 6
9 9 10 12 13 13 13 13 11 11 11 12 15 14 15 13 11 16 17 14 18 18 17 18 18 17 15 15 15 16 15 13 13 13 13 13 13 12 11 10 8 7 5 4 4 3 3 3 4 4 4 5 6 7

GFSWCAN_700_spd_048.txt.gz
Wind_Speed
17 16 15 15 16 18 23 25 20 15 14 8 9 14 19 22 23 20 17 19 22 25 27 23 22 19 17 17 15 13 9 16 14 12 6 8 8 9 6 5 13 17 14 18 23 20 21 35 27 8 7 19 32 36
16 15 14 14 15 17 20 23 18 14 10 10 8 8 11 17 22 23 18 16 17 21 22 24 21 20 19 19 17 19 15 13 13 13 10 8 10 12 15 5 6 10 22 11 19 14 26 11 6 9 19 27 36 36
14 13 13 13 14 16 18 21 18 15 11 7 10 4 6 13 13 16 22 18 15 12 16 22 21 20 21 19 19 17 18 15 14 11 9 11 8 22 13 18 21 4 12 7 8 12 11 7 9 3 19 32 39 39
13 11 11 12 14 16 17 20 20 15 13 8 6 8 4 9 14 11 14 16 17 11 8 9 12 15 16 17 19 18 13 13 17 14 14 12 9 16 26 22 27 21 20 10 11 18 4 7 9 5 18 32 35 37
11 9 10 12 13 15 16 19 20 16 11 10 7 5 5 8 12 13 12 12 13 13 11 7 15 8 8 7 11 17 21 13 10 6 16 18 16 10 12 28 33 24 20 20 17 13 13 13 8 6 15 28 30 31
10 8 9 12 13 14 15 17 20 17 11 10 9 6 8 9 14 15 11 10 10 12 15 9 17 20 15 14 7 9 17 19 14 9 10 13 15 22 16 19 28 27 16 18 16 10 11 14 13 8 16 23 22 24
8 6 8 11 12 13 15 18 20 17 11 9 9 8 8 8 12 11 9 11 8 12 12 10 11 20 23 18 14 8 8 12 17 19 11 10 14 13 22 25 28 28 26 17 14 8 10 11 8 8 13 13 15 17
7 6 7 9 10 12 14 16 17 13 11 11 7 10 8 7 8 9 8 9 7 8 8 8 13 14 22 21 11 10 6 8 10 15 15 18 9 13 15 17 21 24 24 25 20 14 14 10 12 11 14 10 12 15
5 5 6 7 10 12 13 15 14 12 12 10 8 8 8 8 7 9 8 7 5 5 5 10 17 17 22 18 13 8 3 6 7 11 13 16 20 13 17 16 19 22 26 25 22 21 14 9 9 7 8 19 16 16
5 4 4 7 8 11 13 15 14 12 11 11 8 9 9 12 10 8 5 7 3 5 6 14 16 21 20 17 15 7 2 3 4 8 8 14 16 13 16 15 17 19 24 24 22 23 21 23 16 14 8 4 9 23
5 4 5 6 8 10 12 14 14 11 10 10 10 10 8 8 6 5 7 7 6 6 7 18 18 19 16 11 12 6 4 2 2 4 5 9 13 12 14 14 15 16 20 24 26 26 24 22 21 20 15 10 5 12
6 4 6 6 7 9 11 13 14 11 11 11 9 8 5 6 6 5 8 7 6 5 13 18 18 14 11 11 5 5 3 3 2 4 2 6 11 10 13 13 14 15 16 17 20 23 23 22 22 18 16 16 15 10
6 5 7 6 8 9 10 12 13 10 8 7 5 7 5 5 5 4 8 11 11 12 12 16 14 15 10 8 5 3 2 3 5 2 4 5 9 10 11 11 12 13 14 15 16 18 20 21 20 20 19 17 16 14
6 7 7 7 8 8 10 11 12 8 7 5 3 3 4 3 5 10 10 12 12 10 12 16 16 11 10 6 4 3 3 2 3 3 6 6 11 9 8 9 9 10 12 11 14 16 18 19 18 18 18 18 16 17
7 8 7 8 8 9 9 11 11 6 5 4 2 2 3 8 11 12 13 14 12 17 23 17 12 9 6 4 3 3 1 2 3 6 8 10 14 6 6 7 8 9 10 9 9 12 14 17 16 15 15 15 16 14
8 8 7 9 8 8 8 10 9 6 6 4 3 5 8 10 12 13 15 15 18 23 24 16 12 5 6 4 2 2 3 3 6 9 9 10 8 6 7 7 6 8 8 8 8 8 9 10 11 12 12 13 14 14
8 7 8 10 7 7 7 9 9 7 3 4 4 7 10 12 13 14 17 17 23 24 20 28 5 3 4 2 3 4 4 8 9 8 8 7 5 6 8 8 6 6 7 6 7 7 8 8 9 10 12 13 13 14
7 6 7 9 8 7 6 7 7 4 6 5 6 7 11 14 16 18 26 21 20 19 17 19 20 15 4 5 11 8 3 6 8 8 5 5 8 10 12 13 10 7 5 5 5 7 8 7 8 9 11 13 12 12
7 7 6 6 4 4 5 5 4 4 3 4 7 10 13 17 18 19 15 15 20 17 16 20 9 9 10 6 6 5 5 4 4 5 6 10 11 12 14 16 10 7 6 5 3 3 6 6 6 7 9 10 10 10
4 5 4 3 3 3 4 3 3 2 5 7 8 13 16 18 18 14 14 21 19 13 9 14 15 15 13 11 11 9 6 7 9 2 4 9 9 10 10 9 5 8 7 8 7 2 5 2 3 7 7 9 8 7
4 4 4 4 4 4 3 1 2 6 9 9 11 13 16 14 13 14 14 15 12 13 11 14 14 15 13 11 15 14 10 12 16 3 7 6 11 10 7 8 7 5 5 4 4 3 1 1 4 4 5 5 6 5
2 3 3 4 2 3 4 2 3 7 7 9 12 12 12 13 14 14 10 11 15 15 12 10 12 14 12 15 17 13 7 6 6 8 10 11 6 10 2 4 4 2 3 4 5 4 2 4 3 2 3 6 6 5
2 2 1 3 3 4 3 1 2 5 8 11 13 16 16 17 15 11 7 13 20 21 14 12 13 15 17 17 14 11 9 9 11 14 15 21 27 4 2 3 3 3 3 3 2 2 5 8 6 3 3 1 1 4
3 1 4 3 3 3 2 2 3 6 8 13 14 14 16 19 14 9 6 14 20 19 15 13 13 12 15 17 13 13 13 16 17 16 18 15 4 4 7 8 10 14 16 4 3 4 4 5 6 3 2 2 0 1
2 3 3 5 4 3 2 0 3 8 8 12 12 14 17 18 11 8 10 14 17 14 19 17 15 13 13 11 11 15 18 12 14 13 10 8 7 9 9 5 8 8 1 5 2 3 4 6 8 8 10 5 1 3
4 5 5 6 5 4 2 3 6 10 8 7 9 12 14 14 7 6 13 20 17 21 22 22 16 10 15 20 15 13 13 15 13 11 15 13 13 13 7 8 2 3 2 1 3 2 4 6 4 2 1 1 1 3
5 5 7 6 5 3 2 6 5 5 7 7 10 13 10 6 4 12 20 20 22 25 24 22 20 18 18 17 17 18 16 14 10 8 11 13 11 7 1 4 4 2 5 4 1 3 1 3 5 6 1 2 1 1
6 6 6 8 5 2 4 6 6 7 8 10 12 11 5 5 9 15 16 18 21 22 23 22 19 18 18 17 18 18 16 13 10 9 9 9 11 9 8 5 3 4 4 4 5 4 5 6 3 2 1 3 2 2
8 7 7 7 5 4 4 6 8 9 9 11 12 13 13 13 15 16 21 15 20 24 25 24 22 20 19 18 17 16 13 8 3 6 5 9 8 7 4 3 6 7 5 5 3 7 8 6 5 3 1 3 2 2
7 6 6 7 8 7 8 10 12 13 11 10 12 15 14 14 17 17 18 16 18 23 24 22 20 18 17 17 17 16 13 12 9 5 4 2 4 5 5 8 7 6 6 5 6 5 5 5 5 6 6 4 4 5
5 5 5 7 8 9 12 13 14 13 10 11 12 14 14 15 15 18 15 15 17 19 22 20 19 16 15 15 15 14 13 11 10 10 9 8 8 8 8 8 8 7 7 6 5 6 6 6 4 3 3 3 4 4
5 6 5 7 11 14 14 14 13 15 15 15 15 14 15 15 17 22 22 15 14 16 18 17 15 13 12 11 11 10 10 9 9 9 10 11 11 11 10 9 8 6 5 4 5 4 4 4 3 3 3 4 4 5
4 7 11 15 17 15 14 16 15 14 14 14 16 14 13 14 17 18 18 19 13 14 15 14 12 11 10 10 11 11 10 9 9 9 10 10 10 10 9 8 7 6 6 5 5 5 5 5 5 5 5 6 6 7

GFSWCAN_700_spd_051.txt.gz
Wind_Speed
15 13 12 12 13 14 17 19 17 13 10 9 7 8 10 15 18 19 17 17 16 16 16 17 16 19 18 17 15 12 7 14 13 10 7 8 8 7 9 9 7 6 13 21 27 24 25 25 29 32 31 37 29 8
14 12 11 10 12 14 15 17 18 14 11 8 8 4 7 15 13 16 18 19 15 12 9 12 15 15 16 16 16 15 12 10 10 11 10 9 11 12 10 8 5 5 11 13 12 14 18 23 32 30 24 27 21 24
13 10 9 9 11 13 14 16 18 16 11 8 6 7 7 10 14 13 15 15 19 12 13 5 9 17 14 16 17 15 10 11 13 8 10 10 8 15 13 18 19 9 10 12 21 25 30 30 27 15 14 12 19 19
10 9 8 9 11 12 14 15 17 17 11 10 7 6 6 7 11 12 12 13 15 15 6 10 16 20 14 13 10 16 14 9 11 7 8 9 11 9 14 14 17 22 16 19 13 16 6 8 8 8 3 10 13 31
8 8 7 8 10 12 13 15 17 17 12 10 8 7 8 9 11 15 12 8 11 11 11 8 12 11 21 15 13 7 11 13 13 12 12 11 16 11 10 15 10 27 19 22 20 9 9 10 11 5 2 11 13 21
7 7 6 7 9 11 12 15 17 16 11 9 8 6 7 8 9 12 8 9 9 10 14 6 6 15 20 20 11 5 6 9 2 7 8 9 11 12 12 11 23 30 25 17 17 7 11 8 7 7 0 8 13 18
7 6 5 6 8 9 12 14 16 13 10 10 8 7 9 7 7 9 10 10 9 8 11 11 7 12 18 18 15 6 8 3 6 7 8 9 6 7 7 19 19 21 25 22 18 15 15 13 12 10 5 5 7 12
7 6 4 5 6 9 11 13 13 12 11 10 8 9 8 7 6 7 10 10 10 9 7 6 10 13 16 14 14 11 5 3 4 5 8 8 3 4 8 12 15 17 17 24 25 22 19 15 13 8 8 5 3 5
7 5 4 4 5 8 10 12 13 12 10 10 9 9 8 8 9 8 9 8 9 7 6 7 16 11 17 14 12 11 4 4 5 8 4 9 9 9 11 13 12 17 18 19 20 18 19 19 17 15 13 7 8 9
8 6 5 4 5 8 10 12 13 12 10 11 11 11 7 10 8 7 7 9 6 7 10 11 16 15 11 17 9 8 4 3 6 3 6 9 12 12 10 10 10 13 15 16 20 23 23 21 22 24 20 14 9 6
8 7 6 4 5 8 10 11 13 12 10 11 10 8 8 9 6 5 8 7 6 8 6 13 15 18 13 13 14 5 5 5 3 2 5 8 11 13 10 11 11 10 13 14 16 17 20 22 22 21 22 21 19 13
8 7 6 5 5 7 9 11 12 12 10 10 8 8 6 5 5 4 5 5 5 5 9 13 13 15 19 15 7 5 4 4 3 3 3 7 6 11 13 12 13 15 11 13 16 20 22 26 27 23 21 21 21 20
8 7 6 5 6 7 9 10 12 11 8 8 5 5 4 3 3 4 5 11 8 13 12 13 17 19 20 11 7 6 5 6 4 3 4 6 4 7 10 10 10 13 19 17 14 17 18 23 22 27 24 22 19 19
8 7 6 5 7 7 8 9 11 10 7 6 4 5 2 4 5 10 11 13 14 13 12 17 18 23 17 9 6 4 3 3 3 3 7 8 5 8 7 8 10 11 13 19 18 13 18 18 21 21 24 25 23 19
8 7 6 6 7 8 8 8 10 9 6 4 3 4 5 7 12 12 13 16 17 13 14 18 16 26 19 1 4 3 3 3 4 4 9 10 13 11 8 8 8 10 10 13 17 14 16 19 18 18 17 21 26 21
7 7 6 7 7 8 8 8 9 8 7 4 4 4 8 12 13 14 15 18 18 18 20 25 14 6 6 8 6 4 5 4 7 10 8 12 14 8 8 8 10 8 10 8 9 9 12 12 14 13 13 13 22 24
7 5 7 9 7 7 7 8 9 8 3 3 3 7 14 9 13 14 16 18 17 12 16 11 8 5 7 5 5 5 5 8 9 8 9 15 13 8 8 8 9 8 8 8 8 8 9 9 10 13 16 14 14 20
6 5 7 8 7 8 7 7 7 4 5 4 8 9 10 13 14 15 15 11 14 14 8 9 8 7 2 5 7 8 9 7 5 8 10 11 11 11 8 9 9 8 7 7 8 6 6 6 7 9 11 13 11 12
5 5 5 5 5 4 4 5 4 3 3 5 7 10 10 15 17 17 10 13 16 13 8 12 5 5 6 9 9 9 9 5 9 11 6 9 10 11 12 11 8 7 6 10 6 6 8 10 3 5 7 7 9 9
5 5 4 4 4 3 2 3 3 2 2 7 8 8 11 11 12 11 8 11 9 8 13 12 9 8 12 12 15 16 12 10 11 11 8 8 4 12 12 13 7 8 7 11 8 4 7 1 5 7 7 7 7 7
3 4 4 5 4 5 4 3 3 4 6 4 8 7 8 10 9 9 9 9 10 12 13 11 12 11 13 13 13 12 11 9 11 9 2 8 11 10 8 12 6 7 8 9 6 4 5 3 3 7 5 5 5 5
2 3 5 5 5 4 4 5 4 6 4 4 7 7 6 8 10 7 7 8 10 10 9 7 9 10 14 17 17 10 11 11 10 10 11 9 5 7 8 5 8 3 6 5 4 13 3 5 6 1 5 5 5 5
2 3 3 3 4 4 4 5 3 3 4 5 8 7 7 9 10 9 3 7 10 12 9 13 15 15 13 9 14 12 13 13 12 8 7 10 16 7 3 4 7 7 4 13 6 2 6 3 8 4 2 3 4 5
4 4 5 3 4 4 4 3 4 3 4 5 6 6 7 9 9 4 4 9 10 11 16 19 13 11 11 11 18 19 14 16 13 13 14 12 4 4 5 5 7 3 6 7 11 13 6 6 4 1 4 1 1 4
4 4 4 5 5 4 2 4 3 5 5 6 6 5 7 9 6 4 3 7 10 9 13 12 11 14 14 13 11 13 19 11 9 12 13 11 8 5 14 18 0 3 3 6 7 4 4 5 0 4 2 2 2 2
4 5 5 5 4 4 4 4 3 4 6 5 6 8 9 7 4 2 6 9 10 14 14 12 10 8 8 10 10 10 10 7 7 12 4 3 9 8 3 4 5 6 3 3 8 10 7 5 5 8 4 2 2 1
6 4 6 9 7 6 4 6 6 5 7 7 8 9 9 8 4 4 9 19 15 18 17 13 12 10 10 10 11 12 8 7 5 1 8 6 4 5 2 4 2 1 4 1 1 4 5 3 3 9 5 2 3 2
8 6 7 6 6 5 5 5 5 6 7 6 8 7 7 8 8 11 12 19 16 17 17 18 19 16 13 12 8 8 9 10 10 8 7 10 7 4 2 1 2 1 2 2 5 6 4 5 3 3 1 1 2 0
7 5 7 8 7 6 6 4 9 10 2 9 10 9 9 19 18 18 22 16 14 17 11 11 16 12 14 17 13 7 3 1 7 14 12 6 7 7 6 7 8 9 4 2 4 2 7 6 3 3 2 3 1 2
5 7 6 5 8 8 11 7 8 15 16 14 16 15 17 18 20 20 23 20 13 14 15 15 11 12 11 10 13 11 9 5 6 4 3 4 4 5 7 8 9 4 4 5 4 5 4 6 5 6 4 3 2 1
5 6 6 8 10 9 10 10 18 19 18 16 11 6 14 19 18 17 18 17 16 14 15 14 15 15 13 12 10 10 9 7 5 4 6 6 4 4 6 7 6 6 3 2 4 2 2 3 2 0 0 3 3 1
5 6 6 10 14 5 8 13 12 7 10 16 19 27 12 16 14 14 11 13 18 13 12 13 15 14 13 11 10 9 7 6 5 4 4 5 4 5 7 5 3 2 4 3 3 3 3 1 1 1 3 4 4 5
6 7 9 11 12 15 14 13 15 17 20 20 20 1 7 5 9 13 13 13 15 11 12 13 12 11 10 10 9 8 7 6 6 6 5 5 5 5 7 5 3 3 3 2 1 2 2 3 3 3 5 7 7 7

GFSWCAN_700_spd_057.txt.gz
Wind_Speed
8 19 11 12 10 10 11 13 14 15 12 9 8 9 9 11 14 13 12 11 9 5 9 9 16 19 10 10 10 10 5 11 9 11 8 6 5 6 7 7 12 7 11 8 8 6 10 19 21 12 26 39 36 36
13 17 11 10 9 9 10 12 13 15 12 9 8 7 8 8 9 12 12 10 10 7 3 3 11 16 16 2 7 10 11 8 11 9 8 4 4 4 11 4 9 6 14 14 12 13 23 29 29 28 33 41 43 42
16 15 11 8 9 8 9 11 13 14 13 9 8 7 5 7 9 12 15 12 10 10 4 7 5 10 19 16 15 3 8 6 10 15 9 6 8 6 7 9 15 14 17 22 21 24 26 27 24 27 37 44 47 50
13 13 9 8 8 8 9 10 12 13 12 9 8 8 6 7 9 10 12 11 11 11 9 9 13 12 10 12 17 11 4 9 8 13 11 9 7 11 10 11 13 14 14 20 27 31 27 19 23 27 27 32 37 40
13 12 7 8 7 7 8 9 12 12 10 10 10 8 7 8 9 9 11 9 11 11 12 11 7 5 10 11 15 15 3 6 10 15 15 11 14 16 11 8 13 18 19 19 24 29 25 26 27 26 25 22 22 22
14 10 8 7 6 6 7 9 11 10 10 10 11 8 8 10 9 9 9 7 11 13 16 12 8 11 11 15 9 16 8 6 8 13 15 13 13 11 9 11 17 18 18 19 21 24 26 25 23 27 22 19 20 22
10 10 8 7 5 5 6 8 10 10 9 10 11 9 10 10 10 10 12 12 13 14 15 11 2 8 15 5 8 11 11 4 8 13 13 15 8 9 11 15 18 18 19 19 20 23 28 26 28 27 26 20 15 18
10 11 9 8 5 4 4 6 9 11 11 10 11 11 10 11 11 11 13 13 14 15 15 7 5 11 12 8 10 11 9 9 8 9 9 4 4 12 9 13 8 15 19 18 18 21 25 26 31 27 30 23 16 13
12 11 10 9 6 5 5 7 10 11 13 12 12 12 9 8 11 11 11 12 13 14 12 13 15 9 9 14 13 9 8 10 9 12 12 11 15 10 9 10 7 11 12 16 19 22 20 26 26 32 28 26 22 14
12 11 11 9 6 5 5 7 10 12 13 13 13 9 5 13 13 14 14 13 13 10 16 19 17 17 6 19 12 9 11 9 8 11 15 16 14 11 5 5 7 8 11 15 16 16 17 24 22 28 29 31 27 22
12 12 11 8 7 6 5 7 9 11 13 13 13 11 13 16 16 9 9 15 7 5 11 26 16 9 18 24 21 7 8 6 5 8 13 8 7 5 3 11 7 11 13 13 17 12 24 18 23 21 32 35 29 25
12 12 10 8 7 6 6 8 8 10 13 12 13 13 14 7 4 3 5 7 14 9 25 25 21 21 24 19 17 9 6 3 3 8 6 3 3 4 2 12 9 11 9 16 14 25 21 21 18 24 24 30 32 24
13 11 9 8 8 7 7 8 8 10 12 10 9 7 7 3 4 4 9 11 16 12 15 19 17 21 13 21 10 8 4 4 11 3 3 5 3 3 4 9 11 12 11 10 16 12 19 17 17 25 21 24 29 30
12 10 9 8 8 7 7 8 8 9 11 8 6 6 4 3 6 10 22 17 17 17 14 16 12 15 20 13 7 5 6 5 6 4 6 8 3 5 12 11 6 13 12 10 18 10 11 14 17 24 21 21 25 28
12 11 9 9 8 8 8 9 9 10 10 6 3 5 5 11 15 15 13 12 14 17 19 13 6 17 14 5 6 6 6 4 5 9 13 9 8 5 15 8 3 9 13 15 8 19 14 12 8 12 18 23 22 23
12 11 10 10 9 9 9 10 10 11 12 11 7 6 6 15 20 15 16 13 8 22 17 7 13 7 7 4 7 3 7 3 12 16 12 19 2 13 13 6 3 8 12 13 8 9 7 13 12 13 11 17 17 18
12 12 11 10 9 10 10 12 12 13 9 6 4 9 13 11 15 16 24 8 12 8 9 10 6 4 6 5 8 7 9 14 16 16 22 16 15 13 16 11 8 10 8 9 8 6 10 2 12 7 6 10 14 15
10 9 10 11 9 10 11 12 12 10 10 2 7 10 17 17 4 16 19 18 9 12 15 8 8 6 6 5 12 15 16 20 18 14 15 23 7 19 17 16 8 9 12 12 12 11 9 5 5 10 9 13 16 13
8 9 10 9 8 9 10 9 9 10 9 8 12 11 16 17 20 14 8 6 11 13 12 8 5 12 11 10 10 15 20 19 18 21 24 19 10 13 15 11 8 7 6 14 15 15 10 5 6 5 2 12 13 9
8 7 7 8 8 8 8 6 7 8 3 4 8 16 17 11 14 14 8 6 8 11 13 6 10 16 14 10 16 19 19 19 14 17 21 18 26 11 7 7 7 8 15 14 17 17 11 7 9 5 3 3 10 9
8 8 8 8 9 11 13 10 13 14 13 10 15 23 15 11 11 8 5 6 3 8 12 15 10 17 19 17 15 17 16 13 15 15 16 18 21 25 15 4 9 15 8 18 19 21 16 8 14 7 4 6 11 10
5 6 8 9 11 15 17 14 17 10 12 11 17 16 4 2 2 7 14 11 8 14 12 14 16 21 22 12 12 15 13 21 13 14 18 23 14 7 16 11 9 9 10 13 6 16 16 13 7 12 5 4 7 8
6 6 7 9 8 9 11 10 14 11 16 15 16 19 8 3 9 9 11 8 9 10 12 13 18 18 18 14 12 13 16 14 14 15 21 22 18 21 16 13 10 11 7 5 13 17 15 3 10 12 8 2 1 3
9 9 6 5 9 10 9 7 7 7 10 17 19 18 16 8 10 9 5 1 8 10 10 11 17 16 17 12 10 10 10 9 14 20 22 19 21 10 8 15 6 5 10 10 13 10 3 7 9 6 3 2 2 4
11 8 8 12 13 8 10 7 9 12 20 20 22 19 16 3 8 7 8 14 13 11 11 12 7 7 9 12 15 20 23 19 16 19 21 15 11 7 10 8 3 2 3 15 15 6 8 5 8 6 9 4 6 4
9 7 7 6 7 6 6 10 14 16 13 17 21 14 8 11 4 4 10 11 13 15 12 11 9 8 13 15 12 11 9 8 12 13 9 11 12 5 3 1 6 5 15 10 10 11 15 11 7 5 5 6 3 2
15 11 8 3 11 7 12 12 11 16 13 13 13 18 23 15 4 4 3 7 11 9 8 9 7 5 7 10 12 11 11 15 22 26 21 13 13 10 7 2 5 10 12 11 10 9 10 12 9 6 3 4 4 6
14 13 7 8 13 12 12 11 17 17 20 21 23 12 5 4 2 2 1 3 7 7 6 10 12 10 13 11 12 14 15 17 18 21 19 15 15 11 12 12 9 7 6 10 9 8 8 8 6 3 5 4 4 6
11 8 6 6 5 7 16 16 17 15 20 28 19 13 3 4 6 6 4 9 3 7 10 10 14 13 16 15 12 5 6 5 12 14 8 8 11 9 11 12 11 12 10 7 4 2 2 3 2 3 3 2 6 5
8 5 4 6 12 14 15 15 16 18 20 19 12 9 9 12 10 15 9 8 9 3 7 7 2 2 3 11 15 10 2 8 5 3 4 9 6 3 3 4 5 5 8 13 11 11 8 7 6 4 5 6 4 8
1 2 6 9 11 12 13 11 16 21 22 5 19 11 5 1 6 4 5 4 1 3 2 7 9 6 5 7 11 10 6 5 2 6 7 5 5 3 2 6 7 7 4 5 6 6 6 7 8 6 7 8 6 3
3 4 9 10 11 16 20 25 19 14 19 5 8 4 8 4 5 9 11 7 8 4 7 10 10 9 7 7 6 7 6 5 4 2 4 7 7 6 9 5 6 6 8 8 9 7 4 6 6 6 8 9 9 9
8 10 10 7 7 14 24 20 8 8 10 6 4 3 9 13 13 10 8 7 9 13 10 5 8 9 7 7 6 4 4 4 4 4 4 4 5 5 5 2 2 6 6 4 7 10 10 10 10 11 11 10 10 10

GFSWCAN_700_spd_063.txt.gz
Wind_Speed
16 16 14 13 17 10 9 10 11 11 12 11 7 7 6 6 7 9 11 9 5 5 3 1 4 11 9 7 7 8 3 5 2 2 2 3 4 4 2 2 1 3 3 2 4 6 9 12 18 19 21 26 27 31
16 17 19 12 12 9 8 9 10 10 11 11 7 8 7 7 7 9 10 10 8 6 6 7 8 8 7 8 7 4 4 5 4 4 2 3 1 2 2 4 3 3 4 4 5 7 11 15 20 22 27 30 32 35
17 16 19 10 12 9 7 8 10 10 10 11 9 9 8 8 8 9 9 9 8 7 6 5 6 7 5 5 8 3 2 4 2 1 1 1 1 4 5 8 7 6 6 9 10 8 12 16 16 19 18 20 23 29
19 20 12 10 10 8 7 8 9 9 9 11 10 10 8 8 8 10 9 9 9 10 4 9 8 5 8 3 5 7 3 5 6 8 7 4 6 6 8 10 12 12 12 12 13 11 11 12 14 15 17 19 22 24
19 17 11 10 10 7 7 7 8 9 9 10 10 10 9 8 9 10 9 9 9 10 13 10 10 5 5 4 8 11 9 9 12 13 15 8 10 11 11 15 12 11 11 13 15 11 9 11 15 17 19 21 21 23
20 17 15 12 10 8 7 7 7 7 8 10 10 10 9 8 10 11 8 8 12 12 15 11 4 3 5 6 9 10 9 16 21 17 17 17 12 12 11 16 13 12 10 12 9 9 12 13 16 17 19 20 25 25
21 17 16 13 10 8 7 6 6 6 8 10 10 9 10 8 9 10 11 13 13 13 15 8 2 4 8 9 10 14 17 24 28 31 23 19 17 18 23 23 11 10 9 10 9 10 8 14 15 15 19 22 22 24
14 17 16 12 10 9 8 7 7 7 8 10 11 10 9 5 7 11 13 15 14 11 8 6 11 13 12 13 13 20 22 26 38 39 30 27 17 20 20 7 8 10 9 9 9 11 11 16 12 13 16 20 21 25
13 17 15 11 10 10 8 7 7 7 8 10 10 9 8 6 9 10 10 9 10 5 6 10 15 13 19 17 14 18 21 23 22 24 26 30 27 22 13 8 11 14 12 12 12 12 14 16 12 12 13 17 21 25
16 15 13 11 10 10 9 7 7 6 7 9 10 9 6 7 10 5 4 8 7 5 4 9 15 15 16 17 19 19 10 10 9 8 13 24 26 23 21 19 16 16 17 14 11 10 9 12 12 16 13 15 19 23
15 10 11 10 10 9 8 7 8 7 7 9 10 9 7 6 2 1 4 7 4 4 7 9 14 15 16 16 17 9 9 8 5 8 9 9 8 14 15 20 14 15 15 16 12 15 15 12 12 11 11 14 18 21
6 9 9 10 9 9 8 8 8 7 7 9 11 9 5 2 1 2 6 6 5 5 13 17 16 16 14 14 8 7 6 5 4 10 6 8 15 5 7 8 15 17 16 15 11 8 10 10 13 10 11 14 16 19
8 8 9 10 9 9 8 8 8 7 8 10 10 5 2 0 1 2 7 8 10 15 14 13 16 17 11 10 7 5 4 5 10 4 4 11 9 2 7 9 13 15 12 9 11 8 12 11 12 12 12 16 15 16
6 9 10 10 9 8 9 9 8 8 9 10 8 4 3 3 3 8 13 17 11 14 13 15 15 14 15 14 5 4 5 7 4 4 5 20 11 10 15 14 12 8 8 11 13 16 12 9 6 6 13 11 13 14
9 9 10 9 8 9 9 9 8 9 9 9 7 4 6 5 8 10 19 15 12 10 14 16 14 16 15 6 4 4 4 4 5 7 21 22 16 14 14 14 14 12 12 13 14 11 10 10 9 6 10 9 15 13
7 8 10 9 9 10 10 9 9 10 11 12 9 8 5 8 10 13 18 10 14 8 11 13 12 8 7 5 4 4 6 5 13 17 22 16 14 18 17 19 23 19 17 14 16 16 13 13 13 11 8 7 14 12
6 8 9 10 10 10 10 9 10 12 9 6 4 7 10 10 11 13 11 10 11 7 10 12 5 4 7 6 8 8 12 14 17 20 21 19 16 20 20 17 25 20 20 18 18 17 14 13 17 16 9 5 11 12
8 9 10 10 9 10 10 10 11 10 11 9 6 3 9 12 18 21 15 10 8 7 9 9 10 5 9 13 17 16 15 17 17 21 20 18 19 18 20 21 19 19 23 28 24 22 16 11 15 19 15 4 9 13
8 9 9 10 9 9 10 11 11 12 11 9 10 9 11 15 14 18 7 9 10 8 10 9 4 9 11 12 14 13 14 18 20 16 22 18 16 22 23 19 16 18 19 19 18 17 7 11 12 13 11 3 6 10
8 8 9 10 9 9 8 7 11 11 4 7 8 11 13 14 15 11 8 6 8 13 15 19 14 10 12 17 11 12 16 18 19 21 18 18 20 22 24 17 17 15 14 10 3 4 4 5 12 16 14 3 6 10
7 6 6 7 8 9 7 9 10 8 9 9 10 12 19 22 15 13 14 12 13 14 18 17 18 12 14 17 15 16 17 18 21 20 20 20 22 22 21 15 12 13 9 2 6 8 5 6 7 16 12 4 4 8
6 6 5 6 6 9 7 6 8 9 13 16 16 14 20 22 31 25 17 14 14 20 17 18 6 14 14 21 18 18 19 22 23 23 21 21 24 19 10 13 15 12 7 3 7 7 7 5 7 15 9 3 5 8
7 5 4 5 5 2 2 3 4 7 8 9 10 13 16 22 18 20 19 17 17 17 11 15 12 13 15 20 20 18 19 21 20 18 19 21 17 11 10 13 13 10 15 14 8 7 7 8 15 15 9 2 4 7
6 6 6 4 4 3 6 6 6 8 8 12 16 16 16 21 15 11 2 5 7 9 10 12 11 12 16 15 15 18 21 16 16 17 12 15 14 10 9 6 7 9 13 8 7 7 8 6 3 7 8 5 5 5
6 5 5 5 5 2 1 1 3 7 13 14 16 12 20 16 9 3 6 10 12 13 12 9 14 13 12 13 15 16 12 12 14 10 13 14 12 11 9 9 11 13 8 10 11 9 7 7 5 3 4 4 4 8
5 5 6 5 4 2 1 4 7 13 19 16 9 13 17 13 5 3 8 11 9 10 6 11 11 9 9 11 11 10 9 11 12 12 12 11 13 11 10 10 12 9 11 11 10 7 8 8 7 5 3 4 6 7
8 7 6 6 6 5 6 8 12 13 13 13 13 16 13 6 3 7 9 10 9 5 5 6 6 8 8 7 9 9 10 12 14 16 19 18 13 9 9 8 9 8 8 8 7 8 4 7 8 6 6 8 8 7
11 9 5 7 8 8 8 10 13 16 7 11 12 16 10 5 6 6 6 7 8 1 2 4 6 6 6 10 13 14 14 15 15 16 18 20 16 11 10 7 6 7 7 5 3 4 2 5 8 7 7 6 6 7
5 4 7 6 11 10 8 12 15 16 17 14 16 16 6 1 2 5 8 5 3 2 2 5 8 11 11 12 13 14 15 14 13 16 18 19 19 9 7 9 10 9 8 7 8 9 8 7 6 6 7 8 7 9
3 9 6 6 7 7 9 11 14 15 15 15 11 5 4 2 3 4 6 7 5 4 4 5 9 11 12 14 15 16 16 14 10 12 14 16 17 8 8 9 9 9 10 9 8 9 10 10 9 9 9 8 8 9
8 9 7 4 5 10 14 12 16 12 10 8 7 5 5 3 3 6 6 6 7 3 2 2 4 7 12 14 14 13 12 12 13 10 10 10 9 5 6 9 10 11 12 13 11 11 11 10 11 12 13 11 11 11
9 6 5 10 13 11 12 10 12 6 6 2 7 8 7 5 4 4 6 6 4 6 3 2 3 10 11 12 13 12 9 9 7 3 2 5 5 5 7 10 10 9 12 13 13 13 13 12 12 11 11 12 12 11
5 6 9 9 8 11 13 9 8 4 3 11 9 8 6 4 6 9 8 6 4 5 6 5 5 8 10 12 11 9 8 6 4 2 1 2 4 4 6 8 9 8 10 11 11 11 10 9 9 9 11 11 11 11

GFSWCAN_700_spd_069.txt.gz
Wind_Speed
21 24 20 17 16 14 13 10 8 7 8 7 5 6 7 6 6 4 5 6 6 6 5 4 6 8 7 7 4 2 1 1 1 2 3 3 3 6 6 7 7 8 9 10 11 6 7 9 9 9 10 14 18 20
17 22 20 18 17 15 10 9 8 6 7 8 6 6 7 6 7 6 6 6 5 5 5 5 5 7 7 6 5 4 2 1 1 2 2 1 2 4 5 4 7 6 8 6 8 7 7 8 10 12 13 15 17 18
22 20 18 17 15 13 9 8 7 6 7 7 6 7 7 6 6 7 7 8 6 5 6 2 4 5 6 7 5 5 5 1 3 3 3 3 3 4 4 9 10 9 10 9 8 10 9 10 11 11 11 13 14 15
22 20 17 13 13 12 10 9 7 6 6 6 6 7 7 6 6 7 7 7 6 5 2 4 6 7 6 5 5 6 6 4 7 3 5 5 9 9 10 10 10 11 11 10 11 12 14 12 10 10 11 13 15 17
20 19 16 14 13 11 10 9 8 6 6 5 5 7 7 6 6 6 7 6 6 6 4 7 6 3 4 5 6 6 7 8 10 13 14 13 14 18 17 19 22 16 13 13 12 11 11 11 9 9 10 12 16 20
18 17 16 15 16 15 13 9 9 6 4 5 5 7 7 7 7 4 4 5 7 7 5 1 1 2 1 2 5 8 9 13 17 22 24 24 18 22 17 22 20 10 11 12 11 9 10 10 10 10 10 14 17 18
17 16 17 16 14 14 12 11 10 7 5 5 7 7 7 7 4 2 4 7 10 5 4 5 2 3 2 4 8 9 10 14 15 21 19 24 24 25 35 35 19 18 11 13 10 8 8 8 10 12 13 13 14 15
16 15 17 16 11 16 12 12 10 8 5 5 7 7 7 7 5 4 7 4 6 3 4 3 0 1 4 8 7 6 7 10 14 15 17 17 19 19 24 26 25 23 18 13 9 9 10 9 11 14 11 13 14 11
17 17 14 11 13 19 12 11 9 8 5 5 6 8 9 7 5 8 7 2 2 4 2 1 6 4 8 9 10 8 6 9 10 8 10 10 13 10 24 21 19 15 13 8 9 10 13 11 15 16 13 14 14 12
13 10 11 13 19 16 12 11 9 7 5 5 6 8 6 7 8 7 4 4 2 4 3 6 8 8 9 11 9 8 5 6 5 7 9 7 7 20 21 10 19 20 11 7 8 10 13 15 17 19 18 14 15 13
7 8 15 17 13 11 11 10 8 6 5 6 6 7 10 9 7 4 3 1 0 3 2 8 10 11 11 12 11 5 4 4 3 4 4 2 12 19 18 11 0 6 10 6 7 12 15 17 17 18 16 15 17 17
12 16 17 12 9 9 9 8 7 6 6 6 7 10 11 6 3 3 2 2 2 2 6 9 12 12 15 11 5 5 5 3 4 6 5 3 7 15 17 11 7 7 9 11 14 18 18 17 16 19 18 17 18 20
10 6 4 7 9 8 7 7 6 6 6 6 8 7 3 3 5 4 2 1 5 8 11 12 12 15 9 5 7 4 3 6 6 4 4 6 9 20 17 12 12 15 17 18 20 20 19 18 19 20 19 18 18 17
2 4 7 8 8 6 5 6 6 6 6 6 6 5 4 3 5 5 1 5 9 12 13 11 11 13 13 8 5 4 5 5 3 4 3 9 18 19 16 13 14 16 18 21 22 22 21 22 18 19 20 18 15 15
4 4 7 7 6 5 5 6 7 7 7 7 5 4 3 5 6 5 5 11 15 15 10 10 12 13 8 5 4 5 4 4 4 4 14 19 17 18 16 16 17 19 19 21 23 27 25 22 23 22 19 17 15 17
15 7 6 6 6 6 6 7 8 8 10 9 7 7 7 6 7 7 9 13 19 15 10 8 10 5 4 3 6 6 5 4 10 16 18 18 21 19 20 21 18 18 22 25 27 27 25 25 29 26 28 19 17 16
15 10 8 8 8 7 7 8 9 10 7 5 4 6 11 12 9 11 13 17 17 15 12 9 6 5 7 5 8 7 8 14 14 15 18 20 20 21 18 18 21 23 23 19 18 20 22 22 19 24 26 25 20 15
12 9 7 7 6 6 8 8 9 10 10 10 11 8 8 6 6 10 16 17 19 14 11 13 13 14 11 2 5 7 14 13 13 15 16 20 21 19 20 23 22 18 15 17 17 19 20 21 23 25 29 29 20 13
6 4 6 6 6 6 7 8 9 10 11 11 10 8 6 8 10 12 13 14 15 13 15 17 13 12 9 4 3 8 8 9 11 12 16 21 19 19 18 16 14 12 11 10 12 12 13 14 16 7 16 20 16 9
5 5 7 8 6 6 5 6 8 9 7 7 7 10 11 11 12 15 18 19 22 18 20 19 15 17 7 7 7 7 7 9 11 15 18 18 17 17 12 14 13 11 8 9 10 13 15 16 6 4 6 18 16 8
8 7 7 7 7 7 7 9 8 7 8 7 6 8 9 10 11 13 15 19 25 23 18 15 5 5 5 3 5 12 14 15 16 18 16 15 14 12 12 10 9 12 12 13 14 16 17 14 9 3 24 19 12 7
7 6 6 6 7 9 8 8 8 7 7 6 6 9 10 10 12 15 19 15 11 6 3 5 4 4 7 2 6 11 15 17 17 16 13 11 11 10 9 6 7 11 12 11 12 13 12 6 10 18 17 16 11 6
7 7 6 6 6 4 3 4 4 3 7 8 10 13 15 16 13 17 11 8 5 4 3 4 4 5 4 5 8 12 14 14 13 9 9 10 9 8 7 7 9 12 12 10 12 17 16 17 21 17 15 13 9 4
7 7 6 4 3 3 4 5 4 3 5 6 12 17 19 15 13 18 12 3 2 3 8 12 9 5 5 6 8 10 10 10 9 9 8 8 7 8 8 8 10 11 11 12 13 16 16 12 11 12 10 7 5 5
6 4 4 5 5 3 3 2 2 5 7 11 19 16 14 13 16 11 5 3 4 5 8 8 2 3 3 4 6 7 8 8 10 10 8 6 7 9 8 9 11 10 10 11 13 14 11 10 9 6 5 6 7 8
5 5 4 3 4 3 3 3 3 6 11 18 12 12 14 16 6 4 4 2 3 8 6 2 1 1 3 4 4 4 6 8 11 11 8 7 7 8 8 7 6 6 8 7 8 10 10 9 7 7 7 8 9 8
6 5 5 7 5 6 6 6 6 10 16 13 15 17 9 3 3 8 2 3 3 4 1 2 4 5 5 3 3 4 6 9 13 13 12 10 9 7 7 5 5 4 6 7 7 7 8 9 8 8 8 9 9 10
9 4 4 5 7 9 11 11 12 13 12 13 15 9 7 1 2 6 7 4 1 2 1 2 5 5 4 4 6 7 8 10 12 14 14 11 9 8 6 6 6 6 7 8 8 7 7 7 7 8 9 9 9 9
5 5 7 6 7 9 10 12 12 11 15 15 12 10 3 1 2 3 5 5 1 1 0 2 4 5 5 6 7 8 9 10 11 12 13 10 9 8 7 7 7 7 9 9 10 10 10 10 10 10 9 10 10 11
6 9 8 7 9 9 7 5 9 14 13 13 9 5 1 2 3 4 3 3 3 1 2 2 2 4 5 6 7 6 6 7 7 8 9 8 8 7 7 7 8 8 9 10 10 11 12 12 12 12 11 11 11 12
10 6 5 4 3 3 5 10 11 10 11 9 9 4 4 2 1 2 3 3 2 1 1 2 2 1 2 4 5 5 4 4 5 4 4 5 6 6 7 8 9 8 10 10 10 11 11 11 11 11 10 9 10 10
5 6 7 6 4 7 9 8 7 10 11 8 2 6 5 2 1 2 3 3 3 3 2 4 4 5 6 4 4 5 3 3 3 3 2 2 5 5 5 5 7 7 7 8 9 9 9 10 10 10 9 9 9 10
3 3 4 7 9 9 12 8 6 8 7 4 5 7 4 1 2 4 8 10 9 8 9 7 7 9 8 7 5 5 4 3 2 2 3 1 2 4 4 4 4 5 5 6 6 7 8 8 8 8 9 10 10 10

GFSWCAN_700_spd_072.txt.gz
Wind_Speed
23 22 14 19 15 13 15 14 12 10 7 6 6 6 5 5 3 3 3 2 2 1 2 2 1 1 3 5 2 2 1 1 1 2 2 3 3 6 5 9 6 8 6 8 9 8 9 10 13 10 12 10 11 13
21 14 17 22 16 14 13 11 10 9 7 6 6 7 6 5 3 3 3 2 2 3 4 4 3 2 2 1 0 1 2 2 4 2 3 2 2 3 5 3 11 7 9 6 8 6 9 7 9 10 11 11 9 10
21 21 20 18 16 13 12 10 9 9 7 6 5 6 6 5 3 3 3 3 2 3 4 3 4 4 4 3 2 2 2 3 3 4 3 3 3 3 4 7 9 13 12 14 10 9 14 14 11 9 9 9 8 9
21 21 17 16 14 12 10 11 10 9 7 7 5 6 6 5 4 3 3 2 0 1 3 6 6 6 5 4 4 4 2 2 4 2 1 3 3 6 6 8 11 11 14 16 18 18 14 15 13 12 11 10 10 10
20 18 15 14 14 13 12 12 9 9 7 6 5 6 6 5 4 4 3 1 1 1 4 6 6 4 6 4 5 6 6 5 7 9 10 12 12 13 14 14 20 18 19 21 17 15 15 15 12 12 11 11 10 11
17 16 15 14 13 13 13 13 10 10 8 5 4 5 6 5 5 4 2 1 4 4 4 2 2 2 3 4 5 7 9 12 13 15 14 18 14 11 13 18 20 18 19 18 14 15 14 13 11 11 11 10 12 12
16 14 14 14 14 15 10 16 12 11 9 5 5 6 6 4 4 4 3 3 3 1 5 5 2 2 2 3 6 10 12 14 15 17 22 19 14 13 20 25 15 15 17 18 18 15 15 13 11 11 11 11 10 11
15 15 14 14 16 12 13 17 13 11 9 5 5 6 6 4 5 5 5 3 1 4 6 3 3 4 5 6 7 9 11 13 14 15 17 14 13 13 13 19 21 14 27 25 18 13 14 12 11 10 11 11 11 12
18 18 16 14 14 10 19 15 12 12 9 6 5 6 6 5 5 4 5 4 4 4 4 3 1 3 5 8 10 10 9 8 11 11 11 9 11 5 16 19 19 10 14 21 20 17 15 12 12 11 13 13 13 13
17 15 12 11 14 17 22 17 11 10 7 6 6 7 5 4 8 5 3 4 5 7 5 1 3 7 8 9 9 8 7 7 6 9 9 10 11 9 13 16 12 9 16 17 15 15 13 12 13 15 17 17 18 17
3 4 8 10 15 15 16 10 9 8 7 6 7 8 7 9 7 4 4 4 5 5 6 4 5 9 10 11 10 6 6 6 4 7 5 6 7 7 15 16 11 4 11 14 12 12 11 11 14 15 16 18 17 18
2 9 13 18 13 11 10 9 9 7 6 7 8 9 11 8 4 4 5 4 3 4 5 5 9 11 13 12 6 6 6 4 5 7 5 5 8 11 17 17 11 6 6 8 10 12 11 16 16 17 18 17 18 19
10 11 9 5 6 8 8 8 7 7 6 7 7 7 3 4 6 5 6 5 3 5 8 9 11 12 10 5 7 7 4 6 7 5 5 6 10 16 19 15 11 12 14 15 16 17 18 20 21 21 21 20 21 20
0 7 8 7 8 8 7 7 7 7 6 6 5 5 4 4 5 6 7 6 5 10 12 12 10 12 13 9 6 4 7 5 4 5 5 6 15 16 16 15 11 14 17 19 20 20 22 24 27 27 26 25 24 23
6 4 6 8 9 8 8 7 7 7 7 5 4 4 4 4 6 11 11 9 11 12 18 14 13 13 10 7 5 5 4 5 5 6 8 14 18 17 16 15 17 19 17 17 20 21 23 26 30 31 32 29 27 25
10 9 8 9 9 7 7 7 7 8 8 7 7 4 4 4 5 11 11 12 13 17 20 11 10 6 7 6 7 6 5 6 8 11 14 15 16 17 21 20 18 20 22 23 28 29 27 24 25 25 26 32 27 25
6 11 12 10 7 7 7 7 8 8 5 5 2 3 6 10 10 10 12 12 16 17 17 15 10 9 9 8 8 7 11 9 10 16 16 16 19 22 23 21 20 25 27 23 21 21 22 24 26 26 26 20 26 29
10 12 9 8 8 8 9 9 8 8 9 8 8 8 8 5 6 7 9 13 15 17 15 15 18 17 10 10 5 3 6 10 12 12 16 19 22 22 21 22 21 18 15 14 14 12 13 14 17 16 22 26 25 25
12 14 12 6 5 6 7 8 9 8 9 8 8 8 7 6 9 10 13 15 17 19 18 27 11 9 9 6 8 2 6 7 9 15 18 19 20 19 20 17 14 12 11 11 12 11 13 16 18 25 14 11 17 18
3 5 6 6 7 7 6 6 7 8 5 6 4 7 9 10 10 12 16 18 18 19 21 22 18 6 4 7 3 2 4 7 7 10 16 16 17 17 13 10 8 10 11 13 13 14 15 13 13 13 13 18 20 14
6 5 6 8 7 8 7 6 6 5 5 3 2 4 4 6 6 8 12 14 15 15 16 10 7 6 3 4 3 5 8 12 11 9 8 9 12 11 11 9 9 10 10 9 13 13 13 6 4 3 7 12 16 13
8 7 7 6 7 8 7 7 6 3 3 0 2 5 6 7 9 9 13 8 5 6 3 6 3 2 2 2 3 6 10 14 14 13 10 9 8 8 7 6 7 9 11 13 18 10 8 11 13 12 8 12 12 8
7 6 6 6 6 4 3 4 3 3 2 3 4 7 6 10 10 12 12 6 3 4 2 4 7 6 3 5 6 9 11 12 12 11 8 6 7 7 6 6 6 8 12 13 13 18 14 13 12 12 10 9 7 6
7 6 5 4 4 3 4 5 6 5 5 7 8 9 11 10 11 13 11 4 2 3 7 6 5 2 2 4 6 7 8 9 9 6 4 5 5 5 4 5 7 10 10 9 10 10 9 8 8 8 6 5 5 4
5 4 4 5 6 4 4 3 3 4 6 8 13 7 10 10 13 10 5 5 3 4 6 9 4 2 2 4 5 6 6 6 6 4 3 2 3 4 5 6 7 9 7 6 6 6 5 4 3 4 6 3 3 4
5 6 5 4 4 4 3 2 3 5 9 10 9 11 16 12 7 3 7 4 3 3 3 1 2 2 3 2 3 4 4 4 4 3 2 2 3 5 5 4 5 6 7 6 4 5 5 3 3 3 7 9 7 5
7 5 5 7 6 6 6 5 7 9 10 7 14 17 13 3 3 4 6 4 3 2 1 1 2 2 2 1 2 3 3 4 5 3 3 4 4 5 5 3 2 5 5 5 4 4 5 5 5 5 5 5 6 6
8 5 5 6 5 6 7 7 7 6 6 14 14 8 7 2 2 5 6 5 1 2 3 2 2 2 0 1 2 2 1 4 6 7 6 6 6 5 5 4 5 6 6 6 6 5 4 4 4 5 6 6 8 9
6 6 7 7 7 7 6 6 6 7 9 13 10 7 4 1 1 4 5 6 3 2 2 1 1 1 1 1 1 2 3 5 6 8 8 6 7 6 5 5 6 6 7 8 10 10 9 9 9 9 9 9 10 9
8 9 8 8 8 6 5 6 6 8 11 10 8 5 2 2 1 3 5 5 4 3 2 2 2 1 1 2 3 3 4 4 4 2 3 3 3 4 5 5 6 6 7 8 9 9 9 11 10 11 10 9 8 8
9 8 7 6 4 3 3 6 10 11 9 9 7 4 5 3 1 3 4 4 4 3 2 4 4 3 3 4 5 6 6 4 2 1 1 1 2 4 5 5 6 6 7 7 8 8 9 9 8 8 8 8 9 9
8 8 6 6 4 4 7 10 11 10 8 7 3 4 6 3 1 3 4 5 5 6 4 3 5 5 5 7 7 8 6 8 5 2 1 1 1 2 4 5 5 4 4 6 7 8 8 8 7 7 7 8 9 9
6 6 6 5 5 6 6 11 9 7 6 4 5 7 7 5 3 3 4 7 7 7 11 11 12 6 6 8 9 10 10 9 7 5 4 3 3 4 5 5 4 3 2 4 5 5 6 7 7 7 7 8 9 9

GFSWCAN_700_spd_075.txt.gz
Wind_Speed
23 23 12 9 8 13 16 15 13 10 12 10 7 6 4 3 4 4 4 4 4 6 8 5 5 3 2 4 2 11 1 2 2 3 3 5 4 5 5 8 4 7 7 10 15 16 15 9 6 9 13 8 11 11
23 15 12 13 17 16 14 13 12 11 12 9 7 6 4 3 4 4 4 5 5 7 8 6 7 6 6 6 3 3 4 5 6 4 3 3 3 4 5 3 8 7 10 9 10 6 14 8 7 18 12 12 12 11
18 19 15 17 15 13 12 11 11 11 11 8 8 6 4 3 4 4 3 4 3 2 5 4 5 6 6 5 5 3 6 8 6 10 5 4 6 6 5 9 9 10 10 9 9 9 12 11 10 10 13 12 14 15
21 18 17 15 14 12 11 10 9 11 10 7 8 6 4 4 4 4 3 3 3 4 4 10 11 9 7 7 8 6 6 6 3 2 4 7 7 7 7 11 12 10 11 11 14 13 9 13 15 13 13 14 13 13
20 18 17 15 12 12 11 10 11 11 8 7 7 6 4 5 5 4 3 3 3 5 7 4 6 8 6 7 6 7 6 5 3 4 6 8 8 11 14 14 16 15 16 17 16 8 15 12 16 15 16 14 13 13
18 17 15 14 13 12 11 10 11 11 9 8 7 5 4 4 5 4 4 4 3 5 5 1 12 6 5 6 6 7 8 9 9 7 11 15 14 13 10 14 14 15 19 21 18 16 16 14 17 16 15 14 14 14
17 16 14 13 11 12 14 15 15 15 11 9 7 5 4 4 5 6 12 6 4 4 6 2 4 7 5 4 4 5 8 12 11 18 17 15 17 17 19 22 10 13 16 21 20 25 19 16 15 16 15 14 15 14
18 16 15 14 11 13 15 11 19 16 11 10 7 6 4 4 5 8 8 7 6 7 7 3 6 7 4 2 7 5 12 13 14 11 15 14 16 16 14 9 14 16 20 20 20 21 16 14 14 15 14 14 14 15
19 18 16 16 13 15 14 16 22 13 12 9 7 6 5 5 5 5 8 8 10 11 6 6 5 7 5 5 9 7 9 13 14 16 14 10 15 12 12 11 16 20 20 16 29 23 18 17 15 16 14 15 14 14
14 14 12 10 12 14 14 23 23 12 9 7 6 6 5 2 5 7 6 9 11 11 12 8 8 7 4 8 10 9 9 7 8 11 11 13 18 12 11 12 17 16 12 10 12 21 21 19 18 16 16 14 16 17
5 1 3 7 10 12 18 20 17 8 7 6 7 8 7 7 8 6 5 7 7 5 9 10 8 6 7 8 9 7 6 5 5 6 6 8 14 4 9 11 15 13 9 8 9 9 15 23 19 18 19 21 22 21
7 2 3 5 8 10 18 11 6 7 7 6 8 8 9 9 5 5 5 6 5 5 8 8 10 7 11 11 9 7 6 4 4 5 5 6 8 6 8 11 10 9 6 7 11 12 13 13 19 24 22 21 22 22
11 10 12 9 8 9 5 5 6 6 6 6 6 7 4 5 6 5 5 4 5 5 6 8 10 11 12 11 7 7 5 6 5 6 7 11 7 7 9 10 9 9 9 12 14 16 21 23 23 27 30 28 23 25
1 5 7 5 4 5 5 6 6 6 6 4 5 6 4 4 4 5 7 5 4 5 8 13 13 12 12 10 8 5 6 4 4 5 11 7 11 7 15 16 9 8 9 12 15 16 18 23 24 26 28 27 29 28
6 7 8 9 7 7 7 6 7 7 7 5 5 5 6 6 6 8 8 6 9 8 12 15 21 12 13 10 6 5 4 3 6 9 10 12 6 18 20 14 12 12 10 9 14 16 18 18 21 21 26 29 32 33
11 9 8 9 9 8 7 7 7 8 9 9 9 5 5 5 5 7 9 11 13 12 17 18 15 8 10 7 8 8 5 7 2 6 4 15 20 20 20 17 12 11 12 13 16 18 17 16 17 19 23 25 25 27
6 7 11 12 10 9 7 7 8 8 6 7 4 6 9 9 9 11 11 10 14 15 16 13 7 6 8 4 7 7 7 5 6 11 17 21 18 18 20 13 13 16 17 15 12 14 15 13 16 17 17 19 21 24
8 10 10 14 10 8 7 8 8 8 10 9 10 8 8 10 10 9 10 15 15 14 13 11 19 23 10 7 8 1 5 6 7 12 17 14 16 18 16 15 17 16 12 10 11 14 18 19 19 22 23 27 31 23
9 9 8 8 8 5 7 7 9 10 10 8 10 11 11 10 10 11 11 13 16 17 18 17 9 16 12 4 4 6 0 4 9 10 14 15 19 18 14 12 10 12 12 14 12 10 14 19 20 22 28 17 8 19
3 8 10 7 3 5 5 7 8 9 5 4 9 8 9 10 11 9 10 15 15 14 14 13 16 5 2 7 8 5 2 5 5 9 12 18 19 15 16 5 7 12 13 12 19 17 14 13 11 15 15 7 12 12
3 0 1 3 5 7 8 7 8 7 7 9 6 8 10 11 9 10 11 11 12 10 10 4 5 4 5 5 3 7 7 4 5 5 6 6 11 2 5 9 10 9 9 11 16 14 8 6 5 5 6 10 20 19
4 4 5 6 6 8 9 10 9 11 10 8 9 11 9 12 9 7 6 9 8 5 4 3 1 3 5 4 4 7 7 10 9 7 3 3 3 3 3 5 6 6 7 8 13 12 10 11 9 12 8 7 16 15
10 8 7 7 6 5 5 7 8 5 7 5 8 9 8 6 5 7 6 7 7 5 4 4 7 9 6 5 7 8 8 8 5 5 3 1 3 3 4 5 4 8 7 8 9 9 8 10 13 9 13 14 8 7
8 7 6 5 6 5 6 7 7 5 7 10 9 6 7 6 7 8 7 6 6 5 5 5 5 3 3 4 1 5 6 5 4 4 3 3 2 2 4 4 6 5 8 7 9 7 6 7 7 7 3 5 3 4
7 6 5 7 6 5 6 4 4 7 6 5 11 9 7 8 6 6 6 5 5 7 4 3 3 5 7 4 4 5 5 2 1 4 2 3 0 4 3 2 4 5 4 6 7 8 4 5 4 5 4 3 3 5
7 7 5 3 3 2 2 3 5 2 7 7 8 10 15 11 5 2 3 5 3 4 3 2 6 4 7 5 3 3 4 4 5 3 2 2 4 3 1 2 3 4 4 4 3 3 4 3 5 5 5 9 10 4
7 5 7 9 9 6 6 4 6 7 7 7 11 11 6 4 3 1 3 2 3 3 5 8 8 7 6 4 2 4 4 4 3 3 2 2 4 6 3 3 4 1 3 3 4 3 3 4 5 5 5 7 7 6
8 6 9 5 8 6 7 7 5 5 5 9 10 5 2 1 1 2 2 4 1 2 6 7 7 7 6 3 3 3 3 3 3 1 1 2 2 3 4 3 1 2 5 2 4 4 3 3 3 3 4 4 5 4
10 7 7 9 8 7 6 5 5 5 11 12 10 5 3 2 2 1 4 5 3 2 4 6 6 4 2 1 1 2 3 3 2 1 3 1 1 1 2 3 4 6 4 5 6 6 6 5 4 3 4 7 8 7
10 10 9 7 7 7 4 6 7 8 9 8 7 3 2 4 3 3 4 5 4 2 4 7 6 6 4 3 2 0 0 2 2 1 1 2 5 3 2 3 4 3 2 2 5 7 6 6 12 14 9 4 3 4
7 8 10 10 9 7 8 8 9 12 10 7 5 4 8 5 1 1 3 3 1 6 7 7 7 7 7 6 6 4 4 3 4 4 3 5 5 4 4 4 4 4 3 2 2 1 3 5 1 2 4 3 6 6
10 11 10 8 4 9 6 7 8 10 8 7 5 5 7 7 5 2 1 4 1 8 8 10 10 9 9 8 8 8 3 7 9 6 5 4 5 5 5 5 4 4 3 2 2 1 3 3 3 2 5 6 4 5
8 8 9 10 10 10 9 9 9 8 6 6 4 8 8 7 9 9 4 3 4 5 10 13 12 11 12 11 10 10 10 8 10 9 8 7 6 5 6 6 6 4 2 2 1 2 4 5 4 6 5 6 6 8

GFSWCAN_700_spd_078.txt.gz
Wind_Speed
23 26 17 12 3 6 12 14 12 11 9 10 8 7 5 5 5 6 4 6 8 9 8 9 5 4 1 1 5 5 4 3 3 3 2 6 3 3 4 7 4 3 8 10 15 17 8 10 7 7 12 14 18 25
20 18 14 14 15 16 15 12 11 11 11 11 9 7 6 5 6 6 5 6 7 14 4 9 6 7 9 8 4 2 4 5 3 1 4 4 3 4 5 5 4 8 5 10 6 8 8 8 5 14 12 11 15 17
17 18 18 16 16 14 11 12 10 10 8 8 8 5 6 5 5 6 4 4 6 5 6 6 6 7 6 4 4 3 4 7 8 11 1 5 5 6 7 7 9 10 10 8 11 11 10 8 8 14 20 12 17 13
20 19 17 15 14 12 10 10 9 6 8 7 7 6 6 5 5 6 5 4 6 8 1 12 16 15 9 7 7 7 6 9 5 1 5 8 7 7 8 10 12 10 9 11 14 14 10 10 12 11 13 14 16 18
19 18 16 15 13 12 10 10 10 9 9 8 6 5 6 6 5 5 5 6 6 10 9 2 9 5 3 6 8 7 5 4 5 9 8 9 9 10 13 17 17 13 14 18 17 12 12 15 15 18 16 16 15 16
18 17 15 14 12 11 10 11 10 9 11 10 7 5 5 5 5 5 5 7 8 9 15 2 13 15 9 7 6 7 7 8 7 6 9 9 12 12 9 15 14 13 22 18 17 19 16 16 14 16 19 19 17 17
19 16 15 13 11 11 11 12 13 12 14 10 8 6 5 5 6 8 12 8 7 6 9 3 8 12 6 8 4 5 10 10 8 13 12 13 19 16 19 22 15 15 13 21 22 23 31 19 20 24 23 22 20 16
20 18 17 15 13 13 12 13 16 15 22 12 11 6 5 5 6 7 10 10 9 7 7 5 7 10 9 3 8 10 9 10 16 11 16 15 17 20 19 15 12 13 15 19 21 26 27 28 26 19 19 19 20 20
20 19 18 16 15 14 13 17 16 19 20 12 7 6 4 5 5 3 9 11 11 13 10 6 8 9 8 9 10 7 14 15 16 17 19 15 17 17 14 15 8 13 19 21 19 21 23 24 14 16 19 20 18 16
15 10 8 10 11 11 16 15 19 21 14 11 7 3 2 1 2 5 8 10 12 17 19 16 9 14 9 13 15 15 17 11 10 10 9 16 23 17 15 9 7 22 19 15 14 12 18 23 19 20 21 19 18 15
9 5 6 3 8 10 12 13 17 22 15 10 5 4 3 6 7 7 5 5 7 7 10 12 12 14 14 12 15 12 9 6 7 9 7 7 13 5 1 3 14 16 17 11 7 4 8 11 36 22 24 24 20 17
14 9 6 4 3 3 7 12 16 12 8 4 4 4 5 6 5 4 4 4 6 6 8 8 11 11 14 13 14 8 11 6 6 8 5 7 13 11 10 12 13 11 16 9 8 6 13 10 10 11 18 19 21 25
7 8 8 12 14 10 8 7 6 5 5 4 3 3 2 4 6 4 4 5 5 4 8 10 10 13 17 16 11 8 6 7 4 5 6 9 4 6 9 5 10 13 13 13 9 15 15 19 23 21 25 24 32 36
6 4 3 5 3 2 1 3 5 5 5 4 2 5 5 4 2 6 5 7 8 10 13 8 13 9 12 21 9 5 8 6 4 6 12 6 13 16 7 7 8 10 12 12 17 11 21 15 23 24 21 27 29 31
6 7 9 9 8 6 5 5 5 6 7 5 4 6 7 5 7 7 10 13 10 13 15 13 11 14 15 8 7 8 6 4 4 7 10 11 5 9 7 10 13 11 17 17 17 16 19 20 26 25 26 25 28 30
10 11 10 9 8 8 8 7 7 7 9 10 10 6 5 5 5 7 14 7 13 16 10 16 14 6 7 3 3 1 3 6 1 13 7 3 5 14 20 18 17 13 15 13 14 21 23 25 26 27 25 25 25 27
12 8 9 10 12 11 9 8 8 9 6 7 6 6 10 11 11 9 9 9 12 15 18 11 6 4 6 7 4 4 4 4 6 12 6 12 21 18 20 20 18 13 11 8 16 15 13 15 17 17 21 21 21 23
13 10 9 10 14 13 10 10 11 9 12 11 12 10 11 11 12 12 12 12 16 22 15 12 9 12 9 8 7 2 5 4 10 11 12 17 15 19 20 18 14 11 13 14 13 9 15 18 20 21 23 26 28 30
9 8 6 5 11 12 10 9 12 11 10 9 10 11 13 14 15 13 10 18 16 20 12 14 8 10 12 6 5 7 2 5 4 6 20 21 18 16 13 9 10 12 14 16 7 15 20 19 18 18 20 24 20 11
6 7 8 11 9 8 7 6 10 11 6 8 9 12 11 13 12 15 13 22 15 15 15 12 11 12 4 3 8 6 4 2 4 9 11 11 14 17 16 11 10 14 10 11 15 24 17 13 13 15 16 6 10 15
4 3 4 5 6 8 9 6 8 9 9 11 12 10 13 12 23 27 22 6 7 9 8 6 6 6 12 10 8 5 6 11 8 8 3 6 1 4 4 8 6 5 7 13 7 9 10 11 14 15 14 16 23 21
5 4 4 5 6 9 12 11 10 12 13 12 11 10 11 20 16 9 7 8 9 8 4 5 1 6 6 7 8 9 7 7 8 5 3 6 1 1 2 3 4 5 7 6 7 9 11 11 14 19 15 15 16 10
9 8 7 7 6 6 6 8 10 10 8 6 7 13 15 16 10 4 7 7 8 4 4 3 3 3 5 8 9 7 5 5 2 0 4 2 1 4 3 3 5 6 10 11 7 8 7 8 8 7 8 7 6 5
10 9 7 4 6 6 4 7 6 4 6 8 12 11 8 11 5 6 6 5 6 7 3 4 2 4 4 3 0 3 2 3 4 2 4 4 0 3 4 2 4 5 9 8 11 10 6 7 8 13 10 12 8 9
9 7 7 8 7 5 3 5 4 6 8 9 12 14 8 6 7 5 3 5 6 5 6 4 3 2 9 5 7 6 1 4 3 4 4 7 3 5 2 1 3 4 4 10 7 8 7 7 5 3 3 6 6 5
8 7 6 4 4 3 3 3 4 4 4 8 6 10 12 10 2 1 2 6 6 5 4 4 6 8 7 7 6 3 2 4 4 5 3 5 5 3 2 1 2 3 2 2 3 3 4 3 5 8 12 11 11 6
10 6 8 11 11 9 4 5 8 9 9 5 8 9 3 2 0 0 1 2 1 3 9 7 3 5 9 6 7 4 2 1 2 4 3 4 6 7 3 4 7 9 1 2 2 3 3 4 5 6 4 5 5 3
11 6 6 7 8 7 7 6 7 7 4 3 9 9 2 0 1 1 2 5 4 6 7 8 8 8 8 8 4 2 1 2 2 3 2 3 5 7 6 9 5 5 1 1 3 6 2 2 2 3 4 5 5 7
11 8 8 9 9 8 8 6 6 4 9 11 10 8 3 4 4 4 1 1 3 7 8 8 9 9 8 5 2 1 1 1 1 0 3 2 2 3 3 1 1 1 3 4 4 4 3 3 4 4 4 3 4 5
10 9 10 10 9 8 6 6 4 6 7 6 11 5 4 7 4 7 1 2 4 6 8 7 7 8 7 6 6 5 4 5 1 2 2 3 5 6 5 3 1 4 1 6 9 9 10 6 9 12 8 7 6 6
6 7 10 11 11 9 7 8 8 10 11 9 11 7 8 10 6 5 3 1 3 6 7 8 8 8 7 7 7 7 6 7 9 9 8 5 8 10 7 6 4 4 4 6 5 4 8 8 6 6 7 8 11 9
13 13 10 9 8 6 9 9 10 15 9 10 8 10 12 12 12 9 6 2 7 7 7 7 7 7 8 8 8 8 7 9 13 9 4 5 8 8 6 6 5 5 4 2 2 1 4 3 3 6 6 7 11 15
11 11 11 11 11 10 10 11 13 15 10 7 9 11 15 14 17 20 14 6 6 7 6 7 12 12 13 13 10 11 16 13 13 9 7 7 7 6 6 6 7 7 6 4 2 4 8 7 5 9 8 8 9 12

GFSWCAN_700_spd_084.txt.gz
Wind_Speed
23 22 21 18 14 12 10 12 12 12 9 10 10 7 7 7 6 9 12 14 20 13 13 10 11 11 11 9 7 5 4 3 6 3 2 2 2 4 3 5 3 4 4 4 6 6 9 8 8 11 13 11 23 26
23 21 20 17 15 12 11 12 13 13 11 11 11 9 9 8 8 9 10 13 19 19 10 2 3 4 11 12 13 9 6 6 4 5 4 2 2 4 3 4 5 6 7 8 6 6 8 6 8 11 14 14 22 25
21 21 19 16 14 13 11 11 11 10 9 11 14 13 10 10 8 9 10 9 15 20 17 12 2 7 6 9 17 12 9 7 7 9 6 4 5 4 7 6 5 6 6 9 11 11 11 11 9 12 15 14 18 20
21 20 19 16 14 12 11 10 9 8 5 4 8 10 9 10 9 9 9 10 11 12 15 8 4 3 9 5 12 14 16 14 10 11 11 11 7 7 10 10 13 13 14 15 16 14 15 20 21 20 18 20 21 23
20 20 18 16 13 12 11 10 9 8 9 9 8 10 10 11 9 9 11 11 10 13 12 11 7 2 2 9 4 7 8 10 9 8 10 15 14 12 16 18 20 20 19 21 22 21 20 20 21 20 20 21 23 25
20 19 17 16 14 12 11 10 9 9 11 11 13 12 11 10 10 10 9 11 11 14 11 11 7 5 5 7 3 7 9 10 8 9 12 15 20 16 12 17 14 17 19 20 25 23 23 21 21 24 25 25 25 23
20 19 18 17 16 13 11 10 9 9 11 10 12 13 11 10 9 9 8 9 12 14 17 8 4 8 8 5 9 7 5 6 8 10 10 10 13 16 21 19 9 11 14 18 18 20 22 23 25 27 29 29 25 26
19 19 18 15 14 14 12 11 10 9 12 7 12 12 10 8 8 9 11 10 12 13 14 9 6 9 7 8 7 8 7 9 13 15 16 15 15 15 17 9 9 13 16 21 21 22 23 21 23 25 26 30 36 34
17 16 13 11 9 12 13 12 13 10 10 15 17 11 10 11 8 11 11 12 15 16 10 13 11 7 8 7 8 9 11 16 19 22 21 17 19 17 16 15 12 14 15 15 15 17 23 30 30 27 25 26 31 32
14 13 10 6 3 8 11 12 11 9 11 14 14 13 12 9 6 7 6 8 12 17 22 20 14 11 8 7 12 13 17 16 15 15 14 19 24 15 11 13 17 17 16 13 16 20 22 18 16 16 17 25 28 31
12 13 8 4 1 4 6 3 7 8 9 11 19 12 9 6 4 5 5 6 9 7 10 11 17 17 11 11 10 11 9 7 8 9 12 8 12 12 12 10 12 13 10 11 17 18 16 11 10 13 16 16 30 38
9 12 15 13 1 7 9 11 9 7 15 18 14 10 8 6 5 5 4 5 3 5 7 7 4 21 19 15 15 10 11 7 6 7 8 7 13 11 10 8 6 7 10 15 20 17 17 14 15 19 20 17 19 24
6 4 5 10 15 15 12 16 17 18 18 13 9 7 5 5 7 4 6 4 5 9 9 9 7 10 17 17 10 8 6 6 9 7 7 11 6 7 10 8 14 11 15 19 17 17 15 16 19 20 21 16 13 16
7 3 3 2 4 7 9 10 9 9 10 10 7 4 4 5 3 3 6 5 3 4 6 9 7 8 12 12 9 6 7 7 6 7 6 5 5 6 12 16 16 13 16 17 19 20 21 22 21 20 19 20 20 18
8 4 7 8 7 2 3 6 8 9 10 6 5 6 6 4 6 5 7 11 11 9 10 10 6 8 9 8 9 8 5 6 7 6 7 5 7 10 13 10 12 16 17 21 24 25 25 21 18 21 21 21 24 25
7 6 8 8 5 10 8 9 10 11 12 11 10 6 7 9 3 2 5 10 10 11 10 7 5 6 8 5 7 7 6 7 8 9 6 10 11 2 8 13 15 16 17 19 20 20 20 22 22 22 22 23 25 27
10 7 7 6 8 10 9 12 12 12 8 9 6 10 12 11 6 1 3 10 8 7 13 8 7 5 5 7 8 10 11 12 7 5 5 6 6 9 7 7 8 11 12 9 8 9 8 14 18 17 18 20 23 24
5 7 10 9 9 10 11 15 13 12 16 15 13 8 9 7 3 3 10 12 10 9 6 9 10 14 12 13 15 15 13 13 10 7 10 6 7 9 12 9 6 5 6 7 8 12 19 16 13 14 16 16 14 13
10 8 6 6 8 11 13 12 15 14 16 11 7 13 13 13 12 10 12 15 15 17 21 23 10 10 13 15 16 18 12 12 9 7 7 8 11 7 14 10 7 8 13 15 19 20 13 11 13 14 10 9 10 12
6 5 6 8 10 10 9 6 7 9 6 3 5 10 11 12 12 12 14 16 18 22 24 25 27 29 20 17 15 14 13 10 10 8 7 7 8 13 15 13 10 9 13 18 18 9 9 10 13 14 9 9 10 16
4 7 7 8 8 8 9 9 10 6 4 4 7 13 13 13 9 10 16 23 23 25 27 23 13 14 12 13 10 12 12 14 13 11 11 13 14 13 16 12 11 12 17 18 7 6 6 6 6 10 9 8 8 11
7 7 5 3 3 5 7 12 11 12 11 5 4 11 11 11 14 17 19 20 20 11 10 14 16 9 8 11 9 9 12 14 17 18 19 18 16 15 11 8 8 14 14 12 8 5 4 4 3 4 7 5 8 9
8 8 6 4 4 5 3 3 4 6 6 6 4 4 7 14 19 21 23 24 13 9 13 12 7 7 9 10 9 11 12 12 13 15 12 10 10 10 10 11 10 7 8 10 9 5 2 4 6 9 10 8 11 6
11 9 7 5 5 3 4 5 5 2 4 4 8 8 8 8 6 9 10 11 11 11 11 9 10 12 13 13 13 13 13 15 12 8 8 9 11 13 13 10 9 7 10 10 9 9 7 7 9 9 10 13 12 7
12 10 7 8 7 5 2 2 4 6 5 5 8 7 7 7 5 4 4 4 8 9 11 11 13 12 13 13 12 9 7 6 5 4 5 5 3 4 2 3 5 7 11 14 13 10 9 8 7 9 10 10 12 10
9 9 7 6 7 4 2 2 4 5 2 5 4 3 7 8 3 4 4 5 6 7 11 11 12 11 12 14 8 1 7 7 7 6 4 6 6 6 3 6 9 8 10 14 15 10 6 5 6 6 9 9 10 9
13 8 10 10 9 7 6 4 5 4 5 4 8 8 7 4 4 5 5 3 5 4 7 9 12 12 9 6 2 5 10 9 8 7 11 12 11 7 8 10 13 13 14 13 15 11 7 5 8 9 8 5 7 9
11 7 10 12 12 10 10 6 5 8 3 6 10 8 4 6 6 6 8 8 7 4 10 12 13 15 9 5 8 12 13 11 10 10 12 13 13 13 14 15 17 17 17 16 15 11 7 7 8 8 6 7 8 8
11 7 13 13 9 4 6 4 4 4 11 19 18 10 8 12 10 10 7 8 6 5 12 13 13 12 13 14 15 16 16 11 8 8 10 12 9 4 3 9 11 11 10 7 7 5 4 2 4 5 6 6 7 7
8 11 15 15 11 10 4 2 5 3 4 14 12 8 7 9 7 8 8 12 15 10 10 6 8 11 14 16 17 15 9 7 4 2 4 4 3 4 4 1 3 6 7 6 4 1 3 3 2 3 6 9 11 13
13 12 13 11 10 9 2 3 4 12 11 12 14 17 17 18 23 14 10 11 9 11 14 14 11 8 6 4 4 5 1 0 4 6 8 10 10 11 9 8 8 7 9 7 6 3 1 1 3 7 11 11 9 8
14 14 10 6 3 2 4 6 5 13 17 19 21 22 25 30 34 25 20 13 10 13 11 8 8 5 4 4 6 6 8 9 5 7 9 10 12 9 10 11 11 9 9 6 5 4 1 6 9 12 14 13 11 6
5 8 5 5 9 11 8 8 12 16 17 18 21 25 28 19 6 16 30 29 24 22 21 19 14 15 10 9 7 5 7 11 13 6 7 11 13 12 8 9 11 11 11 6 8 6 3 4 10 13 11 11 10 9

GFSWCAN_700_spd_087.txt.gz
Wind_Speed
24 23 20 18 16 14 12 12 13 14 12 10 8 8 8 7 9 11 12 18 17 17 15 11 10 9 9 9 7 5 2 7 7 6 5 3 3 5 6 6 4 4 5 6 6 4 6 6 11 15 15 16 15 17
24 21 18 16 15 15 13 13 13 13 13 12 12 11 12 13 10 10 11 15 19 20 13 13 5 9 10 12 11 10 7 4 5 6 4 3 4 4 6 5 12 7 9 5 5 4 5 5 10 11 11 13 15 18
22 19 17 16 15 14 13 13 13 12 10 10 12 14 14 14 12 10 11 14 18 22 19 14 3 6 2 5 10 11 8 5 6 7 6 7 5 7 7 9 9 10 10 8 10 11 13 12 11 10 10 11 10 13
20 19 18 16 15 14 13 12 12 11 8 7 7 13 16 15 12 11 12 13 12 17 20 10 12 6 2 1 6 8 11 10 10 10 12 13 11 8 9 10 9 10 11 13 14 15 15 16 15 16 14 15 15 14
19 18 17 16 15 15 13 12 11 10 8 8 6 8 12 13 12 11 12 12 11 13 10 16 12 9 3 4 2 1 4 6 8 9 10 14 16 15 15 17 19 18 19 20 20 17 17 16 15 16 17 16 17 24
18 18 17 17 16 16 14 13 11 11 11 11 10 10 11 12 12 10 10 12 11 14 9 12 13 7 5 1 1 5 7 7 8 8 9 12 15 15 12 18 17 16 20 23 23 21 20 18 17 18 18 21 22 23
18 18 18 17 17 17 16 14 12 11 11 13 12 14 13 12 11 11 9 9 12 14 13 10 7 10 8 5 5 7 6 3 3 5 7 8 9 12 21 24 16 13 13 14 17 18 18 18 21 22 23 24 26 28
17 17 17 16 14 14 15 14 13 11 11 12 11 13 12 12 9 11 11 9 11 15 17 9 8 9 9 7 6 7 6 6 9 10 13 12 15 16 15 7 7 11 15 16 18 19 20 23 23 20 21 24 30 32
15 15 14 13 11 10 12 13 13 13 11 13 11 12 11 12 10 10 11 12 13 16 11 14 15 12 10 11 10 10 9 12 14 18 19 16 19 16 15 15 13 12 13 14 14 16 18 18 20 22 23 25 28 31
11 11 10 10 8 6 11 12 12 13 12 13 15 16 13 10 9 12 9 10 14 19 22 17 15 14 10 11 12 10 9 8 12 16 14 18 24 18 15 13 10 14 15 16 14 12 15 18 18 18 18 18 21 23
6 9 10 6 4 5 10 12 12 13 13 16 12 16 10 13 11 8 6 7 10 8 13 18 21 17 16 13 12 9 7 6 8 9 10 10 16 13 11 11 12 14 16 12 10 9 14 16 16 13 14 17 18 18
4 7 11 11 4 8 7 9 7 9 13 16 16 12 10 9 6 4 5 7 6 9 8 7 8 21 21 18 14 10 13 7 6 7 7 7 18 10 12 9 7 7 6 10 12 15 17 17 18 16 17 19 18 19
6 3 3 9 10 6 6 8 8 13 15 17 15 13 8 10 10 7 6 5 5 10 12 8 6 8 21 20 13 8 7 7 8 7 7 13 11 8 8 7 8 10 12 14 16 18 18 20 19 20 19 18 21 20
8 8 6 3 5 10 14 14 14 17 15 11 8 7 6 5 4 4 8 10 9 4 5 4 10 6 10 12 11 6 8 6 6 7 16 12 7 6 6 6 9 13 14 16 18 19 21 24 29 27 19 16 19 21
11 7 7 8 7 6 6 8 9 10 13 8 6 5 5 5 10 6 3 2 3 5 6 7 11 14 10 8 6 7 5 5 7 9 8 7 7 6 9 11 13 13 14 18 17 21 26 28 26 18 17 21 24 25
11 12 9 10 10 10 9 8 9 10 12 11 8 4 8 11 9 5 2 0 2 9 6 8 7 5 8 6 7 7 6 8 13 10 7 7 8 4 5 10 13 16 19 22 21 18 14 13 11 14 17 20 22 23
7 10 7 8 10 11 9 12 13 13 8 8 8 11 14 11 11 7 6 5 2 5 7 6 7 6 4 7 7 10 13 15 14 10 8 5 4 3 6 8 11 14 15 12 9 8 9 13 14 12 13 16 20 22
7 8 9 13 11 9 13 11 12 13 16 15 13 6 11 13 15 12 8 5 7 8 9 11 13 13 12 15 21 18 14 16 15 11 8 8 6 7 8 9 10 8 3 4 7 12 13 10 10 12 15 18 18 19
8 11 8 11 11 11 12 11 15 15 16 14 13 13 18 19 18 14 10 7 10 11 13 16 12 15 19 18 20 23 19 16 11 11 11 7 6 8 9 11 6 5 7 13 17 14 8 9 11 13 13 13 12 14
7 6 8 8 11 12 12 12 10 10 5 6 7 12 18 17 17 16 16 13 11 15 19 23 26 28 24 26 28 18 16 10 10 8 4 4 6 10 12 11 8 9 12 17 16 8 7 8 9 9 9 9 10 15
8 6 8 9 7 7 10 7 9 6 5 8 8 11 14 18 15 14 15 16 17 20 26 26 26 26 19 16 13 10 8 9 5 4 6 8 12 13 12 9 9 11 15 16 11 8 7 7 8 10 11 9 10 11
6 4 4 5 5 7 9 13 12 12 10 5 6 13 17 19 18 19 19 21 23 22 23 20 12 10 11 12 7 7 7 6 5 7 9 12 14 12 5 4 9 11 14 14 9 5 4 4 4 5 6 6 7 6
13 7 6 5 5 5 3 7 8 9 9 5 6 8 11 13 16 20 25 27 27 25 18 14 9 8 9 8 6 5 6 7 8 9 11 12 11 6 4 5 8 10 11 10 9 5 3 2 3 3 8 10 7 4
8 6 5 5 6 3 6 7 6 4 5 8 11 12 12 14 12 14 16 15 18 15 12 12 11 10 9 6 6 6 8 10 13 13 9 6 5 3 4 6 5 5 8 12 9 6 2 2 5 6 8 10 10 5
11 9 7 8 7 6 5 4 7 11 9 7 12 10 7 8 9 7 8 4 4 8 12 11 10 10 8 8 9 10 11 11 10 8 5 5 5 6 5 4 2 3 6 10 11 10 6 5 4 5 7 7 8 6
9 7 7 6 9 5 6 1 4 8 10 3 6 4 7 8 6 4 7 6 5 6 7 10 12 11 10 11 11 9 6 4 3 4 5 3 5 5 5 4 3 3 5 9 12 13 12 7 6 8 9 6 5 6
10 7 12 10 10 9 4 9 6 4 7 5 4 3 5 4 4 5 7 7 8 6 5 6 8 7 5 12 11 6 2 4 5 4 6 7 5 5 7 5 3 3 7 11 12 13 11 10 8 8 5 5 7 7
15 11 12 10 15 14 10 5 6 3 3 3 5 13 5 3 9 7 7 7 7 5 3 5 8 10 11 9 3 3 5 8 11 10 11 10 9 10 11 8 7 9 10 11 11 10 9 8 6 4 4 6 7 6
13 11 11 14 16 15 12 8 4 1 5 9 10 13 5 6 9 6 4 6 9 10 6 3 6 9 8 7 5 3 7 12 14 12 11 11 10 7 8 9 10 11 11 10 8 7 6 3 2 3 3 5 7 8
9 12 14 16 17 16 11 7 4 2 6 6 12 16 11 9 4 5 13 14 11 11 8 4 3 2 2 3 3 6 12 15 10 6 5 5 7 8 7 5 3 5 5 6 6 6 3 1 2 2 4 6 3 4
12 15 14 17 18 14 6 7 6 5 6 11 12 10 13 16 17 20 24 21 21 16 7 7 4 2 2 3 6 7 2 4 4 5 6 8 6 3 2 3 2 4 4 5 8 7 4 2 1 2 3 4 3 2
12 11 12 11 9 7 7 7 8 8 9 12 12 15 16 20 23 26 26 20 22 14 9 7 5 1 4 4 4 3 1 4 3 1 2 5 8 9 5 5 5 7 8 9 11 10 8 5 5 2 4 6 4 3
7 11 9 6 5 7 5 7 8 10 12 12 16 18 20 20 20 23 15 19 26 27 28 24 18 16 16 9 5 3 6 5 6 8 4 0 3 6 11 9 6 10 9 10 11 11 11 10 6 3 4 5 5 6

GFSWCAN_700_spd_093.txt.gz
Wind_Speed
28 29 28 24 24 20 17 14 13 12 11 14 13 11 11 10 10 12 15 16 17 17 13 13 9 5 4 4 3 2 1 3 5 4 5 5 5 8 7 8 8 9 7 8 8 6 7 10 11 9 8 9 10 5
28 29 28 25 24 19 17 15 13 12 12 13 14 14 14 14 12 13 15 18 21 19 14 15 13 10 9 10 9 8 5 3 3 2 3 4 4 6 8 5 11 7 7 6 6 6 7 6 10 11 12 11 10 11
28 29 27 25 23 18 17 15 14 12 12 13 14 15 18 18 17 14 14 18 21 21 18 15 13 12 8 5 7 9 7 5 4 5 4 4 4 4 5 8 8 11 11 10 10 11 10 9 8 10 11 13 15 13
28 28 26 23 20 18 16 15 13 13 12 13 14 15 17 18 18 17 14 17 20 23 23 16 17 12 8 7 7 8 10 9 8 7 6 7 7 6 6 7 7 10 9 10 12 12 12 12 12 14 15 15 16 15
26 26 22 20 19 17 17 15 13 13 13 14 14 13 14 16 15 15 15 17 19 21 13 23 13 11 13 9 7 6 7 7 8 9 9 8 9 11 12 14 14 12 13 14 13 11 13 11 12 13 12 13 14 16
21 21 19 18 21 20 17 16 14 14 15 14 14 12 10 12 13 12 14 17 19 19 14 11 19 16 14 11 7 6 4 5 7 8 8 9 8 8 8 12 7 5 9 13 15 15 15 14 12 11 11 12 12 13
18 18 15 15 24 20 17 16 15 15 16 15 15 14 11 12 13 13 12 15 17 16 15 10 9 18 16 14 11 8 5 4 4 5 5 7 8 11 16 18 11 14 14 16 17 14 13 13 13 12 13 15 16 17
16 15 15 20 21 19 16 14 16 16 15 15 16 16 13 12 13 13 13 11 16 17 18 8 8 17 21 17 15 11 7 6 6 8 9 10 12 15 16 11 9 9 10 10 12 13 12 12 13 15 16 18 19 22
17 16 16 17 17 16 12 10 15 16 15 16 16 15 13 13 13 12 13 12 13 17 12 12 14 11 19 19 16 12 9 8 11 14 15 13 16 14 10 10 11 13 11 11 13 15 15 15 16 17 17 19 18 20
16 14 13 15 17 11 5 10 14 15 16 16 16 15 14 14 12 11 11 12 11 17 21 15 16 13 13 19 18 12 6 5 8 12 11 15 21 12 14 16 19 17 17 13 14 14 13 14 15 15 15 15 15 16
13 12 11 13 7 3 2 10 14 16 17 18 18 15 11 12 10 9 7 8 9 8 12 20 19 18 14 14 15 11 6 4 5 7 8 8 15 11 10 9 9 10 12 11 13 13 12 13 13 14 15 16 16 17
10 6 8 11 4 7 6 9 14 17 17 19 17 16 16 16 9 9 6 8 9 15 16 13 22 20 18 15 11 9 7 5 6 9 6 7 12 10 6 8 9 9 10 12 13 12 13 13 15 18 19 20 21 21
10 9 9 5 3 5 11 11 16 17 18 25 21 18 9 8 8 8 11 9 9 9 12 10 15 25 21 17 10 6 5 8 8 6 6 7 6 5 6 7 7 9 9 10 11 11 12 16 18 21 23 23 19 21
11 12 12 4 1 4 3 9 13 15 11 18 14 15 8 6 8 8 8 9 8 11 14 12 11 15 19 18 8 6 9 7 5 6 11 6 7 6 6 7 8 9 8 10 11 14 17 19 20 22 22 23 25 23
7 16 16 12 10 9 6 5 9 18 13 8 6 5 8 7 9 11 14 16 14 15 12 12 11 8 15 9 9 7 6 6 8 5 6 11 9 6 7 8 7 9 12 13 15 17 19 21 24 23 21 19 18 17
7 10 12 6 11 9 8 8 9 9 9 6 5 4 8 12 16 13 12 11 11 12 15 12 9 7 10 6 8 10 5 5 6 11 12 12 7 7 8 10 9 10 12 14 16 18 19 18 17 16 17 15 13 14
11 10 10 8 9 10 13 12 11 11 8 7 6 7 7 17 15 13 12 9 9 13 18 14 7 7 6 7 9 9 5 10 10 12 12 10 7 6 6 6 7 9 12 14 13 12 13 14 15 12 10 12 13 13
8 11 11 11 9 9 8 10 11 12 13 14 9 7 9 17 18 16 13 12 11 8 16 18 13 10 6 9 11 4 11 12 15 18 12 9 8 7 8 7 8 10 10 9 8 10 11 9 7 8 10 10 11 13
15 9 7 10 4 11 8 11 14 11 12 12 12 12 13 13 16 21 18 15 14 13 15 18 12 13 14 10 9 12 17 17 17 17 12 10 10 8 8 8 8 8 6 5 6 6 5 6 7 8 8 10 12 10
7 12 9 10 6 7 8 11 13 11 10 9 12 18 20 17 18 17 21 21 19 20 22 25 24 20 17 12 13 17 18 20 18 14 12 12 11 11 9 8 7 6 4 3 4 4 4 5 6 7 7 7 8 10
13 14 10 9 11 9 9 9 8 6 6 8 9 9 12 12 16 17 18 21 26 28 28 27 21 16 15 15 17 20 17 13 11 9 10 11 12 12 10 8 7 6 3 2 2 3 3 3 4 5 5 7 7 7
10 9 7 7 12 10 10 10 8 7 7 6 7 11 11 10 10 13 16 21 26 26 24 22 19 17 18 18 17 15 12 12 14 15 12 10 11 11 9 8 7 4 1 1 2 1 1 1 2 3 5 6 5 5
12 9 9 6 3 2 2 5 7 9 7 4 3 5 7 7 9 11 17 21 22 20 20 21 21 20 20 18 15 14 13 13 15 13 10 8 11 11 11 10 7 4 2 1 1 1 0 1 2 3 5 6 7 7
13 8 5 4 5 4 6 6 5 4 3 5 6 7 7 7 8 13 17 13 8 13 18 21 23 24 21 18 16 15 14 15 16 15 13 13 13 11 11 11 8 6 3 2 2 3 2 3 3 4 5 7 7 7
10 7 5 6 6 5 3 2 2 5 8 7 7 8 10 10 9 10 3 3 5 6 6 7 16 18 16 15 16 17 17 16 13 13 12 12 14 17 15 13 10 9 6 4 3 3 4 3 3 3 4 5 6 6
5 6 5 5 8 5 6 3 3 2 2 6 10 10 3 4 3 1 4 8 6 5 4 5 8 13 15 17 16 17 15 15 14 14 14 14 14 14 13 11 10 10 7 4 3 4 3 3 2 2 2 4 6 6
8 5 6 7 6 8 6 2 1 7 8 1 10 10 4 2 2 6 6 9 10 9 5 2 4 11 13 15 16 17 18 15 13 14 13 14 14 15 14 12 12 9 7 3 2 2 3 3 1 1 1 2 3 4
11 10 8 7 9 8 9 6 6 3 5 9 10 7 7 4 5 8 4 6 9 11 12 10 3 6 14 16 14 13 14 13 13 12 12 12 12 14 15 17 16 11 9 7 4 4 3 4 4 2 1 2 4 4
6 11 11 8 10 10 13 9 6 1 3 7 9 7 8 7 5 7 8 7 7 8 8 10 8 5 9 15 18 16 14 10 6 3 6 9 11 12 14 16 16 15 14 12 11 9 8 6 7 6 4 3 3 3
11 9 10 13 12 13 11 13 9 6 1 7 6 7 8 7 6 8 11 12 13 18 15 12 8 5 5 7 10 8 8 8 8 7 6 7 8 12 14 14 14 15 16 15 15 16 12 10 9 9 7 6 6 5
9 12 11 10 9 5 8 13 9 2 4 5 7 10 11 12 13 14 14 14 16 16 19 16 16 17 15 12 13 16 15 13 12 13 11 13 17 17 13 12 10 10 9 11 15 16 14 12 10 10 8 7 7 5
6 5 4 2 4 7 10 7 3 5 7 9 10 12 15 17 17 20 18 19 22 27 24 24 29 22 21 21 20 19 16 12 13 8 7 8 10 10 11 10 9 9 10 10 12 15 14 12 11 10 8 5 2 0
7 7 7 9 10 8 5 4 5 7 8 10 13 16 19 19 21 25 24 20 15 10 6 10 14 26 21 20 20 19 21 22 23 19 14 11 10 9 7 4 4 6 8 9 7 11 13 12 10 10 9 7 5 4

GFSWCAN_700_spd_096.txt.gz
Wind_Speed
28 25 26 25 26 24 20 16 16 14 14 15 16 14 11 13 13 14 17 18 19 20 13 15 11 7 4 5 4 6 2 3 4 5 5 5 5 7 6 7 6 6 6 8 7 7 6 9 9 7 9 10 8 9
21 22 24 25 25 24 21 17 16 15 15 16 17 17 15 14 14 14 16 17 18 20 15 15 14 11 9 7 8 8 7 5 7 5 5 4 3 4 6 4 11 5 8 6 7 6 10 9 13 12 14 12 10 12
24 28 27 26 24 23 20 17 15 16 16 16 18 17 17 17 16 16 16 17 19 19 16 12 16 15 12 8 9 6 10 9 7 8 6 6 4 5 6 8 7 11 11 8 8 10 9 9 8 10 13 14 14 14
30 24 24 24 23 21 19 15 15 16 17 17 17 16 16 17 19 18 17 17 19 21 14 13 18 15 11 6 4 9 12 11 9 7 4 5 5 7 6 8 7 10 11 11 10 11 11 13 14 15 15 15 15 15
20 20 21 20 19 17 14 14 16 14 17 17 17 16 15 15 17 19 19 19 19 22 11 14 14 16 13 11 9 7 10 10 9 5 5 6 9 8 10 10 11 12 10 11 7 8 9 7 10 13 13 13 14 13
16 17 16 17 17 13 12 14 21 17 17 17 17 15 14 13 15 16 17 20 20 22 17 6 17 16 15 14 10 6 6 7 7 5 6 9 7 6 6 8 6 10 11 13 11 14 12 14 14 14 14 15 14 13
14 15 14 13 11 12 12 18 23 17 17 17 16 15 14 12 16 17 17 18 19 20 21 9 5 21 18 16 13 9 7 6 4 5 6 6 7 8 9 13 7 10 13 14 15 15 16 15 12 16 16 14 13 14
17 17 15 14 13 14 17 21 19 17 18 17 17 17 15 13 15 15 14 12 18 20 18 9 9 13 21 17 13 13 10 8 9 8 9 6 11 12 9 6 9 10 11 11 11 12 12 13 13 13 13 13 13 15
17 16 14 13 12 17 18 15 11 15 18 17 17 17 16 15 14 13 14 11 14 21 11 14 12 10 22 20 18 14 12 7 12 9 12 12 12 13 7 10 11 12 11 11 12 13 14 15 16 15 15 16 16 19
15 13 11 10 13 16 13 7 10 16 17 17 18 17 16 15 13 12 13 13 13 20 24 14 17 11 14 20 15 11 11 8 6 9 11 13 19 16 17 16 16 17 19 17 14 14 15 16 15 16 17 17 16 16
14 13 8 10 11 7 5 5 12 16 17 18 18 17 11 12 12 12 7 11 11 11 20 25 17 13 14 14 14 14 7 5 4 7 5 7 13 9 10 14 12 13 15 16 15 15 15 14 15 16 16 14 15 17
12 8 7 7 10 6 8 8 14 17 17 19 19 13 11 13 8 9 8 9 9 11 11 18 23 17 19 17 13 17 10 5 5 9 4 5 6 6 7 8 8 11 12 12 13 14 15 15 15 14 15 18 20 22
9 8 11 10 8 8 8 11 15 20 19 22 19 17 11 13 10 9 10 10 11 12 15 19 18 21 20 19 12 9 7 7 7 5 5 7 5 6 7 8 9 9 10 11 13 15 15 14 14 15 17 20 22 21
8 8 8 7 4 3 5 10 15 20 26 24 19 13 9 6 8 9 9 10 11 13 14 18 19 18 21 19 9 6 8 5 5 6 5 3 8 9 9 8 8 9 9 10 12 14 14 16 17 19 21 23 24 24
9 7 14 12 5 4 4 5 6 18 18 14 8 7 10 8 8 12 12 11 13 14 17 17 17 15 19 10 10 7 6 5 7 5 4 8 10 10 9 9 9 9 11 12 13 16 17 18 20 21 23 22 19 20
9 6 12 12 13 9 6 6 10 12 17 7 5 5 6 8 7 10 13 16 15 18 18 19 12 10 13 9 11 10 7 6 4 4 7 9 10 9 9 10 10 12 13 14 15 16 18 19 20 18 17 17 15 15
11 10 10 5 14 15 11 9 8 7 5 5 5 7 8 13 10 14 14 14 15 15 17 12 9 8 8 9 8 8 9 6 6 8 12 12 11 10 9 10 12 13 13 13 13 14 14 14 15 14 12 12 13 14
8 7 10 10 8 7 9 12 16 12 12 11 7 4 8 15 13 15 16 13 13 14 17 12 10 11 6 7 6 7 8 6 8 11 14 13 11 10 10 11 12 12 12 12 11 11 11 11 10 9 10 11 11 12
11 8 10 10 10 13 14 13 11 7 11 14 13 13 11 13 20 20 18 17 16 14 15 19 12 11 11 9 7 9 10 14 16 16 15 14 13 13 13 12 11 11 9 9 10 10 9 8 8 8 9 9 8 8
10 13 10 10 7 6 7 7 10 9 10 13 14 15 17 17 17 18 22 23 19 19 20 22 20 11 8 8 10 11 14 17 19 19 16 15 15 15 14 12 11 9 9 9 9 9 8 7 6 7 7 7 7 6
10 10 11 8 6 6 8 7 7 7 8 10 11 14 13 18 22 22 23 21 26 30 29 26 20 16 17 16 16 15 17 18 18 15 13 14 15 17 15 13 11 10 10 10 10 8 7 6 5 5 6 6 5 5
12 13 12 11 10 9 9 10 9 10 9 8 8 11 10 10 12 15 19 23 26 27 27 23 21 19 20 19 19 19 17 16 14 14 16 17 16 16 15 14 12 11 11 11 8 8 7 6 5 4 3 3 2 2
8 10 8 5 5 5 5 7 8 9 6 4 6 8 11 12 13 12 17 20 21 20 18 19 20 20 20 22 20 19 17 14 13 14 15 15 15 15 16 15 13 13 12 10 8 7 7 7 5 3 2 2 1 2
11 9 7 5 5 5 5 5 7 7 8 8 7 6 6 8 8 10 13 12 11 13 16 19 22 24 24 24 22 19 16 14 12 15 17 17 16 13 14 14 15 13 13 9 8 7 7 6 6 3 1 2 2 2
9 8 5 8 6 6 5 3 6 7 7 6 7 7 6 7 7 8 4 1 4 8 11 12 12 18 22 23 22 21 17 15 15 17 18 17 16 16 15 16 15 14 12 9 8 7 7 6 5 5 3 2 3 2
6 5 5 5 7 6 8 6 6 5 5 6 9 10 10 8 7 3 2 4 3 5 5 7 7 7 16 19 18 18 15 15 17 19 18 17 16 16 17 18 16 15 12 9 8 7 6 4 5 4 4 3 1 1
6 4 6 8 9 11 9 4 4 6 8 12 14 10 3 3 2 5 6 5 8 7 5 3 1 6 10 12 15 17 16 17 18 17 18 18 18 18 17 18 16 14 13 10 8 6 5 3 4 5 5 5 5 4
9 9 8 7 7 7 9 4 8 8 1 12 13 10 5 3 5 6 3 5 4 5 8 10 6 2 8 14 16 17 20 22 21 20 18 19 20 21 21 19 16 18 15 12 10 7 4 3 5 7 7 6 6 6
8 10 11 8 9 6 6 6 6 6 7 12 11 12 7 4 2 2 4 6 6 6 7 8 7 7 7 11 16 19 19 17 17 15 13 15 16 18 19 19 20 18 16 14 12 10 9 7 7 8 8 7 7 6
9 8 10 9 9 7 5 7 6 2 1 4 7 5 6 5 5 6 9 10 9 7 10 13 11 15 11 13 14 17 19 17 13 10 9 10 10 13 15 15 16 17 17 17 16 16 16 15 12 11 11 10 9 8
10 11 11 9 8 7 9 9 10 6 2 4 3 5 8 9 10 12 13 14 15 16 17 18 20 16 19 18 19 20 20 18 17 16 17 17 16 16 16 16 16 19 20 19 19 20 19 19 18 16 14 12 11 10
8 9 7 6 5 6 8 10 7 2 3 4 6 8 11 14 16 16 21 24 24 24 21 16 17 21 25 23 27 25 23 24 23 21 22 14 14 12 11 10 12 13 12 12 11 13 16 18 17 16 14 12 10 9
10 10 11 12 13 11 9 7 5 5 7 8 10 13 17 17 9 8 12 13 13 10 6 4 8 19 24 18 23 22 12 5 5 10 14 15 11 9 11 11 9 7 6 8 9 10 12 15 17 17 15 13 11 9

GFSWCAN_700_spd_102.txt.gz
Wind_Speed
25 25 20 18 15 17 18 20 19 19 18 18 17 18 19 16 17 19 25 27 27 29 8 7 9 8 6 7 6 6 3 3 5 7 6 3 4 5 6 3 1 2 3 8 13 16 7 11 1 5 6 1 2 3
20 20 21 22 23 22 23 24 22 19 17 18 17 18 20 20 16 18 20 25 29 28 17 10 11 12 11 9 5 4 1 3 4 4 5 3 2 4 3 4 6 7 3 2 8 3 11 8 10 7 7 7 3 5
17 17 19 21 24 27 26 23 22 20 18 17 17 18 19 20 20 17 20 21 26 29 29 16 13 17 14 9 9 5 4 8 8 11 4 2 1 3 3 3 2 5 9 4 3 4 8 6 5 5 8 6 3 8
20 19 20 19 17 16 16 17 17 17 15 14 14 17 18 19 20 21 20 22 20 20 14 11 14 16 13 9 13 9 8 7 6 6 4 4 5 4 2 1 3 2 3 4 7 4 3 4 5 5 7 9 4 7
23 22 21 20 17 17 15 14 14 13 11 10 11 15 16 17 18 19 20 20 20 23 11 10 15 13 13 13 9 7 8 6 5 4 4 5 6 5 6 6 5 6 6 3 2 3 8 5 9 8 6 3 4 6
25 23 20 18 15 15 14 13 12 9 7 10 12 9 13 16 17 16 18 19 20 26 17 8 11 16 12 13 11 9 7 9 9 7 7 7 11 12 5 7 7 8 6 9 5 7 8 6 7 7 6 5 5 3
22 22 21 20 17 16 14 12 12 13 13 13 13 16 16 16 16 19 21 21 23 27 23 6 14 16 15 15 10 8 10 8 8 9 10 8 11 8 7 9 3 5 6 11 11 12 8 7 8 8 8 9 13 6
24 22 21 18 15 16 15 13 14 15 15 13 13 15 16 15 16 18 21 19 20 26 29 8 6 16 14 14 13 11 8 7 8 9 8 10 12 9 6 4 8 10 9 9 10 11 9 8 11 10 9 13 8 6
18 18 19 17 15 14 14 13 14 15 15 14 15 16 15 15 15 19 20 20 19 27 19 20 17 13 16 15 15 11 11 10 8 10 11 10 12 14 8 9 6 11 12 9 10 9 10 9 11 12 9 8 8 7
19 18 15 14 15 14 11 13 11 10 11 15 16 15 13 17 15 13 13 15 16 26 25 21 18 21 15 19 17 13 10 11 8 12 13 14 18 19 21 17 14 13 12 8 8 9 10 12 17 16 13 13 10 9
14 14 13 13 12 11 9 8 5 8 14 17 18 15 14 14 14 11 8 10 9 13 27 25 17 15 16 20 20 14 13 9 10 12 11 12 15 11 12 15 14 16 13 10 12 17 15 15 16 17 17 15 13 8
13 12 11 11 11 9 8 7 7 14 16 20 20 13 14 16 10 8 11 10 10 17 11 25 21 12 24 14 14 18 10 10 6 10 11 13 13 14 15 12 12 16 11 12 12 12 14 19 23 20 20 17 11 13
12 11 11 8 9 10 9 8 9 17 17 19 20 14 14 12 11 10 12 11 15 10 15 18 21 20 15 18 9 9 6 7 7 9 7 17 12 19 11 9 8 8 10 13 15 12 17 15 17 16 12 12 16 18
12 11 9 8 7 6 7 9 11 21 23 23 17 16 10 8 10 11 12 13 14 17 16 17 24 18 15 17 9 7 10 8 9 8 17 11 16 8 7 9 10 9 9 10 10 16 16 18 21 21 20 20 18 20
12 9 8 10 8 5 3 6 13 21 26 19 11 9 13 8 15 10 10 12 19 13 13 18 19 18 18 16 15 11 9 9 11 16 14 18 17 12 11 12 10 9 11 14 18 18 18 19 17 15 15 15 19 20
12 10 9 10 10 5 2 4 8 19 21 15 12 9 8 11 10 7 9 11 19 17 16 22 20 16 16 14 16 14 13 10 13 13 17 19 16 12 11 11 8 12 14 14 15 16 17 16 14 15 15 16 18 16
11 10 9 10 14 11 4 3 10 14 8 9 11 17 15 6 12 16 12 15 19 17 23 24 20 16 9 15 14 20 18 13 10 16 17 10 10 8 7 7 13 14 16 16 15 17 14 12 15 15 14 13 16 16
10 11 13 8 17 10 11 7 6 3 4 8 8 2 4 9 8 5 23 14 26 18 23 18 12 8 7 10 13 11 13 17 22 15 15 10 15 14 9 7 14 14 13 12 11 10 11 13 13 13 14 10 11 13
10 10 9 13 11 9 16 13 9 5 9 8 8 7 6 9 9 6 9 6 8 12 21 22 15 21 14 12 11 19 14 10 8 8 13 17 17 15 9 8 13 13 12 12 11 11 13 11 10 10 10 9 3 2
9 10 8 15 11 8 12 8 10 9 4 8 12 12 10 10 9 10 11 11 14 19 24 14 10 11 15 22 9 8 12 18 18 16 15 17 15 12 9 11 11 13 11 12 11 12 12 9 10 12 10 12 9 8
11 7 12 15 12 11 8 6 7 6 7 12 9 13 18 13 13 13 13 14 16 15 12 13 6 13 9 12 21 15 12 8 6 10 13 20 18 13 13 13 13 12 11 12 11 12 16 12 9 12 13 11 12 7
14 11 8 11 10 10 10 9 8 8 10 8 7 10 16 17 21 21 19 19 19 19 18 17 17 14 14 11 8 14 15 19 20 18 21 19 15 15 16 16 15 14 13 13 11 13 12 12 11 11 11 6 6 7
12 10 14 9 7 8 6 9 10 9 7 4 6 11 12 12 15 16 24 26 22 21 21 20 21 27 25 19 16 16 20 22 19 12 18 17 15 14 14 14 15 16 14 15 14 14 18 12 15 13 12 11 9 10
12 9 6 4 7 4 5 8 9 9 10 10 8 11 12 13 13 17 18 11 11 8 9 15 18 16 15 20 24 21 21 18 14 12 20 18 21 14 14 12 16 16 15 15 16 15 19 16 15 15 14 9 4 8
11 10 6 8 6 6 6 6 7 7 6 4 8 9 6 6 7 9 7 10 17 14 18 19 20 23 17 19 18 13 17 19 12 18 22 19 17 13 15 16 17 15 16 17 18 16 16 18 14 13 13 12 11 10
11 7 7 5 6 5 4 4 6 8 11 10 8 7 6 6 5 3 6 2 6 15 13 7 6 8 17 25 30 22 24 20 16 21 24 19 19 22 22 20 18 17 20 18 18 17 17 18 15 12 11 13 15 15
6 4 7 8 3 3 4 7 11 8 7 7 6 5 4 3 5 7 13 2 13 4 3 4 5 13 12 9 14 21 23 19 21 18 15 21 25 22 21 19 19 19 22 18 17 18 18 16 14 12 11 12 12 10
6 6 4 5 8 5 8 7 9 11 10 12 12 9 5 3 7 2 3 13 6 1 4 1 3 8 7 5 6 16 24 25 20 14 20 21 23 24 25 17 17 20 24 23 18 16 15 16 15 14 12 12 11 10
4 3 5 5 4 4 2 8 13 13 4 10 7 7 6 9 12 10 8 8 6 4 12 6 10 2 8 4 1 2 7 12 12 18 21 20 25 17 10 16 20 20 23 25 21 17 16 16 15 12 13 11 11 11
10 8 7 8 3 3 2 10 12 22 16 11 7 1 2 12 2 2 1 1 2 3 4 4 7 7 9 9 12 11 5 9 13 12 19 22 22 27 15 12 18 23 24 27 22 19 19 16 14 14 15 17 13 12
10 10 9 11 6 7 4 4 8 9 9 4 8 8 6 3 7 7 7 9 12 15 16 14 14 17 19 17 13 16 19 19 18 17 12 7 5 5 13 17 17 19 15 14 13 13 15 15 15 14 16 16 15 17
10 10 10 10 6 8 7 4 4 7 5 3 3 2 5 9 10 11 7 7 8 10 10 11 13 12 18 22 24 26 27 19 19 15 17 15 20 18 18 13 13 11 13 14 16 15 16 16 13 12 10 13 16 13
9 13 13 4 7 5 5 9 11 9 5 2 2 3 4 5 6 6 8 9 11 13 12 10 7 6 6 7 14 20 23 19 15 17 22 25 25 23 18 13 7 9 12 15 16 12 12 14 16 19 21 17 16 24

GFSWCAN_700_spd_105.txt.gz
Wind_Speed
25 23 24 23 22 22 19 17 17 18 19 18 18 18 19 19 18 18 22 29 32 33 18 8 3 9 4 9 3 6 5 1 4 5 8 1 2 2 5 1 2 4 1 7 6 3 1 5 4 2 11 6 8 9
23 22 21 20 20 21 24 25 23 22 21 19 17 16 18 20 20 18 21 26 33 35 30 21 10 11 10 9 7 1 1 4 5 3 0 1 3 2 2 4 3 1 1 6 8 8 15 9 7 8 9 13 11 7
24 22 19 19 21 20 19 18 18 18 17 18 19 16 17 21 21 19 19 22 27 32 32 23 21 16 18 21 14 7 1 4 7 9 4 3 2 3 2 7 1 5 2 4 5 12 12 11 11 12 10 9 11 10
24 22 21 21 23 22 19 16 15 14 14 15 16 15 18 20 21 22 19 20 21 24 32 30 27 20 18 15 17 16 9 9 10 9 11 3 3 4 3 2 2 1 0 3 9 14 7 7 8 13 14 14 13 12
24 24 23 22 22 21 17 15 14 13 12 12 13 13 15 16 18 20 21 19 18 17 16 26 15 17 17 12 16 21 18 12 12 5 6 6 4 5 2 7 5 3 6 5 7 9 9 7 9 10 10 6 9 9
24 24 24 23 21 20 15 13 12 11 8 7 10 11 14 12 16 17 19 22 20 18 21 15 17 17 18 19 20 16 16 17 14 11 9 8 9 7 4 4 2 9 4 9 7 8 10 12 12 13 11 5 6 7
23 24 21 22 20 20 17 15 14 12 11 12 11 12 15 14 13 18 20 23 24 23 23 13 10 20 18 16 19 14 11 11 13 11 12 11 6 8 7 13 9 1 8 8 14 14 8 11 13 10 9 8 9 6
21 19 21 22 20 18 15 14 14 14 13 12 12 15 17 18 16 19 20 17 21 21 26 16 7 21 26 18 18 12 12 14 17 18 11 12 12 12 9 10 10 8 9 12 15 15 12 13 11 9 10 13 13 11
17 18 18 17 17 16 15 14 13 12 13 14 14 16 17 16 17 18 21 18 17 22 23 24 12 8 13 22 17 16 15 10 8 12 16 10 12 11 11 10 11 11 16 16 13 8 10 9 11 14 15 13 7 8
13 13 16 16 14 13 12 12 10 12 15 14 16 15 12 14 17 17 20 19 20 20 28 29 25 9 15 22 17 16 15 17 11 17 10 18 18 19 21 19 13 15 16 13 14 11 8 15 14 18 14 10 12 15
12 12 12 13 12 11 10 9 9 7 5 16 19 16 13 14 14 10 9 12 12 16 28 37 33 19 16 18 22 21 13 17 14 15 17 16 24 24 20 23 20 20 24 17 11 13 12 14 18 19 18 15 16 22
14 13 11 11 11 10 8 8 8 8 10 18 20 14 15 15 9 7 9 9 8 13 10 20 32 19 18 19 24 15 16 10 6 13 17 22 22 18 16 12 14 14 15 12 14 13 14 18 19 21 16 21 23 16
13 11 11 11 10 10 10 9 8 12 19 22 21 18 13 13 10 9 13 12 14 8 11 8 35 20 11 19 25 6 12 14 12 15 13 21 18 14 12 11 9 12 16 15 17 17 16 14 17 18 20 20 20 26
11 11 10 10 9 8 9 10 12 17 19 18 17 8 10 9 10 14 14 12 15 9 9 12 18 23 19 14 12 8 11 7 9 13 21 14 12 7 7 11 10 10 14 18 20 21 17 16 18 18 19 22 23 22
12 12 10 10 10 7 4 5 12 16 21 17 12 8 13 9 12 15 18 15 10 17 11 15 22 16 17 15 13 8 7 9 12 19 17 14 15 13 12 9 8 8 11 15 18 18 17 17 17 17 20 23 22 21
12 11 9 9 9 5 5 6 12 18 19 13 13 9 8 16 14 19 13 13 6 15 14 17 20 19 19 16 15 16 13 12 14 13 12 15 16 17 15 11 9 9 12 14 15 15 17 18 18 20 22 19 18 18
13 11 11 10 8 9 4 3 7 13 13 11 15 18 15 12 14 10 15 16 13 15 21 25 16 16 12 13 22 19 20 15 14 7 12 13 13 14 11 10 9 11 13 12 12 14 18 20 19 19 15 12 12 9
11 12 13 11 12 14 8 5 6 6 10 10 13 15 14 12 6 6 21 12 13 20 27 20 19 20 14 12 17 30 18 21 13 14 13 16 15 13 12 10 12 13 13 13 14 17 19 17 15 11 12 10 11 9
11 13 14 10 15 13 11 12 10 6 5 2 9 4 1 5 6 5 10 14 19 12 19 23 14 21 27 8 12 17 19 21 26 20 17 13 15 13 12 12 14 14 15 15 14 15 15 13 12 14 14 9 9 11
12 11 11 11 13 13 14 9 13 12 5 8 8 8 10 9 8 8 10 13 7 8 5 11 22 21 14 20 18 20 16 15 19 14 15 15 8 7 10 15 15 13 14 14 13 14 14 13 14 15 13 10 8 8
12 11 10 13 15 9 8 7 8 6 8 13 11 12 12 14 18 15 8 14 16 12 12 6 8 15 11 14 21 19 23 12 14 8 9 11 11 12 9 11 19 19 16 17 15 16 18 13 10 15 14 12 12 13
10 11 5 15 13 11 11 10 6 7 8 8 11 9 15 20 20 18 17 22 24 19 13 12 10 12 13 9 17 16 14 12 7 8 10 12 15 16 13 12 15 18 17 14 13 13 15 17 13 13 13 11 12 14
13 8 5 7 6 6 5 9 10 9 7 2 5 10 11 10 18 16 25 29 26 20 21 22 20 15 14 14 9 5 10 15 17 21 22 21 16 14 12 11 11 17 18 14 13 12 11 11 13 18 16 13 10 10
11 8 8 6 7 4 4 5 6 8 9 7 7 6 9 13 14 17 22 19 11 7 11 15 25 29 26 24 23 24 15 17 19 16 17 20 19 14 16 19 11 11 11 11 13 16 17 18 16 16 20 18 12 16
11 8 4 7 4 4 3 3 4 5 6 4 8 9 6 5 8 11 10 4 13 14 16 17 13 14 22 21 18 19 19 19 24 21 24 17 16 16 15 12 5 14 16 15 17 21 22 21 21 18 22 23 15 9
8 7 5 5 6 4 4 3 5 7 7 7 5 4 4 7 5 4 5 7 7 14 15 10 16 13 21 26 27 25 21 25 20 19 21 15 16 18 17 13 14 24 20 19 21 22 23 24 23 17 15 18 21 16
6 2 3 7 5 7 5 2 6 6 4 3 4 3 3 2 3 3 6 8 11 10 4 3 7 4 5 7 14 24 23 23 23 27 16 12 13 13 18 21 24 21 18 22 24 25 24 23 21 17 13 14 16 14
6 6 1 2 5 6 7 7 10 7 5 4 6 5 3 3 6 9 10 6 3 11 8 2 5 7 10 12 7 11 17 22 22 21 12 20 19 15 22 22 23 27 24 24 21 17 13 14 19 18 12 13 13 14
8 5 1 4 6 4 5 8 15 19 17 9 6 6 6 12 16 13 10 4 4 5 1 10 14 7 3 5 3 2 2 8 16 20 25 26 23 26 34 28 28 31 26 18 15 17 17 15 14 15 14 12 13 14
6 2 2 2 1 0 4 8 16 15 13 9 8 6 15 15 7 5 6 1 5 5 7 7 9 5 9 10 8 6 6 10 11 8 12 17 22 18 21 32 32 26 22 18 19 22 20 20 17 16 14 15 16 15
9 7 8 7 8 3 5 10 11 9 9 11 12 17 13 8 4 3 5 8 11 12 10 16 17 18 19 15 16 17 20 23 17 19 24 24 17 9 13 7 10 8 0 6 12 15 16 17 15 15 16 17 17 19
7 8 6 8 6 4 5 7 4 5 6 11 16 10 9 5 2 2 4 6 7 8 9 10 9 7 10 19 20 22 21 26 19 25 17 5 5 12 15 4 9 4 9 12 13 11 6 6 8 10 7 5 5 12
11 7 8 7 7 7 4 3 7 6 2 6 6 4 5 7 6 7 7 8 11 12 12 11 9 6 3 2 4 7 14 15 18 8 15 11 12 17 17 9 12 14 11 11 13 14 16 16 11 6 7 10 13 14

GFSWCAN_700_spd_108.txt.gz
Wind_Speed
27 26 25 21 19 20 19 19 21 21 20 18 16 16 17 17 19 19 21 22 28 38 28 14 7 9 8 7 10 6 5 5 2 3 4 1 4 1 5 6 4 7 3 4 3 3 2 7 2 14 4 5 6 4
27 25 23 20 18 18 17 17 18 18 18 20 20 18 16 16 18 19 22 23 26 31 31 25 14 9 9 7 9 8 7 7 6 2 3 3 2 1 1 1 8 2 2 7 10 2 13 18 12 17 16 10 4 8
27 25 23 21 19 19 18 18 18 17 15 15 17 19 18 16 18 20 21 23 23 24 34 31 23 13 13 11 11 12 9 8 7 5 4 0 3 1 0 1 3 7 8 7 8 14 13 11 10 14 13 7 3 4
25 24 23 21 19 20 19 20 18 17 15 14 15 15 15 16 17 21 23 21 19 21 27 30 32 24 20 19 17 16 14 11 11 12 13 6 2 3 5 3 3 5 5 3 8 14 12 9 2 7 7 8 9 4
24 23 23 22 21 20 19 18 16 15 14 14 11 11 13 15 16 20 22 20 18 19 12 25 33 33 23 17 15 20 23 20 17 12 10 12 2 4 7 5 5 7 6 6 11 8 4 4 4 3 5 9 13 15
22 21 22 22 23 22 19 17 16 14 12 11 7 8 10 13 17 19 20 23 20 15 19 14 14 32 24 23 20 20 20 19 21 16 14 11 7 14 9 5 7 8 9 7 8 12 11 7 6 9 12 8 5 9
21 20 22 20 21 19 18 16 16 16 14 11 11 8 8 12 16 17 16 18 18 19 18 14 8 18 18 20 20 21 20 15 19 21 16 11 9 12 11 11 14 11 7 10 10 12 13 12 10 11 10 7 7 6
19 19 18 21 18 18 18 16 15 15 14 13 12 12 12 13 17 18 16 13 16 20 18 11 10 21 20 23 21 19 16 15 16 22 21 11 14 15 13 14 16 12 11 10 11 12 13 12 14 14 10 8 10 10
17 17 16 17 19 19 17 15 13 12 12 12 12 13 12 13 15 16 16 14 16 21 16 15 14 14 25 26 19 17 13 14 14 25 25 12 16 15 14 14 19 17 15 13 14 12 14 17 16 16 15 12 16 14
15 13 12 12 13 15 13 12 12 11 14 16 14 12 12 11 12 15 19 15 16 18 25 24 18 14 25 29 20 14 16 16 9 14 12 28 21 18 15 11 10 16 15 13 15 11 13 22 17 14 14 11 11 13
13 12 11 10 11 12 12 11 10 11 12 8 13 14 12 13 12 14 13 13 12 13 20 29 30 19 15 26 23 16 14 14 15 15 17 20 26 23 20 18 17 17 21 22 19 13 12 16 18 18 16 17 14 12
11 13 11 9 9 10 11 10 8 7 3 11 14 15 16 15 8 9 9 9 9 16 17 13 26 31 21 17 21 22 15 11 5 15 22 24 25 20 20 22 21 20 20 20 17 14 12 13 15 16 18 18 17 17
12 10 10 9 9 10 11 10 8 9 12 12 18 18 12 12 11 9 12 11 11 6 1 11 15 25 31 24 19 15 11 12 16 10 14 29 24 18 13 15 14 15 17 18 18 15 13 15 18 20 21 21 21 20
11 9 9 9 8 8 8 10 9 11 13 20 20 11 11 8 10 13 17 15 8 13 4 9 12 23 23 24 15 10 8 5 8 20 32 29 21 17 16 13 12 12 15 16 15 16 18 18 15 18 20 19 20 19
10 10 8 8 8 8 7 7 10 14 14 17 12 7 13 11 14 15 15 18 17 15 12 11 15 29 18 12 10 11 6 8 11 20 19 12 16 15 11 9 8 8 11 14 17 19 18 17 17 17 17 17 16 14
8 9 9 9 9 8 6 5 6 14 12 16 12 8 6 14 11 12 17 16 16 18 14 12 19 12 22 13 10 14 12 9 11 8 8 12 15 14 15 15 12 8 10 14 19 20 20 19 19 16 14 14 16 19
14 11 10 9 9 9 6 4 10 15 12 11 12 19 11 8 8 12 17 18 25 18 22 19 9 13 11 18 20 18 21 16 21 10 6 16 12 18 19 17 13 10 9 11 14 16 16 18 20 19 19 20 16 17
12 13 12 11 9 11 8 5 7 7 13 14 9 10 16 13 11 14 14 15 4 7 18 25 11 13 15 18 14 19 26 30 23 16 15 10 14 16 12 12 11 8 7 10 12 14 16 18 18 19 19 16 14 15
13 13 13 12 13 14 10 8 9 5 5 4 9 13 9 9 4 5 5 22 14 10 13 15 19 30 27 21 18 14 12 17 21 18 13 13 18 14 12 10 12 11 10 13 15 16 18 18 17 16 16 16 16 16
12 12 13 13 12 16 10 8 11 11 2 5 13 9 7 9 2 5 6 5 7 7 20 19 22 21 19 22 18 22 6 10 14 20 19 14 14 15 10 11 11 10 13 17 20 21 20 19 19 19 19 17 16 15
12 11 13 11 13 11 12 6 7 5 5 8 8 9 9 10 9 7 8 7 11 12 7 3 3 7 16 17 11 18 25 18 14 27 18 17 15 13 7 9 10 12 17 19 20 19 19 18 18 20 18 16 15 13
14 12 11 9 14 11 9 7 5 7 8 6 11 14 14 12 17 18 16 17 13 14 9 4 3 5 6 6 11 12 18 21 14 20 27 19 18 14 13 13 12 10 15 20 18 19 19 20 21 21 18 16 13 11
10 14 4 11 10 8 4 8 9 7 6 2 2 12 15 12 9 18 23 25 23 17 16 16 15 12 12 8 7 5 7 15 14 19 21 18 10 14 14 12 10 10 12 18 18 18 19 17 18 16 13 12 11 12
10 10 6 5 5 3 4 4 3 4 7 6 8 5 6 7 8 13 24 25 17 18 20 22 25 23 20 18 17 13 9 9 15 17 17 12 11 13 14 12 12 14 15 13 18 15 13 10 9 9 9 11 14 13
9 6 4 7 4 3 2 1 2 3 3 3 5 8 5 3 6 10 8 7 7 10 11 11 8 10 15 20 21 21 16 16 18 23 22 19 12 14 17 19 15 13 12 16 13 5 6 9 11 11 11 14 16 16
7 5 4 5 5 3 3 2 2 4 6 6 4 3 3 4 5 3 3 3 5 11 13 12 14 14 12 13 18 21 21 23 24 21 20 17 15 15 16 17 19 14 15 14 12 12 12 13 14 16 15 14 16 21
5 3 3 6 4 2 5 4 3 3 3 3 3 1 1 1 2 2 3 6 8 4 5 6 9 2 7 4 7 12 26 25 27 12 12 20 22 23 22 17 17 15 17 17 19 16 14 13 14 15 17 16 16 18
5 6 5 4 5 5 4 4 6 5 3 2 2 4 2 1 4 9 10 6 14 10 4 4 6 6 3 1 3 6 10 11 17 16 21 22 28 18 13 18 16 21 25 24 25 20 16 10 10 10 9 12 14 16
10 9 6 3 2 4 6 8 9 15 17 15 8 5 5 7 7 6 8 10 2 6 11 9 7 4 4 5 3 3 1 3 7 10 10 13 13 13 14 16 20 28 25 25 33 27 21 13 14 13 10 9 11 16
9 6 5 1 4 1 3 6 9 7 6 6 8 11 9 10 10 8 7 4 3 4 6 4 6 9 10 9 8 10 9 6 7 7 6 8 8 11 16 23 27 29 28 34 34 24 20 18 17 16 13 11 13 14
10 6 9 5 2 3 10 8 5 6 14 16 20 17 14 7 5 5 5 6 7 12 13 10 8 9 12 15 14 14 15 16 14 11 21 24 18 18 18 7 6 7 15 23 21 8 8 19 20 14 14 11 12 14
14 12 7 6 5 2 3 7 6 8 23 17 14 12 10 6 3 4 6 7 8 8 9 9 7 6 8 9 12 16 16 19 22 22 20 14 20 16 9 3 3 0 5 7 10 7 4 7 11 13 12 9 9 10
14 10 5 8 8 6 2 6 2 11 13 12 9 9 8 6 8 9 7 8 10 11 12 11 8 4 1 2 6 12 14 16 14 14 14 5 6 8 10 9 10 5 4 3 2 2 7 6 3 5 10 11 10 7

GFSWCAN_700_spd_111.txt.gz
Wind_Speed
28 27 26 22 22 19 17 16 15 15 15 17 20 18 17 17 16 16 21 21 21 25 25 23 13 15 14 15 15 12 10 7 12 6 1 1 1 1 2 8 4 8 5 5 6 4 4 13 14 10 9 12 5 4
25 26 24 22 22 20 19 17 16 16 16 16 16 19 21 18 17 16 22 22 21 21 21 28 19 17 16 19 17 16 13 12 8 6 4 2 2 2 3 3 4 2 3 5 6 4 5 12 9 14 10 5 3 5
24 23 24 22 21 20 19 19 19 17 17 17 15 15 18 19 18 17 21 23 20 18 19 29 24 16 19 18 20 15 16 12 12 9 6 3 3 5 1 5 7 7 5 0 2 3 5 3 10 12 7 3 1 8
23 22 21 21 21 21 20 19 19 18 18 16 15 15 15 15 17 17 21 23 18 15 18 21 31 27 22 21 19 16 17 13 13 12 10 6 4 3 4 3 9 7 8 7 2 9 8 7 4 3 4 3 2 1
21 20 19 20 20 21 21 20 19 18 17 15 14 13 12 13 15 17 21 22 19 16 9 15 25 30 24 22 19 18 17 17 16 14 10 12 9 6 9 7 7 8 6 7 5 15 6 2 3 4 4 6 10 8
19 18 18 19 20 20 21 21 18 17 16 14 11 10 9 9 11 15 19 23 19 13 14 14 9 35 33 26 22 17 15 17 21 20 19 16 14 11 8 12 9 10 8 7 1 10 8 4 8 6 7 7 4 10
19 18 16 18 18 19 18 16 16 16 16 15 12 10 6 7 10 14 16 17 17 17 14 11 12 13 35 33 29 25 21 19 18 20 18 17 16 15 17 15 13 13 10 8 8 6 11 10 8 7 9 9 3 3
18 17 17 17 17 18 21 18 16 16 15 14 13 10 9 7 8 13 14 10 13 16 15 7 9 14 22 29 30 26 20 16 17 17 19 22 16 15 18 17 16 16 17 11 8 6 6 8 11 11 11 10 9 4
17 16 17 15 16 16 15 17 16 14 14 11 10 10 10 8 10 13 14 12 11 16 9 12 15 15 21 28 25 23 20 18 16 18 19 20 21 19 19 19 15 19 18 15 10 9 10 11 12 13 14 12 10 9
16 16 15 14 15 14 14 12 13 12 12 11 9 10 11 12 12 13 15 12 12 18 22 19 21 15 21 24 25 26 20 14 10 13 15 29 27 21 20 15 10 18 18 16 15 14 14 16 17 17 15 12 8 7
14 15 14 12 11 12 13 12 9 9 8 9 11 13 13 14 14 16 11 10 10 10 15 21 22 17 15 26 24 22 15 14 10 16 14 17 33 31 21 17 13 12 13 14 15 15 13 13 17 19 15 12 11 9
14 13 10 12 10 10 11 9 8 6 5 6 10 15 18 16 8 7 10 10 9 13 9 7 15 25 16 9 25 15 17 12 7 13 19 25 20 16 24 23 21 17 16 17 20 21 15 14 20 20 14 13 12 11
14 12 16 13 10 9 9 9 9 7 10 14 15 18 12 10 10 10 13 12 11 6 9 12 16 19 29 18 9 10 9 10 8 7 10 24 23 21 17 15 16 18 18 19 20 16 15 10 17 18 16 14 14 12
15 14 11 11 8 8 8 10 11 11 15 18 15 12 10 7 9 14 13 15 14 11 7 8 6 12 23 27 11 8 11 8 9 15 28 27 24 16 18 16 16 19 19 19 16 14 16 16 15 15 16 16 15 14
13 12 11 9 8 8 8 9 10 15 18 13 10 7 11 11 10 11 13 18 17 16 14 9 9 13 16 13 19 13 8 8 10 18 23 19 15 15 16 14 17 19 17 15 15 15 15 15 14 14 12 16 17 15
14 11 12 9 8 9 9 8 7 15 18 11 9 9 6 12 12 12 13 13 15 15 16 16 14 16 15 10 11 16 15 15 17 12 5 3 9 11 16 15 15 12 8 12 16 17 17 17 15 13 13 13 17 16
18 10 9 9 9 11 9 8 12 10 14 11 9 14 5 6 9 9 11 13 10 14 14 14 12 12 13 15 14 18 16 17 13 11 3 6 10 11 15 18 16 12 9 11 14 17 18 17 17 17 16 14 13 14
12 13 11 10 10 12 8 5 12 8 12 14 9 8 14 20 13 8 11 10 13 19 24 15 8 14 9 13 20 31 21 18 19 18 11 11 12 13 18 17 17 13 12 11 15 17 19 19 18 16 15 14 16 18
13 13 13 12 12 9 9 8 10 3 2 3 5 8 9 12 13 9 4 9 17 9 10 18 15 19 22 20 17 17 18 20 19 17 21 18 11 13 15 15 13 13 14 13 16 18 17 15 13 14 15 18 19 19
13 13 13 13 13 14 10 6 8 7 2 2 8 13 11 11 11 3 3 9 14 9 11 14 9 13 24 17 23 24 20 17 10 15 17 18 13 15 12 13 14 14 15 16 16 17 17 17 16 18 19 19 19 19
12 13 13 15 12 12 9 4 4 3 2 1 3 9 10 9 3 5 3 5 5 5 2 3 2 3 5 8 12 11 8 14 15 14 5 21 20 15 14 10 9 8 13 16 16 17 19 19 19 20 20 19 19 19
12 11 12 13 10 12 5 5 3 4 4 4 6 11 10 11 8 11 12 13 13 4 6 5 1 1 2 4 4 4 7 17 20 12 17 20 19 17 19 10 8 9 7 12 19 18 17 20 22 23 21 17 18 18
14 11 9 10 9 5 4 5 5 5 3 1 2 5 10 11 10 11 17 21 18 13 10 9 7 6 6 6 7 8 8 2 8 15 15 23 21 17 19 14 8 9 10 10 14 15 15 17 19 18 19 19 19 19
17 10 9 5 5 5 3 2 0 1 2 3 5 6 3 3 5 9 12 14 15 17 19 20 20 19 15 15 14 13 10 6 1 7 22 24 20 18 16 16 12 9 9 10 10 11 16 17 15 16 15 14 16 16
6 7 3 5 4 4 3 2 2 0 2 3 2 2 3 2 3 5 7 8 10 11 14 14 13 13 12 13 16 19 21 18 13 10 12 17 14 16 16 16 19 18 12 15 16 17 19 16 13 11 11 7 7 9
4 3 4 7 5 3 2 1 1 2 4 4 3 3 3 4 5 3 3 3 6 7 9 12 12 13 11 14 11 13 13 16 18 20 18 22 23 21 17 18 18 16 17 15 17 19 18 14 10 9 7 5 6 9
4 4 6 7 6 2 1 2 2 2 3 2 2 3 3 3 4 3 3 5 6 7 8 9 10 13 8 12 12 13 14 16 17 18 17 20 26 24 22 20 22 22 20 15 14 18 18 12 9 10 10 9 11 12
7 8 7 6 6 3 4 4 4 2 1 3 2 2 2 2 3 7 8 8 8 7 7 2 2 8 7 5 5 8 11 12 13 15 17 11 16 16 17 19 23 17 22 22 17 25 24 17 11 12 7 10 13 13
10 10 7 6 2 3 6 6 5 7 13 16 14 8 5 5 4 2 6 4 1 5 8 13 11 6 6 5 6 4 7 6 3 4 6 9 11 9 7 13 15 11 20 24 23 29 34 30 22 23 15 6 9 12
12 7 4 1 4 6 8 10 8 6 2 4 8 8 14 14 8 4 1 1 3 5 6 5 2 7 7 6 8 8 6 8 7 4 4 7 7 7 12 13 14 14 23 32 32 38 33 28 37 30 20 18 15 17
12 6 3 1 8 9 11 11 3 11 6 13 18 15 9 6 5 6 5 5 5 6 7 6 5 8 11 13 11 9 7 8 9 6 9 11 11 14 18 15 17 10 9 12 13 14 19 24 28 22 21 14 14 12
14 11 7 4 8 3 8 9 24 14 12 9 10 6 4 3 4 6 7 9 9 8 7 6 5 4 4 5 4 7 10 11 16 10 17 15 15 11 19 15 6 6 3 2 4 8 9 9 9 8 6 7 11 12
14 11 8 8 3 2 2 10 17 15 13 11 10 10 8 7 7 7 7 9 9 10 11 10 9 8 6 3 1 4 8 10 11 10 11 9 8 4 2 4 6 6 3 7 7 7 10 7 4 3 7 14 14 14

GFSWCAN_700_spd_114.txt.gz
Wind_Speed
26 25 24 24 24 22 20 17 16 16 15 15 15 15 19 18 14 15 18 18 19 21 17 23 26 17 24 23 21 16 15 11 9 11 8 6 4 4 4 8 9 7 5 4 7 5 5 9 12 9 5 11 6 8
25 24 24 24 23 21 20 19 18 17 16 16 16 15 15 16 17 16 18 17 19 18 15 26 31 20 21 20 24 21 18 7 11 13 8 4 3 3 3 5 4 1 3 2 4 4 5 9 10 10 7 7 7 7
24 24 24 24 22 22 21 19 18 18 17 17 17 16 15 14 15 17 18 17 18 16 16 22 30 22 22 23 25 24 21 13 12 12 8 5 5 5 4 6 5 3 0 3 1 5 1 5 6 10 8 4 5 12
23 24 23 22 22 21 21 20 18 18 17 17 17 16 15 14 14 15 17 17 16 14 16 14 36 28 24 23 23 24 20 14 11 11 11 7 6 6 6 5 8 5 2 3 4 2 5 9 10 9 6 5 7 7
21 21 20 20 20 20 20 20 19 19 17 17 16 15 13 13 12 13 16 15 15 16 6 15 33 32 29 24 17 21 21 16 15 12 9 8 11 8 9 9 8 6 6 4 5 3 3 6 8 6 4 2 5 5
19 19 19 19 20 19 19 20 20 19 17 17 15 12 11 10 10 11 12 15 14 13 13 9 15 33 33 29 28 18 15 17 18 17 16 16 11 12 11 16 12 7 7 3 3 3 6 2 3 1 4 5 1 9
19 19 18 19 19 18 18 17 15 16 16 15 13 11 10 8 8 9 7 8 10 15 14 8 9 32 36 33 34 21 17 18 17 16 16 15 17 18 20 18 13 8 8 6 7 5 8 4 2 2 3 3 3 4
18 18 18 18 18 17 17 16 15 14 14 13 12 10 10 9 8 10 9 9 11 16 14 7 7 15 41 38 37 30 23 22 21 20 19 19 17 18 22 23 19 17 12 11 9 9 4 7 9 8 5 2 2 4
15 15 17 18 18 15 15 16 14 14 14 12 10 10 9 10 11 12 11 9 11 17 10 10 12 10 17 32 39 42 29 17 21 20 18 16 20 23 18 23 24 18 9 13 11 7 10 9 9 8 6 3 4 0
16 16 16 17 16 14 14 13 12 9 10 10 10 9 9 12 12 12 12 11 10 16 20 15 14 8 16 24 25 28 28 30 22 19 16 21 27 27 26 19 16 12 13 15 14 10 10 10 10 9 7 5 4 2
17 16 16 15 13 12 10 9 11 9 8 9 9 10 10 13 13 14 8 10 10 8 14 17 19 18 11 22 22 25 18 20 13 15 15 14 28 27 29 24 23 16 17 16 15 13 11 8 9 10 10 9 5 2
16 15 15 13 9 8 9 10 8 7 8 8 8 9 15 16 8 9 8 9 8 11 12 8 16 23 14 13 24 17 17 12 6 14 17 24 27 19 18 31 24 17 12 12 13 13 14 14 11 12 12 10 9 6
15 15 12 11 13 10 8 8 10 8 10 10 15 19 12 11 9 9 12 10 10 6 11 11 12 21 23 16 12 17 17 9 7 9 8 18 13 9 15 15 24 23 17 14 14 16 18 15 14 15 16 14 11 11
13 13 12 14 14 9 9 11 13 14 13 18 11 16 10 7 9 13 13 12 11 9 5 10 9 10 17 21 10 7 7 6 5 11 19 17 17 19 10 15 18 22 21 19 18 20 18 16 13 18 18 16 15 13
12 14 13 10 10 9 9 10 14 15 15 16 8 5 11 10 10 9 14 15 17 14 7 7 9 11 13 11 15 10 10 9 11 17 18 12 19 14 15 16 20 18 18 18 18 19 17 17 15 16 18 17 16 15
13 13 14 11 10 10 11 9 10 16 19 14 9 8 5 9 13 10 9 11 16 13 10 11 11 9 10 8 9 15 19 14 11 12 7 10 8 10 14 20 17 17 18 18 17 17 17 17 17 15 14 14 17 18
16 16 13 14 10 10 11 12 8 18 14 11 13 15 9 4 10 9 10 9 12 13 15 14 11 9 8 10 10 12 18 16 21 17 14 10 5 5 11 18 16 17 17 14 15 17 17 15 16 17 16 14 14 17
16 16 12 11 10 11 10 10 12 10 11 17 11 8 13 11 11 10 8 7 10 15 15 14 12 21 19 14 10 16 19 15 13 17 15 7 8 9 11 16 17 18 16 12 13 16 18 19 18 17 14 15 15 14
8 10 10 14 13 12 9 6 13 5 8 7 6 10 10 12 14 16 12 10 12 13 20 21 12 14 16 11 8 7 8 18 21 19 23 24 23 17 16 20 20 19 16 14 12 14 17 17 17 17 16 16 15 15
11 13 13 15 15 10 13 7 8 8 3 3 5 9 8 7 10 16 15 10 7 9 9 8 6 6 7 14 18 15 16 16 17 16 12 16 15 11 16 18 18 18 16 15 15 16 18 20 20 19 17 16 17 18
15 14 14 14 12 12 7 4 5 5 4 3 3 7 10 9 7 5 3 3 9 11 8 3 6 3 5 7 6 22 20 19 18 19 14 11 14 14 20 17 17 15 13 14 16 18 21 20 19 19 16 17 18 20
15 16 10 14 11 9 11 7 5 5 3 5 4 5 7 13 9 2 6 8 7 5 8 5 2 2 3 2 3 8 10 15 15 16 17 12 17 17 16 17 15 10 8 9 15 16 16 17 20 19 20 21 22 22
14 13 13 10 5 6 7 7 6 4 3 3 3 3 6 7 10 10 11 11 12 11 10 10 9 8 6 4 4 1 4 6 5 18 17 16 18 24 18 16 18 14 11 9 10 16 19 17 18 17 19 24 26 23
13 9 6 7 7 5 5 5 3 2 2 3 3 3 2 3 4 8 9 7 5 6 9 11 11 12 13 13 11 7 5 6 4 11 19 14 21 23 16 14 18 16 13 12 11 13 15 18 18 17 15 18 19 19
10 7 5 5 6 5 5 4 3 3 3 2 2 3 3 3 3 4 5 5 6 6 8 9 11 11 9 7 9 12 13 12 10 7 5 14 22 19 16 14 15 16 18 18 17 17 18 21 19 21 19 18 15 15
4 3 5 6 6 5 2 4 3 0 1 1 1 0 0 2 3 3 3 4 4 5 5 6 7 7 6 5 7 8 9 12 14 13 12 13 14 17 17 16 18 20 20 23 23 20 20 23 24 21 19 14 12 13
3 3 7 8 7 3 2 2 2 1 1 1 1 2 1 1 3 3 4 3 5 4 4 7 8 9 10 8 8 9 11 11 13 14 17 22 21 23 24 26 26 26 24 24 23 24 22 23 22 21 18 15 12 10
4 7 7 7 4 2 1 1 1 1 1 2 2 1 2 1 3 6 7 6 4 4 4 3 8 3 5 4 3 3 5 7 10 12 13 18 18 19 23 26 27 21 18 28 22 29 25 24 24 21 17 14 12 13
9 8 7 5 3 4 4 4 4 4 4 6 9 8 5 6 6 6 5 2 2 2 2 6 7 3 4 4 2 2 5 6 5 2 3 6 11 12 11 14 16 17 16 16 21 25 27 26 30 31 30 26 18 17
10 8 6 3 3 4 10 9 7 5 6 2 4 8 5 2 5 6 5 2 3 4 6 8 8 7 10 8 4 6 6 5 5 3 4 4 7 9 8 6 10 13 13 15 16 22 28 31 35 35 39 34 35 27
11 5 3 5 6 11 2 5 5 6 5 7 12 15 9 4 4 4 5 5 3 3 2 3 4 7 9 11 11 8 7 7 5 8 10 11 12 11 9 14 13 10 16 11 10 13 14 17 16 22 21 28 25 19
11 7 2 2 8 7 4 4 9 10 15 12 10 10 5 5 6 6 7 8 8 8 7 7 6 4 1 1 3 7 8 9 10 9 12 13 13 10 8 10 14 6 4 7 9 9 9 9 7 5 11 22 23 20
12 8 4 10 6 7 17 19 20 15 13 13 11 9 6 5 5 5 5 6 8 9 10 10 10 10 9 8 7 6 5 1 5 7 7 6 4 3 2 1 2 2 2 4 6 6 3 5 7 8 12 14 17 18

GFSWCAN_700_spd_117.txt.gz
Wind_Speed
21 22 22 21 22 23 22 21 20 18 16 15 13 12 12 12 14 16 16 16 17 18 14 20 25 24 21 22 25 23 20 16 14 13 11 8 8 7 6 8 8 10 6 6 9 7 7 8 9 8 8 10 10 6
21 22 22 21 21 22 22 21 20 19 17 16 15 14 12 12 12 14 18 16 17 16 13 21 27 28 21 26 28 25 22 15 15 13 11 8 7 5 5 2 5 3 8 3 4 4 6 6 10 8 5 7 6 9
22 23 24 22 22 22 22 21 21 19 17 16 15 15 13 12 13 13 16 16 16 14 14 22 23 31 26 25 27 26 24 20 12 11 9 10 7 6 4 4 4 4 3 1 1 3 3 6 8 8 11 8 6 7
22 22 22 22 22 22 21 20 19 19 17 15 15 15 14 12 13 13 14 15 15 13 15 10 21 32 29 25 30 26 23 18 15 13 11 11 8 7 7 6 5 4 2 2 3 2 5 9 13 13 12 10 11 9
22 21 20 19 19 19 18 18 18 19 18 14 15 15 13 11 11 11 12 12 13 14 5 14 17 29 28 22 26 24 27 24 20 14 11 11 12 10 8 7 6 5 5 3 3 2 7 11 11 10 10 11 10 5
20 20 19 18 17 17 17 16 18 17 18 15 13 13 12 10 9 9 8 10 12 12 13 7 12 23 28 24 23 24 24 27 21 16 15 12 11 9 12 13 10 7 4 3 2 7 12 10 9 7 6 7 12 11
19 19 18 17 17 17 16 15 15 15 12 13 12 12 11 9 7 5 5 6 10 12 10 4 6 21 31 30 23 28 29 20 19 16 18 16 13 14 20 18 12 10 7 4 5 7 11 6 6 4 2 5 9 15
17 17 17 17 16 16 15 14 14 14 14 10 10 10 10 9 7 7 8 8 14 14 11 5 6 15 34 32 29 29 26 28 22 19 17 16 15 15 16 19 19 14 11 9 8 10 6 6 7 6 2 2 5 9
12 12 12 14 15 15 13 13 12 12 13 11 9 9 9 9 8 9 10 10 14 17 9 9 8 9 27 35 33 29 28 25 24 20 21 19 22 19 21 18 15 17 15 9 13 10 13 10 9 7 5 5 5 6
13 12 11 13 14 13 12 11 10 10 10 9 10 9 9 9 10 12 11 9 11 17 18 14 14 6 13 26 34 30 34 24 21 26 18 24 30 26 21 18 10 13 14 13 16 14 12 13 12 12 8 5 3 4
16 13 12 14 14 12 11 10 11 9 8 9 10 9 8 11 11 12 6 8 8 7 11 15 13 12 6 15 25 31 27 25 23 25 26 26 29 27 19 20 22 20 16 12 15 11 9 7 8 13 12 8 5 3
18 15 13 13 12 11 8 8 9 10 9 9 9 9 11 14 7 8 7 7 7 9 8 9 16 18 16 15 16 21 22 19 10 20 25 27 30 28 24 17 21 23 19 14 19 17 15 12 8 9 12 10 9 6
15 13 12 11 9 13 10 9 9 9 12 12 13 14 12 11 10 9 12 9 8 7 9 13 12 18 24 15 17 16 13 13 9 11 21 23 21 14 6 11 20 26 19 16 18 20 16 13 11 11 16 14 12 12
11 11 12 12 12 16 10 10 12 13 13 17 9 13 11 7 9 12 13 11 10 8 3 9 7 11 15 20 8 8 11 12 10 10 21 16 13 11 11 11 16 23 25 22 18 18 18 17 14 14 18 18 15 14
10 9 13 14 12 15 11 11 15 18 12 14 6 7 12 9 9 7 12 12 12 11 8 7 11 10 15 10 12 9 7 8 11 12 8 15 14 17 22 16 16 20 26 24 22 22 21 21 19 16 19 22 19 17
14 11 14 14 10 11 10 10 14 18 22 9 8 7 6 10 13 10 7 12 13 14 8 8 8 7 9 8 8 13 15 12 10 5 3 9 14 13 13 24 25 23 23 24 25 23 22 23 20 17 20 24 22 18
14 12 15 14 11 12 12 11 8 16 13 10 7 10 8 3 5 13 11 11 12 14 15 10 8 8 7 10 15 14 14 15 16 15 15 17 13 10 11 16 22 24 25 23 23 22 21 22 22 21 21 23 22 20
19 12 15 14 15 13 11 11 12 8 15 13 8 7 9 13 9 10 11 12 12 13 13 15 14 15 12 13 14 14 13 16 13 11 11 14 16 9 8 13 20 22 23 23 21 21 23 23 21 22 22 21 20 21
11 12 18 18 15 13 10 9 14 5 8 10 10 11 13 12 13 13 12 9 9 10 12 14 11 17 21 16 25 21 20 12 21 18 19 19 18 14 11 12 17 21 21 21 18 16 18 21 21 21 23 22 20 20
12 13 19 13 13 13 11 6 8 11 4 5 7 7 8 9 10 15 20 16 15 13 14 18 15 12 12 4 10 14 15 11 12 18 20 21 22 25 22 19 22 24 23 23 19 18 19 22 25 25 24 22 21 21
13 13 14 17 13 12 6 7 8 4 6 5 5 7 9 11 8 11 18 14 12 16 10 0 5 3 1 5 8 11 16 19 17 19 18 20 17 14 13 15 23 23 23 22 18 15 16 19 23 24 26 23 22 21
15 15 14 14 13 13 8 7 6 7 4 4 3 4 8 10 6 5 2 2 4 2 6 2 3 7 8 4 5 5 8 12 17 17 13 13 15 14 15 19 21 19 17 18 18 17 17 20 24 25 23 24 22 19
17 13 11 12 8 8 6 9 7 4 3 4 4 2 2 5 9 8 6 5 5 9 10 9 9 8 6 5 2 1 0 2 6 10 15 17 14 17 18 18 19 16 16 13 12 14 18 19 20 24 23 21 23 28
16 15 10 8 7 3 7 7 5 4 4 5 4 3 4 4 3 5 8 6 5 7 13 16 14 15 14 12 10 10 9 6 3 6 9 16 17 17 21 20 19 20 16 13 12 14 16 20 22 26 21 24 24 25
9 8 6 6 5 7 8 8 7 6 5 4 3 4 4 4 2 2 3 3 2 3 5 8 10 13 13 11 11 14 15 12 9 6 4 7 20 16 24 26 18 17 20 17 16 16 16 19 25 26 26 23 23 19
4 5 5 8 8 8 6 7 5 5 4 4 4 4 3 4 3 2 2 1 2 1 3 4 4 4 4 5 4 4 6 8 11 14 12 9 7 13 17 21 19 19 18 16 19 20 20 23 25 25 26 26 26 21
4 5 11 11 6 5 7 9 7 4 3 3 3 1 1 3 2 1 1 2 2 1 1 5 3 3 5 5 4 5 6 8 9 9 14 16 17 16 18 21 20 22 21 20 19 20 25 29 25 26 32 31 27 18
6 9 8 8 6 4 4 3 3 2 3 3 3 1 2 1 2 6 6 4 4 3 3 2 2 6 5 2 1 1 2 4 6 9 12 13 16 18 19 21 24 26 25 25 25 27 30 33 30 31 28 32 21 21
8 8 8 5 3 2 1 1 1 1 1 2 4 5 5 5 8 4 6 5 1 2 3 3 6 6 4 3 2 3 3 4 5 3 3 4 6 9 13 15 17 15 14 18 21 20 18 19 20 23 31 33 32 28
9 8 6 4 5 6 8 6 6 5 2 2 1 5 3 3 6 8 7 3 2 3 5 7 7 6 7 9 7 6 6 5 5 4 5 4 4 6 8 7 7 8 10 12 14 15 18 18 18 22 26 28 31 37
7 3 2 2 3 6 3 6 1 3 3 6 10 10 6 4 5 7 8 6 5 4 3 3 3 4 6 7 9 7 6 7 7 9 9 12 13 12 13 15 15 15 14 13 15 15 14 15 18 20 23 27 28 41
8 3 4 5 7 5 3 6 4 8 5 9 12 9 9 5 5 6 7 7 8 7 5 4 5 4 3 3 5 8 10 10 11 13 11 10 12 12 10 10 12 10 5 4 5 6 7 9 11 12 11 11 7 13
7 8 11 7 5 14 19 22 20 13 15 15 12 9 5 4 6 8 9 10 10 9 10 10 10 10 10 11 13 13 9 7 5 4 6 7 8 7 4 1 1 3 4 6 8 9 9 8 6 3 5 10 9 18

GFSWCAN_700_spd_123.txt.gz
Wind_Speed
24 23 22 20 20 18 19 19 19 20 20 19 16 15 14 13 11 11 12 15 17 19 19 22 23 24 20 17 8 10 15 16 21 21 21 12 12 10 10 13 11 12 15 16 12 8 10 5 6 6 7 10 2 6
23 22 21 19 20 20 20 20 19 18 18 19 17 16 16 15 13 12 12 13 16 20 15 16 24 27 27 24 22 15 15 15 15 21 19 11 11 10 10 13 9 11 8 12 7 7 9 8 8 9 14 8 5 10
23 22 21 20 19 20 20 22 20 20 17 18 17 17 16 15 14 13 13 12 14 16 15 20 24 28 28 32 25 27 20 11 18 19 13 15 12 11 14 11 7 11 9 7 7 9 7 7 7 8 8 3 4 5
24 22 20 20 20 22 21 20 19 19 17 17 17 17 16 15 13 13 13 13 14 15 15 5 9 24 29 28 33 26 27 21 21 21 14 11 10 11 9 6 8 11 8 5 9 11 6 4 7 6 5 5 5 12
23 21 21 21 21 20 19 18 17 16 15 15 15 15 15 15 13 12 12 13 13 14 10 12 17 13 20 27 35 26 31 24 20 16 17 16 11 8 12 6 10 8 6 4 2 4 5 8 7 7 9 9 9 9
23 22 22 20 20 18 17 16 14 14 13 13 14 14 14 15 13 11 13 13 13 14 15 10 9 12 14 22 30 29 30 32 31 17 17 15 11 8 11 11 10 7 8 7 3 1 4 6 8 6 9 11 10 8
20 21 20 19 17 16 15 14 13 12 12 12 13 14 12 13 11 11 12 9 10 13 11 5 5 7 12 16 23 26 26 29 28 22 18 11 12 13 10 8 7 10 10 9 5 7 9 8 7 8 9 10 10 9
17 17 17 16 16 14 13 13 12 12 11 11 11 11 11 12 11 11 12 10 8 8 9 4 5 5 10 13 19 19 18 26 31 34 33 18 9 14 13 9 8 9 10 12 8 8 8 10 10 8 9 9 10 14
17 15 14 14 12 13 13 12 12 12 12 11 9 10 10 11 11 11 10 9 7 10 7 7 7 13 11 16 16 19 15 19 19 24 27 24 18 19 18 14 9 7 14 13 11 9 11 13 11 9 9 12 11 10
17 14 13 12 11 10 10 11 12 12 12 11 11 10 9 8 9 8 8 7 8 12 16 15 11 6 10 16 18 17 18 17 16 25 21 29 30 19 18 13 9 7 10 15 14 13 16 16 15 12 10 9 12 15
17 16 15 13 11 10 10 11 12 12 11 10 10 10 8 7 9 8 6 6 6 5 11 12 16 12 11 15 21 20 14 14 9 16 23 22 31 30 23 19 18 13 12 17 16 16 15 17 17 15 13 12 12 13
17 16 17 15 13 11 12 13 13 13 11 9 9 9 9 10 8 8 7 7 7 7 7 8 14 14 4 12 14 19 12 11 7 14 21 28 22 19 23 24 21 17 16 18 18 18 17 17 18 18 17 15 14 14
15 16 16 17 15 13 12 13 13 13 13 14 14 14 8 8 8 7 8 7 6 6 7 11 12 14 11 9 12 10 10 12 4 13 16 18 15 16 21 23 23 20 20 20 20 20 19 19 19 20 20 18 16 16
13 14 15 16 17 15 14 13 13 15 15 15 14 10 9 7 7 8 8 5 5 7 10 9 9 12 12 10 7 5 7 3 8 12 14 9 11 6 11 13 17 20 22 23 24 23 21 23 22 20 21 21 21 17
12 13 14 16 16 16 15 14 15 16 19 13 8 5 10 8 7 4 8 9 8 7 8 11 12 13 12 10 6 5 2 5 6 13 11 9 11 10 11 15 11 11 18 22 25 26 24 24 24 21 20 21 23 19
12 13 14 16 16 14 19 19 16 15 16 13 10 7 6 10 9 9 7 8 10 10 12 13 9 8 9 8 9 9 8 5 3 7 5 7 12 16 23 20 17 13 14 15 25 25 24 28 27 23 20 18 19 23
10 13 13 16 15 10 14 16 16 16 10 8 6 13 5 7 7 6 9 7 7 10 11 13 6 6 7 11 14 10 13 12 9 3 11 10 7 6 10 14 16 19 18 19 26 27 25 27 28 26 25 21 18 17
15 13 14 16 11 15 13 12 12 10 15 16 9 7 8 9 7 6 7 9 11 14 12 11 7 8 3 4 6 10 11 7 11 9 10 8 17 15 13 12 11 11 14 24 25 30 30 28 29 28 26 23 22 21
19 13 12 12 13 16 14 13 18 7 11 11 14 14 10 10 12 12 10 7 11 12 12 14 8 8 12 12 14 7 7 13 8 9 8 17 18 17 13 12 8 9 13 21 25 24 29 34 30 24 26 26 26 26
15 13 14 13 17 17 13 9 13 14 8 8 9 10 10 11 11 9 9 8 10 11 11 11 10 7 12 11 16 5 8 10 12 10 7 9 16 18 15 14 14 4 7 13 21 25 22 25 27 24 24 26 25 28
14 14 13 19 20 16 10 7 9 7 11 12 10 13 12 10 9 10 12 12 13 12 8 7 9 8 13 15 11 9 10 10 10 10 11 12 5 21 18 16 15 14 10 9 16 22 24 23 23 23 25 26 24 24
13 15 14 18 18 15 14 8 9 11 9 8 8 9 8 8 11 12 12 14 13 11 12 9 7 11 9 5 2 4 1 4 9 11 12 12 13 9 12 15 15 16 15 12 14 17 21 18 20 23 22 20 22 22
12 13 16 15 14 11 10 10 8 8 6 6 5 7 7 9 9 7 8 12 8 8 6 8 9 8 9 7 1 2 2 3 3 2 4 9 13 14 10 12 14 11 12 16 19 18 22 23 25 22 20 20 25 24
14 15 10 9 7 7 9 10 9 8 7 6 4 3 5 7 8 7 4 3 6 7 7 9 11 8 6 7 7 11 5 2 3 5 6 6 5 7 8 8 11 13 14 18 18 17 18 22 22 16 20 22 26 29
11 11 6 9 8 6 8 8 9 9 8 7 6 4 3 6 5 3 4 4 3 4 4 5 8 10 11 10 7 7 10 8 6 9 6 5 7 5 4 8 11 10 15 18 17 20 17 21 12 15 16 19 21 25
7 5 8 9 6 9 9 7 10 8 5 4 4 4 6 5 3 3 5 4 3 4 3 4 5 5 5 5 5 5 3 4 4 6 8 4 5 4 8 15 13 14 16 20 23 24 13 16 19 16 15 19 21 23
4 4 11 12 11 11 11 9 6 3 3 5 4 3 3 3 2 3 5 4 3 3 3 4 2 3 5 4 3 4 5 5 5 6 11 10 8 10 10 10 13 13 15 19 24 24 29 24 24 25 25 24 22 20
9 13 9 8 10 10 8 4 3 3 3 2 2 3 2 3 2 4 5 4 5 3 2 3 6 6 7 6 3 2 4 4 6 4 3 5 7 10 11 14 18 17 18 16 15 15 16 19 21 22 22 25 25 27
13 10 8 9 11 7 3 1 2 2 3 2 4 3 3 2 1 3 3 5 3 1 3 2 3 7 6 2 3 4 3 9 9 6 6 6 7 5 4 7 9 11 15 16 17 19 19 23 27 31 29 26 31 29
10 10 6 4 3 4 3 3 2 1 1 2 4 7 7 7 7 7 7 6 3 3 2 1 1 3 1 6 6 7 6 0 2 2 5 5 7 6 8 8 7 7 8 9 13 15 14 15 15 15 16 16 17 18
6 3 1 3 1 3 7 7 2 1 3 5 9 9 6 7 7 7 7 7 6 5 8 9 6 5 3 3 1 3 5 8 8 8 9 3 5 9 5 5 5 6 8 10 10 8 12 13 11 13 14 16 18 21
5 3 2 3 1 1 4 6 7 5 7 6 7 9 11 11 4 5 9 11 12 9 8 9 7 8 5 3 2 4 3 6 7 6 4 4 4 3 5 5 6 5 5 6 6 6 8 8 10 14 14 16 18 20
6 6 10 8 6 6 8 8 7 5 7 11 12 13 13 4 5 4 7 11 8 6 8 8 9 10 9 9 9 9 9 9 9 9 9 8 6 5 6 2 4 6 6 5 5 9 10 10 8 12 11 12 13 13

GFSWCAN_700_spd_129.txt.gz
Wind_Speed
26 26 24 22 21 21 20 19 18 16 16 15 15 17 16 17 15 15 16 16 17 20 14 17 17 20 32 7 5 7 9 12 17 16 11 11 9 20 13 14 11 12 9 13 16 19 5 4 8 8 12 17 21 27
26 25 24 22 20 20 19 17 17 17 16 15 16 17 16 16 16 15 16 18 17 20 16 15 16 19 14 21 15 10 13 8 6 12 14 7 11 10 10 14 13 18 22 9 10 11 14 15 14 8 13 17 21 24
24 22 22 22 20 20 20 18 17 16 16 17 18 18 17 17 16 15 16 17 18 20 15 9 6 11 17 10 21 19 18 10 9 10 18 10 18 14 9 9 18 22 11 9 13 14 13 5 6 10 15 20 16 12
22 22 22 22 20 20 19 18 17 17 17 17 18 18 17 17 16 15 14 15 15 18 18 11 9 11 16 17 23 18 22 15 10 5 6 2 15 18 16 12 13 18 18 13 13 17 16 8 12 15 13 12 15 13
22 21 21 21 20 18 18 17 18 18 16 16 16 15 15 15 14 13 13 13 13 13 18 9 13 5 7 18 11 27 19 32 7 4 3 2 9 13 13 11 21 13 7 15 14 10 8 9 16 15 12 10 12 2
22 20 20 19 18 17 18 17 17 16 15 14 13 12 13 13 13 13 12 13 11 11 15 13 8 14 10 10 11 22 26 30 21 19 10 2 8 12 16 13 8 11 10 13 11 8 8 9 3 8 1 12 12 11
21 20 19 18 17 17 16 16 15 14 13 12 11 11 11 11 11 11 10 9 8 9 11 6 3 2 7 13 16 15 28 22 27 23 21 2 4 5 18 18 12 3 14 16 13 7 5 5 4 6 7 8 3 6
20 18 18 16 15 13 14 13 12 12 11 10 9 9 9 10 11 9 10 10 9 9 8 4 4 3 8 14 15 17 23 30 26 26 23 16 5 9 17 20 14 7 13 11 7 5 5 3 3 5 10 4 3 2
17 16 15 14 12 12 11 11 11 11 10 9 8 8 7 5 4 7 9 9 9 10 6 8 10 7 12 16 19 18 19 23 24 30 24 24 27 18 24 12 14 14 17 21 6 9 8 11 6 4 7 8 4 4
15 14 13 13 12 11 9 8 9 10 9 8 7 6 1 2 4 6 6 7 10 14 19 17 11 10 5 16 10 19 20 20 20 32 25 34 37 39 19 21 16 13 14 11 11 10 12 15 11 8 12 10 12 9
14 14 14 13 12 10 9 8 8 8 8 8 8 6 6 6 4 4 5 5 5 6 7 7 13 15 7 18 17 12 20 13 16 20 25 25 36 28 28 28 15 18 16 19 17 12 12 14 14 15 8 6 10 11
13 13 13 13 12 12 10 9 8 8 8 7 6 7 7 4 5 5 5 6 7 4 4 4 1 7 13 10 17 15 8 6 5 12 23 37 37 29 26 30 34 25 20 21 25 21 18 13 13 15 12 11 8 10
12 12 13 13 13 13 11 10 8 7 7 8 10 7 5 6 9 7 5 7 5 8 5 4 6 8 13 11 7 6 6 7 4 10 11 20 8 18 16 22 31 22 29 26 22 23 22 13 22 21 17 16 14 15
9 11 12 13 13 14 13 11 10 10 12 11 8 8 7 7 7 7 9 12 11 17 12 14 8 13 15 7 10 4 7 4 5 7 12 17 15 21 18 16 27 33 30 32 27 22 28 16 21 21 20 21 20 19
8 9 10 11 13 14 13 12 12 13 16 10 6 7 11 9 12 10 13 10 12 8 15 4 10 10 7 3 3 4 3 4 5 8 11 17 12 18 16 18 23 26 29 29 29 27 28 25 22 21 22 25 24 22
7 8 9 11 12 13 13 12 12 13 17 14 10 5 1 7 12 12 13 2 5 1 4 8 7 6 11 4 4 5 4 4 6 8 7 8 22 26 19 9 14 17 14 17 27 25 22 29 29 26 26 29 29 27
5 5 6 10 12 14 14 14 14 17 13 11 14 15 9 9 8 11 15 12 13 13 11 6 4 5 6 4 7 5 1 3 8 7 7 10 11 8 20 20 22 21 23 24 27 26 26 25 30 28 28 33 32 28
5 8 7 8 14 13 17 16 10 10 15 17 10 4 7 10 10 9 10 14 7 3 4 9 8 9 5 5 7 6 4 7 2 3 8 7 6 5 5 9 20 23 27 23 25 25 25 25 30 34 26 29 33 27
6 12 8 11 15 12 9 11 16 12 12 10 11 12 9 12 10 8 6 7 6 7 10 9 6 10 13 10 12 6 7 9 14 8 3 9 11 9 12 14 17 16 14 16 26 27 26 26 32 36 33 31 32 31
11 11 11 15 12 11 9 4 9 12 8 5 10 13 13 16 14 13 14 9 11 13 9 9 11 5 7 8 7 11 11 14 14 18 14 12 14 14 14 14 16 20 16 16 18 22 26 27 32 34 37 34 36 32
12 10 11 16 18 14 10 6 6 7 7 9 8 10 11 9 12 12 16 18 19 19 15 5 4 10 10 11 12 15 12 11 13 11 12 18 18 14 16 24 22 21 15 14 17 19 22 31 34 34 34 38 37 36
13 11 11 14 13 13 13 10 8 8 10 9 9 9 10 8 9 11 13 19 19 12 8 6 4 8 8 8 4 4 7 12 9 13 16 18 15 9 16 4 20 22 21 16 16 16 22 29 30 28 26 37 36 36
13 9 10 7 10 8 4 12 12 11 10 9 8 9 9 8 9 8 12 12 9 6 6 9 11 8 5 7 5 10 8 11 9 10 14 11 11 9 9 11 11 23 15 14 19 19 22 33 34 26 33 33 36 38
14 10 9 5 7 4 6 8 10 9 9 9 10 11 7 8 7 7 7 7 9 10 11 8 2 5 7 5 8 7 14 20 18 10 12 13 9 3 16 18 17 18 19 14 18 19 21 15 25 28 15 23 29 41
9 9 5 7 5 5 7 8 5 7 10 8 8 9 6 3 5 4 6 5 6 8 4 6 6 8 8 8 7 8 6 9 6 8 5 8 7 5 10 18 24 23 25 1 13 14 13 11 17 13 15 16 13 9
5 4 5 6 8 7 6 4 5 7 7 10 6 6 3 3 2 4 3 2 5 12 7 2 2 2 3 10 11 8 2 4 5 5 6 5 5 2 6 2 7 14 15 5 14 22 14 13 16 13 11 12 18 23
4 2 5 6 9 6 4 5 5 6 6 3 2 1 3 2 3 8 9 4 4 4 2 1 1 5 7 6 10 9 4 8 11 11 12 17 11 8 5 12 10 7 11 9 14 17 18 10 13 15 16 20 21 21
4 2 4 3 3 3 5 5 5 4 5 1 1 2 2 3 6 5 4 4 6 6 4 3 3 7 1 12 12 13 8 9 9 11 8 9 10 8 7 6 5 5 3 4 2 3 9 9 10 12 13 12 11 8
6 5 5 4 4 4 6 9 2 5 4 7 10 8 5 5 6 6 9 7 8 5 6 6 5 1 5 2 10 11 8 5 3 14 17 13 10 9 13 9 12 11 8 5 2 3 6 8 10 10 11 13 12 13
6 11 7 5 4 3 4 8 8 11 16 15 12 11 12 14 14 10 11 11 9 10 7 5 7 2 8 11 10 5 5 5 2 5 9 7 4 8 14 12 9 8 9 8 6 6 9 8 8 7 8 11 12 12
11 7 7 5 6 5 5 7 10 11 16 15 13 12 13 12 11 13 11 9 6 7 12 12 13 8 7 7 6 1 9 8 1 5 9 10 11 13 8 15 13 9 11 13 15 14 16 10 8 9 12 8 7 8
2 4 5 6 5 5 6 6 8 7 11 11 9 12 11 6 6 12 16 17 7 4 5 7 7 9 7 14 12 11 14 14 7 3 2 5 9 8 7 1 5 4 4 3 4 3 4 9 13 13 16 13 11 11
3 3 3 3 4 5 6 6 8 12 11 12 15 13 10 4 5 13 16 12 12 5 10 10 13 15 13 9 9 12 14 17 16 9 10 11 9 7 6 7 12 12 10 11 11 12 13 15 13 14 19 17 16 16

GFSWCAN_700_spd_132.txt.gz
Wind_Speed
29 28 26 24 23 22 20 19 18 17 16 15 14 15 15 16 16 15 18 20 21 22 14 16 17 20 17 16 24 17 19 6 10 16 6 5 9 16 13 18 19 16 14 10 10 8 6 10 8 11 12 15 21 23
29 27 24 23 22 21 19 18 16 16 16 16 15 16 16 16 16 15 17 20 22 22 13 16 14 20 17 16 18 24 16 8 2 21 12 3 4 17 17 15 15 13 15 10 11 8 5 5 12 14 15 19 21 28
27 24 22 21 21 20 19 17 16 17 16 16 16 17 18 18 17 17 15 19 21 22 17 13 12 14 17 14 11 30 21 13 11 17 30 7 7 11 11 11 13 14 10 7 13 10 10 13 13 15 17 22 25 21
25 23 21 21 20 19 18 17 17 16 15 17 18 18 18 17 17 16 15 16 17 18 19 10 12 13 13 15 7 33 17 16 13 11 18 14 9 15 10 12 11 8 9 14 11 12 12 12 12 13 18 23 19 14
24 22 21 20 19 17 17 16 15 15 16 17 17 16 16 14 14 14 13 14 14 13 17 8 9 8 9 11 14 17 22 21 19 12 9 18 10 10 14 17 9 12 10 9 17 14 10 7 9 14 15 15 12 8
23 22 21 19 18 17 16 15 15 15 16 16 15 14 13 12 13 11 11 12 12 12 14 8 3 9 10 6 8 9 11 23 28 16 13 9 12 8 10 16 14 11 8 8 10 12 6 7 6 3 6 3 12 11
22 21 20 18 18 17 16 15 14 14 14 12 11 11 10 11 9 8 8 7 7 9 11 2 7 8 13 10 11 8 18 23 33 27 11 9 9 4 13 20 10 11 10 11 10 10 6 3 1 5 7 5 5 7
20 19 18 17 16 15 14 12 12 11 10 9 9 9 8 8 7 8 9 8 9 10 9 4 6 7 9 12 10 13 13 19 24 33 23 16 9 8 12 19 15 9 14 17 12 6 5 4 6 2 2 4 10 8
18 16 16 15 14 13 11 11 11 10 9 8 7 7 5 5 4 5 7 7 8 10 5 6 9 6 10 11 16 15 13 19 20 23 25 18 21 17 12 14 11 9 17 16 10 9 8 8 5 2 4 4 5 6
18 15 14 13 12 12 11 10 9 8 9 7 6 5 2 2 2 3 5 7 9 13 18 14 8 10 6 12 12 15 14 15 13 23 16 30 32 26 16 19 22 22 19 20 18 17 15 16 12 7 6 4 3 2
17 15 13 13 12 12 11 9 7 8 8 7 8 8 8 6 6 2 3 3 4 5 3 3 7 13 13 7 10 6 9 10 11 15 21 24 41 38 31 26 24 21 21 14 21 18 15 15 13 9 7 4 6 7
16 13 13 13 12 12 12 10 9 7 7 8 7 8 7 5 4 4 4 4 5 2 1 3 4 4 12 7 5 13 9 6 5 11 14 30 30 26 30 30 32 28 23 23 19 20 16 13 14 14 9 9 4 3
12 11 12 12 12 13 13 10 9 8 9 8 8 7 5 5 7 5 4 3 4 4 6 12 8 9 8 9 4 2 5 6 5 9 6 15 10 22 22 21 35 33 31 31 26 27 21 20 14 16 15 13 9 9
8 9 10 11 13 13 13 11 11 10 10 9 7 6 6 6 6 5 8 11 11 14 14 9 7 9 11 6 6 3 5 4 5 7 11 15 16 18 19 20 25 38 37 33 31 28 22 30 22 21 20 15 15 15
6 8 9 10 12 13 14 13 12 12 13 8 7 6 9 6 6 9 13 9 16 20 15 12 4 4 9 5 3 4 4 5 5 7 9 7 8 12 17 18 14 15 33 32 28 22 26 21 28 21 22 21 20 19
6 6 8 9 11 13 13 13 13 13 16 12 9 4 2 0 4 9 10 12 4 10 8 10 4 4 6 3 4 5 3 3 4 4 5 4 13 12 17 16 16 16 18 24 26 29 32 27 31 25 23 27 25 22
4 4 7 9 11 12 12 10 9 9 9 10 9 11 9 6 5 7 8 8 5 5 5 4 4 5 4 5 6 7 6 4 1 2 0 1 6 10 17 21 20 21 23 24 29 32 33 28 31 30 28 28 28 26
6 6 6 9 11 13 12 14 10 9 14 13 11 2 7 9 5 3 4 11 5 4 7 9 8 8 5 6 8 8 5 4 1 2 4 7 5 6 9 22 27 27 18 17 19 19 19 24 30 28 29 31 31 28
7 7 6 7 10 10 11 11 15 11 9 7 6 10 13 10 6 2 3 4 6 4 7 7 6 6 10 12 9 7 11 10 7 7 5 5 7 5 5 7 8 11 14 21 25 24 24 27 27 30 31 31 34 31
9 12 9 13 11 11 8 4 5 7 3 4 5 7 12 15 15 10 11 11 10 11 7 4 4 7 3 3 6 6 9 10 12 12 13 14 14 13 13 12 14 15 18 20 20 22 30 32 29 28 28 30 33 34
13 12 9 14 13 13 8 5 4 3 4 4 4 8 9 8 9 12 14 17 18 18 14 6 4 9 11 7 9 11 15 13 12 12 11 15 17 16 12 14 15 22 21 19 21 22 22 23 26 31 33 33 36 34
11 8 10 17 13 13 9 8 6 6 8 7 6 8 8 7 7 8 12 16 18 11 5 6 6 7 6 4 8 9 6 8 8 10 13 15 15 15 14 14 15 11 19 23 19 16 18 18 21 25 29 33 34 35
13 10 10 10 10 7 4 7 9 8 8 9 9 9 10 8 6 7 8 9 7 7 10 10 11 11 7 7 7 5 5 9 11 10 9 13 16 13 13 14 12 11 15 21 19 22 21 15 12 17 24 30 33 37
13 11 8 5 6 2 5 6 7 8 8 8 9 9 11 6 6 7 7 6 7 8 8 5 5 7 6 4 2 5 7 10 17 9 10 8 11 15 11 15 15 12 12 19 24 23 19 18 18 24 31 31 37 43
8 7 3 5 3 3 3 6 4 6 8 9 13 12 8 4 5 5 5 5 3 5 7 7 5 6 6 4 4 5 6 6 4 4 8 8 10 8 7 8 6 12 15 13 14 25 12 12 12 8 7 12 10 10
5 5 5 7 6 4 4 3 4 6 10 10 10 7 3 2 5 4 2 1 5 5 5 4 2 3 4 3 4 5 9 11 10 7 8 10 9 4 8 11 9 5 6 9 6 11 8 13 9 10 4 7 8 11
5 3 4 6 8 6 4 7 7 6 7 7 2 4 0 1 5 10 9 8 9 9 5 1 4 5 5 5 6 3 3 10 13 10 8 9 7 7 8 6 3 4 5 4 6 12 6 5 9 10 10 10 14 16
2 2 5 3 3 5 5 7 7 5 6 2 4 3 6 6 10 8 9 12 12 10 7 8 7 9 11 9 8 8 10 10 10 10 11 10 10 13 10 10 8 6 4 5 4 1 11 12 11 11 12 12 13 15
3 3 4 4 4 5 5 7 8 4 6 10 14 12 12 8 9 11 11 7 6 8 9 10 8 4 3 3 7 10 9 7 5 9 5 8 14 15 18 15 13 10 8 1 4 8 10 9 7 8 11 13 13 11
5 8 7 4 5 8 9 7 14 21 22 17 12 10 13 16 12 12 10 9 8 11 14 15 12 9 9 5 3 2 2 2 2 2 5 2 5 14 17 11 11 12 13 13 11 9 8 6 8 11 12 14 15 15
7 9 7 5 10 10 11 12 18 18 16 12 11 17 14 13 12 17 17 18 10 18 14 12 12 10 2 4 5 10 8 6 3 5 5 5 9 12 11 5 5 8 6 5 10 12 12 14 10 12 10 7 4 7
14 15 14 9 6 10 12 11 15 16 14 11 10 9 8 9 13 12 11 14 6 11 5 4 5 10 12 8 7 10 14 14 8 8 7 6 7 8 8 7 9 9 8 11 10 10 13 17 14 12 23 23 17 16
7 10 7 5 6 7 9 12 13 13 11 13 13 10 6 9 11 12 15 13 12 10 13 11 9 7 9 11 12 12 15 14 9 10 11 11 12 9 9 12 14 15 15 16 19 20 23 25 23 23 23 23 20 17

GFSWCAN_700_spd_135.txt.gz
Wind_Speed
30 29 29 28 26 23 22 21 19 18 18 18 16 16 16 17 17 17 19 20 22 24 17 20 17 13 15 15 15 11 14 18 18 14 13 6 10 13 16 26 33 28 19 16 17 11 6 12 11 14 13 15 20 20
30 30 30 27 24 21 20 19 19 18 17 17 16 16 16 17 18 18 18 21 23 24 14 12 19 17 15 14 19 13 11 16 18 19 12 5 8 13 16 18 22 20 17 18 14 10 9 9 9 11 17 16 15 20
29 29 27 25 23 21 20 19 19 18 17 17 16 16 16 18 20 20 18 20 22 25 21 16 15 19 13 13 17 14 16 16 18 17 20 10 8 10 12 15 23 17 18 17 12 10 10 13 14 15 14 16 17 23
27 27 25 23 22 20 20 19 18 18 17 16 16 16 17 19 19 19 18 18 18 21 23 8 14 14 14 13 18 12 23 21 17 21 26 17 11 8 3 10 19 20 17 14 14 11 10 13 15 10 13 17 21 19
26 25 23 22 21 19 19 18 17 16 16 15 16 15 17 17 16 16 14 15 14 14 19 10 10 9 13 10 9 17 17 24 22 16 14 19 28 21 1 8 12 15 17 15 11 9 11 13 11 11 13 17 12 12
24 22 22 20 20 19 18 17 16 15 15 15 15 15 15 13 13 12 11 11 10 12 14 7 4 8 7 8 9 13 12 24 29 16 12 16 9 24 19 12 13 11 14 15 13 9 8 7 9 14 14 8 6 6
22 22 21 19 18 17 16 16 15 15 13 14 13 12 11 10 9 8 6 4 6 7 12 6 3 8 10 7 7 13 17 9 19 14 21 18 16 11 27 24 11 16 16 14 9 7 4 6 12 9 4 3 5 7
21 19 18 17 16 14 14 14 13 12 11 12 10 9 8 7 7 7 9 8 9 8 12 6 5 7 11 12 10 11 9 15 15 15 24 20 7 6 14 26 21 18 21 13 11 8 7 8 4 4 5 4 6 12
20 18 17 15 14 12 12 12 10 11 10 9 8 6 5 4 4 4 7 8 6 8 6 6 8 6 9 7 12 11 13 14 13 15 16 25 25 14 15 19 19 15 16 19 17 12 6 2 3 4 7 1 5 4
20 18 17 14 12 11 11 10 10 9 9 8 7 5 3 2 1 4 4 5 7 15 19 16 8 7 6 11 7 11 8 12 8 10 16 24 38 24 27 22 22 19 18 18 22 19 14 11 6 3 2 3 4 5
18 16 15 13 12 11 11 10 9 8 8 9 8 8 9 5 5 5 3 3 4 5 1 3 2 9 12 5 5 8 10 9 6 10 13 8 26 30 30 31 26 25 27 23 23 20 15 10 7 6 3 3 4 3
16 14 13 12 11 11 11 10 8 7 7 8 8 7 7 6 4 4 4 4 4 2 0 1 4 2 14 9 3 4 4 4 5 8 8 10 15 23 29 32 30 28 25 24 24 24 22 16 13 9 5 3 1 3
13 11 11 10 11 11 11 10 9 8 8 9 8 7 5 4 4 5 4 3 3 3 3 4 4 4 7 5 4 5 4 7 7 5 7 16 9 9 18 37 32 28 30 28 20 18 22 18 14 12 9 7 6 3
9 8 8 9 10 11 12 11 10 11 10 8 7 6 6 5 6 7 8 11 14 10 10 12 5 11 7 4 5 4 3 4 3 4 4 7 9 8 10 20 29 35 35 31 29 23 18 17 17 19 14 13 15 10
7 6 7 8 9 11 12 12 12 12 11 6 4 5 7 6 6 11 9 16 7 7 14 9 7 4 9 4 4 4 3 3 4 5 7 5 6 16 19 15 19 30 40 40 36 33 26 23 25 22 22 19 17 19
7 5 6 7 9 11 12 13 13 12 13 10 7 4 5 5 7 6 10 11 8 7 7 9 6 2 4 3 4 4 3 2 4 5 6 6 1 4 6 11 14 19 40 40 38 35 31 26 25 18 21 25 22 22
3 4 5 8 10 11 12 12 12 11 8 8 6 8 5 5 4 4 5 8 6 1 3 6 3 4 4 4 4 4 6 6 6 3 3 6 5 1 9 11 12 13 12 16 26 35 31 28 27 31 24 26 28 25
5 3 3 8 10 10 9 8 6 7 12 7 6 4 10 8 7 7 5 2 4 1 5 8 9 8 5 4 5 6 5 7 2 2 5 4 3 2 3 5 10 9 13 17 20 25 27 28 29 32 32 30 28 27
6 7 6 3 5 12 10 9 13 8 6 6 5 11 12 7 6 6 4 2 2 3 5 6 7 10 13 13 9 5 6 9 8 7 7 8 3 5 7 9 10 15 24 21 20 20 19 18 17 17 23 24 28 28
10 11 7 10 9 10 8 3 3 6 2 3 3 6 11 11 12 13 11 9 8 11 14 9 4 3 6 8 11 11 15 13 10 12 13 13 15 13 11 12 15 14 13 18 23 26 23 21 21 19 20 25 28 28
12 10 10 15 13 14 9 4 6 4 2 1 1 5 7 8 9 9 12 15 15 16 14 8 5 8 13 9 4 6 7 10 9 10 10 11 13 14 14 15 16 17 16 19 20 21 25 24 23 27 30 26 29 27
9 10 8 11 11 10 11 9 7 6 6 4 4 5 6 6 8 9 10 13 12 7 5 7 10 9 9 9 10 10 5 6 5 6 9 9 8 10 14 16 18 18 17 18 21 26 22 22 24 23 23 30 34 32
10 7 8 12 7 6 5 9 9 8 7 7 7 8 7 8 6 8 8 6 3 6 8 10 10 11 11 8 9 8 8 7 9 12 13 12 9 7 7 10 14 15 14 12 13 14 18 17 15 12 15 19 22 22
12 9 9 7 8 5 8 7 7 8 9 8 8 9 12 6 8 7 6 4 4 4 6 8 8 8 10 9 6 6 8 7 9 11 6 5 3 7 9 10 11 15 14 14 12 16 16 16 15 16 15 14 18 20
11 8 4 6 4 6 4 5 6 7 8 8 12 15 5 3 8 6 4 2 1 3 6 7 4 3 5 2 2 4 6 9 8 3 4 4 5 4 6 8 3 4 8 13 12 11 19 20 14 13 13 16 11 9
6 5 4 6 6 5 4 4 5 6 10 13 10 8 3 1 5 4 4 8 6 3 6 6 6 3 0 1 1 4 4 8 6 2 9 9 8 2 8 8 4 4 4 1 3 4 6 10 11 14 14 13 13 10
5 4 6 7 8 7 8 7 9 12 12 9 2 2 2 3 6 10 9 10 11 6 6 9 7 6 5 4 4 7 7 7 7 8 8 6 4 3 5 5 5 5 5 5 2 2 7 13 10 12 11 13 16 16
1 2 5 4 2 6 7 8 10 7 5 1 5 1 4 5 16 12 11 13 12 12 12 11 11 11 11 10 13 12 11 12 11 10 9 8 11 11 9 8 7 7 6 5 5 3 0 4 7 7 10 11 14 16
1 4 5 6 6 6 8 6 8 7 17 13 15 15 13 12 13 11 11 9 9 16 12 10 8 5 9 7 6 7 5 7 8 9 7 8 12 15 16 16 14 10 7 3 4 7 7 10 12 12 11 13 14 15
5 8 7 4 4 9 12 7 17 18 17 16 14 18 17 15 15 11 9 7 14 15 11 8 9 10 8 9 5 2 1 5 3 4 9 10 12 16 16 15 13 14 11 9 12 11 9 11 9 9 8 10 12 14
8 5 4 3 5 9 15 21 19 16 19 20 16 15 15 13 16 21 13 12 15 13 13 11 8 6 6 8 14 12 8 5 1 5 8 10 11 13 12 10 9 13 14 14 16 18 18 18 21 21 20 21 20 15
17 15 11 10 11 16 24 18 17 14 17 16 14 12 8 8 22 18 14 9 11 9 9 9 11 12 12 12 13 19 14 12 16 12 11 11 11 10 9 10 12 13 14 15 17 18 19 20 22 23 25 26 25 22
12 11 10 10 13 15 16 16 16 13 8 12 12 8 11 11 14 15 13 10 8 7 10 10 9 7 9 11 12 16 17 15 15 18 20 19 17 16 15 12 12 13 16 19 21 23 24 25 27 27 26 24 23 22

GFSWCAN_700_spd_141.txt.gz
Wind_Speed
25 24 25 22 22 26 26 25 24 22 20 19 18 17 16 16 15 14 16 16 17 19 17 17 14 17 17 19 16 8 6 5 9 11 10 11 11 27 24 11 15 30 23 19 21 13 9 15 13 18 8 7 8 10
23 22 22 22 25 24 25 24 22 20 19 19 18 17 16 15 15 14 14 17 18 20 17 21 19 20 17 12 18 11 9 7 7 9 10 12 7 23 32 14 14 22 32 27 25 27 8 7 5 8 11 11 11 11
20 19 22 24 24 25 25 22 20 19 18 18 17 16 16 15 15 15 14 17 19 23 21 12 6 8 13 16 19 16 8 14 15 15 10 10 12 12 21 32 27 22 23 27 26 29 20 14 10 12 11 11 11 11
20 23 25 25 24 24 22 21 20 18 17 16 15 15 15 14 14 15 15 16 17 20 22 9 6 8 14 16 11 12 9 12 15 16 11 13 13 15 11 17 23 31 36 33 31 22 21 17 13 12 12 10 10 11
20 21 24 24 24 22 21 20 18 17 16 15 14 13 13 13 14 14 13 14 14 13 16 11 6 5 4 8 10 12 8 15 13 17 16 15 16 10 18 21 8 17 27 29 28 25 17 12 10 13 13 12 11 11
22 22 22 22 21 20 20 19 17 15 14 13 13 12 12 12 12 11 10 8 6 9 12 5 1 3 3 5 9 12 12 13 18 20 17 23 17 17 13 18 23 13 20 22 20 23 19 13 9 11 13 12 12 12
22 23 22 21 20 19 19 17 15 13 12 11 11 11 10 10 8 7 6 3 4 2 10 8 3 2 2 6 7 6 6 10 15 27 28 26 27 19 24 26 17 22 18 15 17 18 17 10 8 10 12 13 11 8
22 22 21 21 20 18 17 16 13 11 9 9 9 8 7 6 5 6 4 7 6 8 10 6 4 4 3 6 7 8 8 13 13 16 14 20 19 23 22 28 33 20 12 16 12 12 13 11 8 10 11 8 10 9
22 21 20 20 19 18 15 13 10 8 7 7 7 6 4 3 2 1 2 8 11 12 5 5 4 4 2 4 8 9 9 8 11 10 13 10 24 20 28 31 32 21 23 20 21 20 19 12 9 6 7 9 10 10
20 20 20 19 17 15 13 11 9 7 7 7 6 4 4 4 5 5 3 3 6 7 12 11 7 10 7 2 6 8 8 7 5 8 6 7 16 34 22 26 33 38 28 26 26 19 16 11 7 8 7 8 9 8
20 19 18 17 15 12 11 10 9 8 7 6 6 7 8 5 3 4 3 4 4 4 4 1 1 4 9 8 4 2 1 3 3 4 5 4 6 8 7 25 28 31 44 41 31 24 22 11 10 10 7 7 7 7
18 17 15 13 12 9 9 9 9 8 7 6 6 8 10 7 4 5 4 4 3 3 3 0 2 4 5 10 3 2 3 3 3 6 3 4 2 12 10 23 33 31 32 35 33 30 27 19 15 9 7 5 5 5
15 13 11 9 7 7 7 8 9 8 7 5 6 8 5 6 7 4 4 4 3 3 6 5 4 1 5 6 4 3 2 4 4 5 4 5 8 10 10 17 34 31 30 30 30 35 31 29 23 18 13 10 6 6
12 10 8 6 5 6 7 9 9 8 8 7 5 5 6 4 5 6 6 7 8 11 7 5 3 3 5 6 3 3 4 4 3 4 3 11 12 6 6 10 32 30 31 28 26 28 28 27 25 22 19 16 11 5
10 8 6 4 4 6 7 9 9 9 9 6 5 4 6 7 6 5 5 5 11 11 12 7 6 6 10 4 4 4 3 3 3 6 8 9 6 7 4 7 23 32 30 26 25 24 24 24 25 23 24 20 17 14
9 6 5 4 4 6 7 8 9 10 10 6 5 3 2 4 7 5 6 6 11 12 4 10 4 2 7 5 3 3 2 2 4 9 9 13 5 2 3 4 13 26 27 27 28 26 26 24 19 24 28 22 20 17
6 3 3 4 5 6 7 7 9 10 7 5 4 6 6 4 6 6 4 5 7 6 7 5 3 2 2 3 3 2 2 5 7 9 9 19 11 13 3 4 7 19 32 26 28 31 25 24 21 24 29 25 21 20
3 3 3 1 3 4 6 4 3 6 8 9 8 7 7 9 4 4 5 7 9 2 3 4 5 5 2 2 3 2 6 7 6 9 11 11 14 17 5 2 7 7 13 22 27 30 31 29 27 25 24 24 24 23
5 4 4 1 11 7 1 3 5 5 4 4 7 10 10 8 8 7 7 11 3 1 2 3 3 4 7 11 8 8 7 7 7 8 10 12 9 7 7 7 7 2 8 13 13 16 20 24 28 29 29 29 28 30
11 8 7 5 8 10 3 3 5 5 2 3 5 7 8 7 10 9 8 8 8 9 9 9 7 8 6 6 8 8 10 12 12 13 11 13 11 7 7 6 6 4 2 2 8 11 10 14 17 18 22 28 29 29
6 6 6 7 10 8 6 3 4 4 4 4 4 4 4 5 8 10 12 14 17 19 18 12 7 9 11 12 11 13 7 6 7 7 5 5 7 7 7 6 6 7 9 11 12 12 14 14 20 23 28 21 21 22
6 6 4 6 9 4 6 7 5 6 9 3 4 4 4 4 6 7 9 12 12 9 10 9 13 16 13 6 6 6 5 5 5 7 7 6 7 8 8 8 9 10 10 10 11 11 12 16 19 22 24 24 24 25
9 6 4 4 8 6 5 6 7 6 4 3 5 8 6 5 6 8 9 7 4 6 5 5 6 5 4 4 2 2 5 5 6 8 10 11 13 11 7 6 8 8 9 10 9 8 6 7 13 20 20 19 20 21
10 7 3 3 6 4 5 3 3 4 5 6 7 7 8 9 11 11 9 5 4 5 4 3 3 2 3 5 6 7 6 6 5 6 6 7 3 4 2 6 8 6 5 5 9 9 9 8 9 13 15 16 15 14
4 6 4 5 3 3 2 2 3 5 7 7 10 11 10 13 10 7 7 3 2 2 3 4 4 2 3 2 2 3 6 9 10 4 5 2 2 1 5 9 8 5 4 4 4 5 7 9 8 11 12 12 12 13
6 5 3 3 5 4 3 3 4 7 10 11 9 11 9 3 6 4 7 6 3 3 4 7 4 3 4 4 4 2 4 9 13 9 8 7 4 6 8 7 7 7 7 5 2 3 5 4 5 9 10 10 8 10
6 4 6 7 8 7 8 7 9 12 12 14 17 8 3 6 9 7 11 9 6 3 4 11 5 2 3 5 8 12 13 13 11 12 11 9 9 9 8 7 6 6 5 6 6 4 2 1 2 5 7 8 13 15
4 3 3 5 5 4 9 9 12 14 12 9 8 4 2 1 5 11 16 14 18 17 16 15 14 13 11 13 15 14 13 11 10 11 10 10 10 11 13 14 13 11 8 5 2 1 3 5 8 8 10 12 16 15
2 1 5 6 7 9 11 13 16 16 6 4 5 5 14 19 16 19 28 24 18 16 13 12 12 12 10 8 6 7 11 11 7 7 10 8 7 6 7 7 8 8 8 7 7 8 7 7 7 6 5 7 8 10
6 7 7 8 10 13 12 7 10 14 16 18 17 15 17 18 21 24 19 19 21 17 13 12 13 10 9 6 4 5 5 3 5 9 8 7 7 7 6 5 4 5 7 9 9 10 11 11 11 11 11 11 12 12
6 5 7 10 7 11 14 17 24 20 20 22 17 15 25 25 25 24 19 15 16 16 17 16 16 15 12 10 8 5 5 6 7 9 10 12 12 11 10 9 8 8 9 10 11 11 10 13 14 15 16 18 18 18
9 10 5 7 14 17 24 20 24 25 19 15 20 15 15 17 22 23 18 18 17 16 16 15 14 15 12 9 5 5 7 9 11 12 12 12 11 11 10 9 9 9 10 11 12 13 14 15 16 16 17 17 17 17
20 20 19 21 27 20 19 20 18 14 11 10 10 17 17 16 18 18 15 17 14 12 12 11 9 8 8 9 11 13 14 13 12 13 14 14 15 14 13 12 12 12 12 13 14 14 15 15 14 14 14 14 15 15

GFSWCAN_700_spd_144.txt.gz
Wind_Speed
37 32 26 22 21 20 21 23 23 23 21 19 18 17 16 15 14 14 14 14 14 16 15 17 18 12 13 16 15 10 6 9 9 13 14 17 17 22 21 23 17 22 22 23 23 23 12 14 15 16 10 14 11 7
32 25 21 21 18 21 23 24 23 21 19 18 17 16 15 14 13 13 13 14 16 17 15 17 19 20 18 18 16 13 14 11 12 8 8 9 10 15 21 22 19 22 19 23 22 22 12 9 11 11 11 13 10 9
28 21 19 21 23 23 24 24 22 20 18 17 16 15 15 14 13 12 12 14 16 19 17 11 9 10 14 18 20 18 16 15 15 17 13 10 10 8 16 30 16 22 32 26 21 24 21 16 10 9 16 16 12 12
18 18 22 24 23 23 23 21 20 19 17 16 16 14 13 12 12 11 11 13 16 17 18 7 6 10 11 14 15 13 18 14 17 18 17 21 15 12 10 12 20 12 23 31 26 18 20 16 18 14 15 17 14 12
16 18 20 20 21 21 21 19 19 18 16 15 14 12 11 11 11 11 11 13 12 11 13 14 12 7 8 10 12 14 14 12 14 16 17 19 24 20 12 13 13 20 20 33 28 20 16 24 21 19 17 18 14 13
17 20 21 21 21 20 20 18 17 16 15 13 12 11 10 11 10 10 9 9 6 5 9 2 5 5 5 5 9 15 16 11 14 16 13 14 15 18 10 14 17 9 17 26 29 24 25 26 23 18 18 16 14 13
19 21 21 21 21 19 19 17 16 15 13 12 11 10 9 9 8 7 7 7 4 3 6 7 2 3 3 6 9 12 15 13 14 17 18 19 17 15 22 16 7 19 14 14 21 26 27 25 22 17 15 12 12 13
21 23 22 21 20 19 18 17 15 13 11 10 8 7 7 6 6 5 6 7 7 4 7 5 4 2 3 7 8 10 10 11 11 15 19 19 19 26 27 26 17 17 21 15 14 19 22 22 19 14 9 12 12 11
21 20 20 20 19 19 17 15 13 11 9 8 6 6 5 4 4 3 3 5 8 8 4 6 4 6 4 3 8 9 10 13 13 17 17 11 15 20 25 18 29 18 18 25 25 22 13 14 16 15 13 9 10 12
18 19 19 19 19 18 16 13 11 9 8 6 6 5 5 6 6 3 1 3 4 9 13 14 11 8 9 9 8 11 12 13 8 12 10 12 19 12 26 19 20 32 26 27 21 21 16 15 19 13 9 11 12 13
18 18 19 18 17 15 13 11 9 8 8 7 7 9 8 8 4 4 3 5 4 4 7 4 2 4 7 8 6 5 1 5 5 5 5 4 2 7 10 24 22 24 29 25 25 27 23 16 13 10 9 9 9 11
17 17 17 15 13 11 10 9 8 8 8 7 8 9 8 8 4 3 4 4 5 5 6 8 5 4 7 9 7 4 4 4 4 5 3 3 4 5 6 14 20 31 32 28 30 24 19 19 16 11 10 8 6 9
15 14 13 11 9 8 7 7 8 8 7 7 7 10 6 7 8 5 4 5 4 5 7 5 4 3 2 7 6 5 4 5 5 3 3 3 7 10 5 11 18 23 30 33 41 40 27 23 20 15 13 9 6 6
13 12 10 9 6 5 6 6 7 8 8 8 7 7 6 5 4 7 7 6 8 8 7 8 5 2 6 6 5 3 5 4 3 3 1 8 10 7 7 6 8 20 26 25 26 30 37 34 29 23 19 14 9 7
11 10 9 7 5 5 5 6 8 9 9 6 5 4 5 6 7 7 7 8 9 13 13 11 7 8 6 5 4 4 3 3 2 5 10 10 13 7 5 6 5 19 26 19 19 19 24 31 31 33 26 21 16 12
9 9 7 5 5 5 5 7 9 10 10 6 6 4 2 3 5 7 7 8 11 7 3 9 7 3 6 4 3 4 2 2 5 6 8 10 9 4 2 3 12 20 26 20 16 15 20 25 28 26 22 24 22 18
8 5 4 3 4 5 7 7 6 8 7 6 5 6 7 5 6 7 5 6 6 7 4 4 3 2 1 3 3 2 2 9 7 7 13 16 18 9 4 7 6 17 28 27 24 15 23 18 19 21 23 24 27 22
6 3 2 1 4 5 7 6 4 4 7 8 7 7 6 6 7 4 6 7 8 6 3 4 6 4 2 2 1 1 4 5 8 9 10 13 14 18 12 5 6 6 19 22 26 19 16 20 18 18 17 25 32 29
6 7 3 5 10 5 2 5 5 5 5 5 7 9 8 6 8 7 7 7 7 1 1 1 3 4 4 6 5 6 7 7 8 10 14 14 11 8 7 10 13 5 10 10 20 25 19 22 26 24 23 21 25 28
7 7 5 14 13 5 4 2 4 5 2 5 4 5 5 6 8 8 7 7 6 7 6 6 4 5 6 9 8 7 9 9 7 6 10 9 6 5 4 5 6 5 1 17 15 18 20 20 23 25 28 29 28 28
8 6 7 10 11 12 5 4 4 3 4 2 2 2 3 5 7 8 9 11 13 13 12 10 10 11 13 12 9 9 10 7 5 6 6 6 5 5 4 4 3 4 4 9 10 12 16 18 20 23 25 26 27 29
7 8 5 5 8 8 5 7 6 5 8 3 2 1 2 4 4 5 8 10 10 8 9 9 10 12 11 7 6 3 4 5 5 4 5 6 7 6 6 6 4 6 6 7 8 10 12 14 16 19 19 23 26 25
11 8 6 4 6 6 3 5 6 4 3 2 2 4 3 2 2 4 6 6 6 7 5 5 6 5 5 6 5 4 3 6 6 8 6 8 11 13 9 4 5 6 6 8 10 11 12 14 14 15 17 20 21 20
11 8 4 2 4 3 4 3 3 2 2 3 3 4 6 4 6 8 9 8 6 6 4 3 3 2 4 5 3 4 6 8 6 2 3 4 4 6 2 3 5 5 4 3 7 12 11 10 8 9 12 14 12 12
6 7 4 4 3 2 2 2 2 3 3 4 6 7 7 8 11 10 6 4 3 2 3 3 4 2 2 3 3 1 4 8 7 3 1 2 3 2 5 6 3 4 3 2 1 3 7 9 8 9 10 12 13 13
6 5 5 4 5 5 5 2 4 3 8 9 6 6 8 10 4 3 4 4 1 3 5 6 3 2 4 4 3 1 7 12 13 9 8 5 3 4 5 5 6 6 5 4 2 5 2 3 4 5 6 8 8 11
6 4 5 7 8 7 8 8 8 9 9 12 13 14 6 5 6 5 6 5 7 8 8 7 4 3 5 6 10 15 14 16 15 13 11 10 9 9 7 5 4 5 8 8 6 4 3 4 3 4 8 12 12 14
4 3 3 4 5 8 9 9 10 11 10 8 11 7 4 5 6 11 10 8 10 14 16 11 8 10 13 17 17 15 16 14 14 13 11 8 7 8 9 9 10 8 7 6 4 3 2 4 7 9 10 12 16 17
4 3 4 5 8 9 8 9 13 16 12 5 2 2 3 2 15 21 22 18 16 16 16 16 12 11 13 11 7 13 14 12 6 8 7 5 5 4 2 1 1 2 4 4 4 4 3 3 3 4 6 7 9 10
4 6 6 7 10 13 14 15 4 6 12 9 10 14 19 24 29 26 22 17 14 11 12 13 12 10 11 9 11 10 6 5 6 6 7 6 5 5 4 4 5 5 5 7 7 7 8 9 9 9 9 10 11 12
4 4 6 9 12 5 18 19 19 18 21 28 25 26 26 26 24 21 18 18 17 14 15 17 15 12 11 9 7 6 6 6 7 7 7 7 7 6 5 5 5 6 8 9 10 11 12 13 12 14 15 16 15 15
6 6 7 14 24 23 25 25 20 18 23 28 27 22 21 21 24 25 21 21 16 17 16 14 12 10 7 6 6 6 7 8 9 9 9 9 9 8 8 7 7 7 7 8 9 10 11 11 12 13 14 14 15 15
16 22 26 19 14 19 21 18 16 14 16 18 21 20 17 14 18 20 16 17 12 11 10 8 7 8 8 9 10 11 12 11 11 11 11 10 10 10 9 9 9 9 9 10 10 11 11 12 12 12 12 12 12 13

GFSWCAN_700_spd_147.txt.gz
Wind_Speed
37 37 34 29 25 21 18 20 21 22 22 21 19 17 16 15 14 14 13 13 15 16 16 17 18 20 14 13 10 7 10 12 11 17 19 20 19 23 23 25 30 31 29 31 41 36 23 7 17 15 8 6 7 8
36 33 32 27 21 20 20 21 22 22 20 18 17 16 16 15 14 13 13 14 15 17 13 14 17 16 14 16 18 15 14 7 6 8 9 11 14 16 19 26 27 26 34 32 33 36 15 19 12 14 8 8 7 6
30 31 22 16 18 23 23 22 22 20 19 17 17 16 15 14 12 13 12 14 15 18 13 11 10 13 19 21 22 20 13 13 12 19 11 14 12 15 19 25 15 25 16 27 29 20 13 15 12 13 8 7 7 6
23 20 15 17 18 19 20 20 19 18 18 17 16 15 13 12 12 12 12 12 15 16 15 4 13 8 12 13 14 16 22 14 22 16 16 13 12 14 19 12 12 26 14 25 28 34 22 16 10 9 7 9 7 9
18 14 15 18 19 19 20 20 19 18 18 16 14 13 12 11 10 10 11 12 13 12 11 14 13 8 6 11 13 17 19 23 18 15 14 14 16 23 21 20 30 21 17 29 29 33 30 12 20 15 9 13 12 13
15 16 19 20 20 21 20 19 18 17 17 15 13 11 10 9 10 9 9 8 8 6 11 5 6 4 11 9 10 12 16 16 18 18 12 12 14 13 14 21 30 14 7 12 16 24 42 11 15 13 18 17 15 15
14 17 20 21 22 21 19 19 18 17 15 13 11 10 9 8 8 9 9 8 7 6 8 6 4 9 7 5 5 7 11 16 15 14 18 15 19 19 23 24 29 19 8 11 18 27 26 23 26 25 19 19 15 16
16 22 22 22 20 19 18 17 16 15 12 10 9 8 7 6 7 8 9 6 4 4 5 4 4 10 3 5 4 9 13 17 16 16 17 16 13 19 25 29 21 26 8 2 9 20 21 25 26 26 19 17 12 14
21 20 18 18 18 18 18 16 15 13 10 7 7 6 6 5 5 4 5 4 8 9 5 4 4 7 4 8 13 8 13 14 16 19 17 15 21 22 27 25 22 22 10 8 8 12 15 22 23 17 16 13 10 11
17 17 18 19 18 18 16 14 12 10 8 7 6 5 4 2 3 4 0 3 7 10 15 13 8 9 5 12 9 3 7 10 9 11 12 17 25 16 18 12 20 14 20 8 10 10 14 17 15 15 14 10 10 11
18 18 18 18 17 15 13 11 9 8 7 8 8 8 7 7 4 5 5 5 5 6 10 8 8 8 9 8 9 7 9 9 6 8 7 6 11 8 8 11 18 11 27 21 17 12 17 16 10 12 11 10 11 12
18 18 17 15 13 12 10 8 7 8 8 8 7 6 6 6 5 5 4 5 5 6 6 7 10 8 10 8 8 8 8 4 5 6 5 4 6 8 9 4 10 15 20 25 26 22 19 24 12 10 9 11 12 12
17 15 14 12 10 8 6 6 6 7 7 7 6 6 5 7 8 5 4 7 6 5 8 9 3 4 6 6 7 6 5 6 6 5 4 3 9 12 9 6 10 14 22 31 34 30 27 20 24 15 13 12 9 8
14 13 12 10 8 6 4 5 7 8 9 7 6 7 6 5 5 7 10 9 8 8 10 8 4 4 4 6 6 5 5 5 4 3 4 11 13 10 8 7 7 11 16 28 29 25 30 29 23 17 16 13 8 6
12 11 10 9 7 5 4 5 8 9 9 7 5 5 7 4 7 9 9 9 11 11 15 14 10 8 6 6 4 5 4 3 2 5 14 15 13 9 6 5 3 7 10 17 22 22 25 24 21 24 18 17 13 10
9 9 9 7 5 4 5 6 9 7 8 6 6 4 2 4 6 9 11 10 12 11 4 4 6 4 6 5 5 4 3 1 6 11 9 14 5 2 3 3 5 8 18 15 16 17 17 19 30 32 24 28 22 17
7 7 7 4 4 5 7 7 7 9 7 7 5 7 8 7 10 9 5 9 9 12 2 4 5 5 3 4 3 2 2 4 10 7 11 15 15 2 1 5 4 11 17 16 14 16 17 19 26 26 34 32 29 25
6 6 3 3 4 4 3 4 3 5 8 10 7 5 6 8 10 7 6 7 7 8 1 6 2 2 3 4 4 4 5 5 6 9 12 13 12 12 8 4 4 8 20 19 17 11 8 14 31 23 20 23 21 19
8 6 4 7 7 8 5 5 4 5 6 8 8 6 7 10 10 9 7 7 6 2 2 2 3 2 3 4 4 5 6 8 7 9 14 11 8 6 4 8 11 7 12 16 26 26 11 7 21 15 13 13 16 19
6 6 6 11 11 7 4 4 5 7 4 7 8 9 10 12 9 7 8 9 8 6 5 3 3 4 4 9 8 8 6 10 5 4 7 6 4 5 5 5 4 11 8 12 14 16 17 13 12 16 17 15 17 17
6 6 6 10 7 7 4 3 4 3 4 3 5 7 7 7 9 10 9 9 12 11 8 9 10 10 12 15 12 10 10 6 3 5 8 4 4 4 3 6 5 3 4 6 8 12 14 19 12 16 20 24 24 21
7 8 6 7 8 9 10 8 7 7 7 7 8 7 6 6 7 9 9 11 13 9 11 11 11 13 10 9 8 6 5 4 5 4 6 7 5 4 2 3 3 3 4 7 8 7 8 16 17 26 19 18 18 23
9 11 5 6 7 5 4 5 5 5 3 4 3 5 4 3 4 5 6 6 5 6 10 10 11 7 8 8 7 6 4 5 5 6 5 6 7 6 6 2 2 6 3 5 8 7 9 10 10 11 16 20 22 23
11 9 6 5 6 3 4 4 3 3 4 5 3 3 4 3 5 7 5 5 4 7 7 5 5 4 3 3 4 5 5 4 3 3 2 1 4 5 3 1 1 6 3 2 3 7 8 7 4 3 7 9 11 10
8 6 3 4 4 4 3 3 3 4 6 4 6 6 4 4 3 5 6 6 5 5 4 4 4 3 4 3 2 4 5 6 7 7 2 1 3 3 4 5 4 3 3 2 2 2 6 8 8 7 9 9 12 9
5 5 5 4 3 4 5 6 4 6 3 4 5 7 8 7 4 2 3 3 3 4 4 4 3 2 2 5 2 5 9 10 11 9 7 9 9 7 5 5 4 3 5 6 2 3 3 3 4 8 10 10 8 10
5 3 4 6 5 6 8 7 7 7 6 7 11 10 9 4 4 4 4 5 6 5 6 5 1 3 6 9 8 16 15 15 15 12 12 13 13 11 8 6 5 6 7 3 3 3 2 1 4 4 6 9 11 12
7 4 5 6 6 7 11 11 10 7 8 11 9 8 3 3 4 4 4 7 15 11 7 5 4 6 6 19 18 16 13 17 16 12 7 9 10 9 10 11 10 9 8 8 9 9 10 9 8 7 6 7 7 6
6 5 4 6 8 11 11 9 9 13 14 14 7 6 2 5 6 12 19 20 20 15 13 12 11 20 14 11 17 19 14 11 3 5 6 5 6 7 6 3 2 1 3 6 8 5 4 4 2 3 3 2 6 8
6 6 6 6 8 13 14 15 16 19 9 10 12 12 13 20 21 21 17 18 18 15 13 11 16 15 12 12 11 9 8 6 5 5 5 4 3 2 2 3 4 3 1 5 7 8 7 9 9 10 11 11 15 15
7 6 8 11 12 2 6 13 15 15 11 11 21 27 28 26 22 19 16 16 12 10 11 19 22 17 11 7 6 6 6 6 6 5 5 4 4 4 4 4 5 6 6 7 8 8 7 6 7 10 13 13 14 14
7 7 8 8 21 25 24 24 29 25 24 27 29 23 17 14 18 21 15 13 13 12 13 11 8 7 5 4 6 6 8 8 7 7 6 6 5 5 6 6 7 7 8 9 9 9 9 10 10 11 13 13 13 13
10 15 24 25 22 24 27 23 23 23 21 18 18 18 14 12 15 14 20 15 10 9 9 8 7 5 6 7 9 10 10 9 9 8 7 7 8 8 8 8 8 8 8 8 9 10 10 10 10 10 11 11 12 13

GFSWCAN_700_spd_150.txt.gz
Wind_Speed
37 36 35 33 30 30 22 19 20 21 22 21 20 19 17 16 14 14 15 15 16 19 15 21 17 18 17 13 12 10 10 8 17 17 21 23 24 25 24 26 23 24 34 40 33 29 30 20 10 22 8 5 15 15
34 35 33 31 28 20 17 20 22 21 21 20 19 18 17 16 15 14 15 15 16 18 13 13 15 17 18 19 20 16 15 12 6 8 10 11 12 15 19 21 20 31 23 34 28 29 15 21 29 19 18 14 16 17
33 31 31 25 19 16 18 19 20 20 20 19 18 18 17 15 14 14 14 15 17 17 12 9 8 11 14 18 19 20 13 10 12 19 12 14 15 11 17 19 19 22 29 29 18 27 25 6 22 16 8 15 14 13
33 29 25 18 14 16 18 19 20 20 19 19 18 17 16 14 13 13 12 12 14 15 14 2 4 8 8 11 14 17 20 20 14 14 16 15 17 12 18 21 25 15 14 26 22 16 35 23 24 26 11 12 15 14
23 18 14 15 17 19 20 20 20 19 18 18 17 16 14 12 12 12 11 11 12 12 13 15 14 11 13 17 17 15 16 15 20 16 16 19 14 19 21 24 25 15 13 26 27 12 18 22 26 39 19 18 13 7
13 12 13 17 19 21 21 20 19 19 18 18 16 14 12 11 10 10 10 10 6 8 13 9 12 8 13 14 18 15 14 18 16 14 20 17 14 16 14 14 14 19 21 28 36 13 23 19 19 6 15 13 8 7
16 15 15 20 22 22 21 19 19 18 17 16 14 12 10 9 9 9 10 9 7 7 9 9 2 8 10 10 5 7 8 16 22 21 22 16 14 18 20 24 17 24 22 29 28 13 22 17 14 25 23 14 7 8
16 17 21 22 20 18 18 18 18 16 15 13 10 8 8 7 7 8 7 8 6 5 7 4 3 8 9 5 6 11 11 17 18 17 18 14 16 20 17 8 7 17 20 18 36 19 22 17 23 19 19 16 13 11
17 20 19 18 18 19 19 18 17 15 12 10 8 6 5 5 4 3 6 5 6 8 5 6 5 8 6 4 6 8 12 16 14 19 18 13 14 14 11 14 21 24 20 24 31 27 23 21 23 25 23 24 19 13
17 17 18 18 18 18 18 16 15 12 9 8 6 4 1 2 2 1 4 3 7 7 15 13 5 13 7 10 11 7 11 12 10 14 8 22 24 22 23 26 26 19 22 30 22 23 29 25 37 23 28 20 19 14
16 17 17 17 18 17 15 13 11 8 7 6 5 4 5 4 2 3 5 5 5 6 9 6 11 11 11 11 11 6 5 7 6 8 11 7 8 10 9 15 10 19 16 21 27 25 29 8 30 29 24 20 17 12
16 16 16 16 15 13 12 10 8 7 7 6 4 4 6 4 3 5 5 5 5 5 6 8 9 10 12 8 6 7 6 6 6 6 6 5 9 11 11 5 13 8 8 9 12 16 19 9 28 22 19 18 13 11
17 16 14 13 12 11 9 6 5 6 6 7 6 5 5 5 6 4 4 5 4 11 7 9 10 4 5 7 6 5 4 6 7 4 3 7 13 15 12 6 11 11 14 13 14 12 9 10 16 14 17 16 11 10
15 13 12 11 10 8 7 5 5 7 9 7 5 6 6 5 5 6 11 13 13 12 10 10 8 4 3 4 5 4 7 8 3 3 3 11 20 17 11 9 7 9 12 15 19 18 19 16 21 18 14 13 10 8
12 11 11 9 8 7 5 5 7 9 10 7 6 5 7 5 8 10 7 11 10 12 12 15 13 7 8 6 4 5 4 3 2 5 11 18 12 10 5 6 6 6 12 10 17 22 21 24 23 26 19 10 10 8
9 10 9 7 6 5 4 6 7 6 7 7 7 4 3 5 6 6 10 12 12 12 17 7 3 4 5 4 4 5 5 3 8 6 9 15 12 4 3 5 4 8 17 18 19 20 18 25 24 24 19 16 13 13
7 7 8 6 4 4 5 5 5 7 6 7 5 7 11 8 11 6 10 14 11 12 7 1 2 4 4 4 3 3 3 7 10 10 11 15 14 3 3 6 5 9 17 26 19 16 18 24 22 23 23 18 20 16
7 7 5 3 3 2 1 4 3 5 9 11 9 7 9 9 8 7 11 4 9 12 6 4 5 3 4 3 3 7 3 7 9 10 15 16 9 7 7 7 6 6 10 18 16 19 19 16 18 20 26 29 24 24
9 7 4 4 6 7 5 4 6 6 5 9 8 9 11 10 7 8 11 7 11 8 5 4 3 3 5 7 8 7 8 11 14 16 15 14 10 10 8 11 13 7 12 16 18 14 14 12 14 18 20 23 23 33
6 6 6 6 8 6 6 4 5 8 5 7 8 9 12 13 12 11 9 8 14 11 8 4 1 6 14 14 12 14 13 11 7 7 8 8 6 6 3 7 14 17 9 12 17 15 6 12 13 20 24 20 17 32
5 4 3 8 6 5 5 4 6 6 9 8 4 6 9 7 11 12 9 7 17 13 10 4 7 11 15 10 17 19 11 10 8 6 7 8 5 5 7 9 6 10 11 13 11 12 19 21 18 22 27 18 14 23
6 7 5 6 7 8 9 8 9 12 12 10 10 10 11 9 8 10 8 15 15 12 9 11 9 13 14 16 15 12 12 5 5 5 8 5 6 4 4 5 6 6 10 6 5 8 15 4 10 22 14 8 17 20
7 9 8 8 6 6 6 8 6 6 5 6 7 7 5 6 6 6 10 7 8 9 10 10 14 19 18 15 11 9 7 6 4 5 4 3 5 5 4 2 4 6 3 4 7 7 3 4 4 6 8 17 19 21
9 11 7 5 6 5 4 5 5 5 5 7 8 5 5 4 3 4 4 8 4 6 3 10 16 11 8 5 5 6 6 5 4 8 4 2 1 5 3 2 4 7 2 1 2 6 8 8 8 10 10 9 11 12
9 8 4 5 5 4 3 3 3 6 7 8 9 7 4 3 3 2 3 4 7 10 14 12 10 4 4 6 3 3 5 5 6 6 4 8 7 3 5 7 7 7 6 5 3 4 4 5 6 1 2 8 11 13
7 6 5 3 2 3 3 4 6 8 7 6 4 6 7 5 3 3 1 2 3 4 11 7 5 2 1 1 6 8 15 19 17 15 14 8 7 6 7 5 6 7 7 6 6 4 3 0 1 2 5 7 9 11
5 3 5 8 7 6 5 6 8 7 7 5 8 10 8 2 3 1 3 2 5 6 4 6 5 2 5 11 14 18 18 19 18 12 13 13 16 13 12 8 7 9 8 11 7 5 6 4 2 2 3 3 4 8
7 5 5 8 9 9 10 8 9 8 9 9 8 8 4 2 3 3 2 5 6 3 1 4 3 9 17 23 20 22 17 15 9 11 9 10 5 8 10 10 9 9 8 5 5 9 10 6 1 2 4 5 3 5
8 6 6 7 8 9 11 12 12 10 11 11 13 10 5 7 6 4 3 10 10 7 14 15 18 23 22 20 15 11 10 6 5 7 7 7 6 11 14 12 4 3 4 6 5 3 5 6 7 8 8 7 8 12
8 8 10 9 10 12 12 15 13 14 13 14 7 5 9 18 19 13 18 18 16 16 19 20 23 19 18 9 8 5 8 7 9 9 5 4 2 1 1 6 6 1 6 8 9 11 10 11 11 5 6 8 11 7
9 8 11 12 15 17 21 22 20 13 8 15 17 26 26 22 16 16 21 20 21 20 15 17 14 7 9 8 1 6 6 5 4 2 2 2 3 3 3 3 5 5 6 6 7 7 5 6 10 13 14 12 12 11
11 12 13 7 12 13 17 18 15 19 27 32 27 25 25 20 15 9 15 18 12 8 11 12 5 3 4 2 3 5 5 6 5 5 4 5 4 4 4 5 6 7 8 8 8 8 7 8 9 10 13 13 13 13
8 5 13 21 24 17 20 32 29 27 23 19 16 15 17 15 15 11 11 11 8 9 9 6 7 2 6 7 8 9 9 8 7 7 6 6 6 6 7 8 8 9 9 10 10 10 10 10 10 10 11 12 14 15